     2              OBSERVATION DATA    GPS                 RINEX VERSION / TYPE
ASRINEXO V2.9.7 UX USGS/MENLO_PARK 08-MAY-00 16:34          PGM / RUN BY / DATE
                                                            COMMENT
BIT 2 OF LLI (+4) FLAGS DATA COLLECTED UNDER "AS" CONDITION COMMENT
BIT 2 OF LLI (+4) FLAGS DATA COLLECTED UNDER "AS" CONDITION COMMENT
BIT 2 OF LLI (+4) FLAGS DATA COLLECTED UNDER "AS" CONDITION COMMENT
BIT 2 OF LLI (+4) FLAGS DATA COLLECTED UNDER "AS" CONDITION COMMENT
BIT 2 OF LLI (+4) FLAGS DATA COLLECTED UNDER "AS" CONDITION COMMENT
BIT 2 OF LLI (+4) FLAGS DATA COLLECTED UNDER "AS" CONDITION COMMENT
BIT 2 OF LLI (+4) FLAGS DATA COLLECTED UNDER "AS" CONDITION COMMENT
Original Marker Name: lae2 LAPE2__T6nR4e_S23S24S26.._GLO    COMMENT
Campaign Name: Hector Mine Earthquake                       COMMENT
4-Character Station Name: LAE2                              COMMENT
6-Character Antenna Code: DMRCHT                            COMMENT
Vertical Measurement Point: BCR                             COMMENT
Vertical Offset to Rinex Ref. Point: 0.0348                 COMMENT
Radial Measurement Point: ECF                               COMMENT
Radial Offset to Rinex Ref. Point: 0.1897                   COMMENT
Antenna Height from Field Measurement: 0.7000 m             COMMENT
Additional Antenna Identification Info.:                    COMMENT
Turborogue and Ashtech Choke Ring                           COMMENT
Original XYZ: -2347570.7635 -4703973.2568 3600954.6613      COMMENT
New XYZ position is based on association with SCEC monument COMMENT
E1F2J9D3+0011. Position of that monument is believed to be  COMMENT
valid to within 1 m horizontally; vertical accuracy         COMMENT
should be no worse than 3-times this value.                 COMMENT
                                                            COMMENT
Revised Rinex header created by UCSD GPS archive for        COMMENT
GSAC on 16-Jun-2000 (2000:168) 04:00:43 GMT                 COMMENT
For assistance contact dagnew@ucsd.edu                      COMMENT
or anderson@python.ucsd.edu                                 COMMENT
                                                            COMMENT
S23S24S26S26 T6N R4E 1919                                   MARKER NAME
JMS US GEOLOGICAL SURVEY                                    OBSERVER / AGENCY
360 ASHTECH Z-XII3 CC00                                     REC # / TYPE / VERS
706 DORNE-MARGOL. TYPE T                                    ANT # / TYPE
 -2347561.8191 -4703945.4288  3600933.0956                  APPROX POSITION XYZ
        0.6390        0.0000        0.0000                  ANTENNA: DELTA H/E/N
     1     1     0                                          WAVELENGTH FACT L1/2
     5    C1    L1    L2    P1    P2                        # / TYPES OF OBSERV
    30                                                      INTERVAL
  2000     5     4     0     0   30.000000                  TIME OF FIRST OBS
  2000     5     4    23    58   30.000000                  TIME OF LAST OBS
                                                            END OF HEADER
 00  5  4  0  0 30.0000000  0  8 23 21 22 26 17 29 06 03
  20767319.077   -20928870.823 9 -16284519.44547  20767318.544    20767327.3744
  22302146.688   -16258131.863 8 -12370124.30746  22302146.216    22302158.0614
  24538699.220    -4015657.662 8  -3110721.17245  24538698.312    24538717.4184
  22819724.958   -11103866.287 8  -8377588.98246  22819724.943    22819735.6694
  20958934.170   -23772375.637 9 -18511957.89847  20958933.542    20958943.0674
  23251677.590   -10121593.146 8  -7858973.78045  23251677.449    23251694.5864
  22827808.572   -16680960.807 8 -12971235.28546  22827808.397    22827822.2994
  22870258.795   -13815250.513 8 -10737556.99246  22870258.510    22870270.4154
 00  5  4  0  1  0.0000000  0  8 23 21 22 26 17 29 06 03
  20769802.319   -20915821.036 9 -16274350.72947  20769801.785    20769810.5894
  22292240.404   -16310189.133 8 -12410688.25247  22292239.934    22292251.7124
  24549153.033    -3960723.211 8  -3067915.31545  24549152.135    24549171.2824
  22834979.316   -11023704.193 8  -8315125.00946  22834979.322    22834989.9674
  20963215.077   -23749879.196 9 -18494428.18547  20963214.449    20963223.9774
  23231789.296   -10226104.827 8  -7940411.05345  23231789.188    23231806.2054
  22847489.586   -16577536.996 8 -12890645.50946  22847489.442    22847503.4794
  22855177.184   -13894503.811 8 -10799312.62646  22855176.941    22855188.8344
 00  5  4  0  1 30.0000000  0  8 23 21 22 26 17 29 06 03
  20772338.631   -20902492.523 9 -16263964.82847  20772338.100    20772346.8894
  22282378.912   -16362011.388 8 -12451069.07547  22282378.421    22282390.1294
  24559653.386    -3905544.357 7  -3024919.01945  24559652.446    24559671.6884
  22850314.689   -10943116.549 8  -8252329.43646  22850314.646    22850325.2724
  20967547.488   -23727112.516 9 -18476687.89447  20967546.849    20967556.3594
  23211928.586   -10330471.720 8  -8021735.50845  23211928.537    23211945.4374
  22867214.656   -16473881.602 8 -12809875.29346  22867214.526    22867228.6504
  22840164.638   -13973394.557 8 -10860785.77146  22840164.354    22840176.2344
 00  5  4  0  2  0.0000000  0  8 23 21 22 26 17 29 06 03
  20774927.751   -20888886.613 9 -16253362.77747  20774927.207    20774935.9804
  22272561.977   -16413599.121 8 -12491267.15947  22272561.487    22272573.1494
  24570199.683    -3850123.623 7  -2981734.25745  24570198.765    24570218.1934
  22865730.547   -10862105.733 8  -8189204.10746  22865730.564    22865741.1774
  20971931.402   -23704074.598 9 -18458736.25847  20971930.745    20971940.3074
  23192095.993   -10434690.880 8  -8102944.84645  23192095.916    23192112.6714
  22886983.394   -16369996.753 8 -12728926.28746  22886983.221    22886997.4884
  22825221.656   -14051920.103 8 -10921974.35146  22825221.348    22825233.1464
 00  5  4  0  2 30.0000000  0  8 23 21 22 26 17 29 06 03
  20777569.404   -20875004.420 9 -16242545.44647  20777568.869    20777577.6234
  22262789.753   -16464951.735 8 -12531282.03647  22262789.292    22262800.9154
  24580791.700    -3794463.164 7  -2938362.69545  24580790.842    24580810.1634
  22881226.438   -10780674.254 8  -8125751.02246  22881226.426    22881237.0304
  20976367.145   -23680764.477 9 -18440572.51247  20976366.514    20976376.0784
  23172292.049   -10538759.755 8  -8184037.07545  23172292.007    23172308.6054
  22906795.468   -16265884.703 8 -12647800.24946  22906795.285    22906809.6224
  22810348.611   -14130077.697 8 -10982876.20146  22810348.304    22810360.1404
 00  5  4  0  3  0.0000000  0  8 23 21 22 26 17 29 06 03
  20780263.213   -20860848.054 9 -16231514.47547  20780262.674    20780271.4244
  22253061.988   -16516070.784 8 -12571114.91447  22253061.506    22253073.1164
  24591428.700    -3738566.111 7  -2894806.79245  24591427.888    24591447.2684
  22896801.729   -10698825.569 8  -8061972.82046  22896801.773    22896812.3364
  20980854.671   -23657182.145 9 -18422196.64847  20980854.047    20980863.5904
  23152517.194   -10642675.917 8  -8265010.31645  23152517.077    23152533.5584
  22926650.166   -16161548.652 8 -12566499.65346  22926650.000    22926664.2824
  22795545.940   -14207865.572 8 -11043489.97146  22795545.662    22795557.4494
 00  5  4  0  3 30.0000000  0  8 23 21 22 26 17 29 06 03
  20783008.761   -20846419.870 9 -16220271.70147  20783008.233    20783016.9914
  22243378.499   -16566957.212 8 -12610766.53447  22243378.050    22243389.6134
  24602109.901    -3682436.391 7  -2851069.60445  24602109.143    24602128.5084
  22912455.712   -10616563.568 8  -7997872.57546  22912455.707    22912466.2514
  20985393.959   -23633328.019 9 -18403609.00347  20985393.335    20985402.8964
  23132771.581   -10746438.398 8  -8345863.80845  23132771.456    23132787.6984
  22946546.813   -16056992.221 8 -12485027.33646  22946546.576    22946560.8754
  22780813.871   -14285282.560 8 -11103814.75046  22780813.581    22780825.3354
 00  5  4  0  4  0.0000000  0  8 23 21 22 26 17 29 06 03
  20785806.456   -20831717.679 9 -16208815.41647  20785805.926    20785814.6834
  22233740.003   -16617607.285 8 -12650233.97647  22233739.552    22233751.0364
  24612835.470    -3626073.532 7  -2807150.74345  24612834.680    24612854.2784
  22928188.496   -10533887.153 8  -7933449.40846  22928188.495    22928199.0354
  20989985.810   -23609197.577 9 -18384806.04747  20989985.205    20989994.7344
  23113056.434   -10850040.808 8  -8426592.58645  23113056.265    23113072.4144
  22966485.563   -15952214.170 8 -12403382.34446  22966485.353    22966499.7304
  22766153.543   -14362322.472 8 -11163845.70946  22766153.270    22766164.9874
 00  5  4  0  4 30.0000000  0  8 23 21 22 26 17 29 06 03
  20788655.583   -20816745.445 9 -16197148.70347  20788655.054    20788663.7864
  22224145.752   -16668024.693 8 -12689520.12547  22224145.305    22224156.7344
  24623604.369    -3569482.902 7  -2763054.43644  24623603.763    24623623.1234
  22943999.146   -10450801.848 8  -7868707.62446  22943999.140    22944009.6474
  20994629.896   -23584792.818 9 -18365789.33047  20994629.271    20994638.7604
  23093371.663   -10953483.011 8  -8507196.51645  23093371.532    23093387.6044
  22986465.546   -15847219.606 8 -12321568.63046  22986465.331    22986479.7344
  22751564.963   -14438985.341 8 -11223582.87046  22751564.680    22751576.3634
 00  5  4  0  5  0.0000000  0  8 23 21 22 26 17 29 06 03
  20791555.952   -20801503.687 9 -16185271.98447  20791555.436    20791564.1544
  22214595.919   -16718208.759 8 -12728624.46147  22214595.476    22214606.8824
  24634416.388    -3512666.066 7  -2718781.83444  24634415.870    24634435.1214
  22959887.226   -10367309.441 8  -7803648.62646  22959887.210    22959897.7464
  20999326.444   -23560112.235 9 -18346557.70647  20999325.839    20999335.3134
  23073718.013   -11056762.166 8  -8587673.39745  23073717.938    23073733.8984
  23006486.410   -15742010.539 8 -12239587.77546  23006486.091    23006500.7174
  22737048.817   -14515268.014 8 -11283023.78546  22737048.539    22737060.0864
 00  5  4  0  5 30.0000000  0  8 23 21 22 26 17 29 06 03
  20794507.155   -20785995.067 9 -16173187.30847  20794506.633    20794515.3314
  22205090.316   -16768160.712 8 -12767547.91847  22205089.856    22205101.2214
  24645270.648    -3455626.938 7  -2674336.00244  24645269.946    24645289.7474
  22975852.024   -10283414.041 8  -7738275.59946  22975852.038    22975862.5374
  21004075.384   -23535156.434 9 -18327111.61547  21004074.752    21004084.2624
  23054095.800   -11159876.448 8  -8668021.79445  23054095.712    23054111.5744
  23026547.248   -15636590.463 8 -12157442.51046  23026546.963    23026561.6954
  22722605.217   -14591169.340 8 -11342167.54046  22722604.918    22722616.3834
 00  5  4  0  6  0.0000000  0  8 23 21 22 26 17 29 06 03
  20797509.054   -20770219.909 9 -16160894.94947  20797508.504    20797517.2064
  22195628.979   -16817879.724 8 -12806289.87547  22195628.516    22195639.8754
  24656166.781    -3398367.185 7  -2629718.26044  24656165.952    24656185.9114
  22991893.185   -10199117.251 8  -7672589.81346  22991893.223    22991903.6824
  21008876.994   -23509923.664 9 -18307449.70747  21008876.358    21008885.8734
  23034505.538   -11262822.462 8  -8748239.09245  23034505.454    23034521.2454
  23046648.060   -15530960.868 8 -12075133.97346  23046647.867    23046662.5724
  22708234.785   -14666685.651 8 -11401011.27346  22708234.487    22708245.9514
 00  5  4  0  6 30.0000000  0  8 23 21 22 26 17 29 06 03
  20800561.351   -20754179.719 9 -16148396.07247  20800560.821    20800569.5214
  22186212.056   -16867365.489 8 -12844850.08447  22186211.606    22186222.9604
  24667104.383    -3340889.983 7  -2584931.05844  24667103.677    24667123.6014
  23008010.184   -10114421.794 8  -7606593.38346  23008010.186    23008020.6634
  21013731.471   -23484413.188 9 -18287571.40947  21013730.837    21013740.3214
  23014947.831   -11365597.374 8  -8828323.06646  23014947.764    23014963.4744
  23066788.315   -15425124.162 8 -11992664.05846  23066788.065    23066802.8184
  22693938.021   -14741814.753 8 -11459553.28746  22693937.724    22693949.2344
 00  5  4  0  7  0.0000000  0  8 23 21 22 26 17 29 06 03
  20803663.759   -20737876.262 9 -16135692.04347  20803663.224    20803671.9164
  22176839.311   -16916619.192 8 -12883229.45747  22176838.824    22176850.1564
  24678083.076    -3283198.361 7  -2539976.75744  24678082.320    24678101.9434
  23024202.377   -10029330.929 8  -7540288.84346  23024202.417    23024212.8784
  21018638.907   -23458624.712 9 -18267476.48347  21018638.240    21018647.6984
  22995423.091   -11468199.302 8  -8908272.25046  22995423.011    22995438.6494
  23086967.393   -15319083.362 8 -11910035.12245  23086967.155    23086981.9154
  22679715.403   -14816554.548 8 -11517791.94346  22679715.070    22679726.5964
 00  5  4  0  7 30.0000000  0  8 23 21 22 26 17 29 06 03
  20806816.084   -20721310.598 9 -16122783.70347  20806815.542    20806824.2254
  22167510.612   -16965641.337 8 -12921428.40547  22167510.122    22167521.4254
  24689102.055    -3225294.828 7  -2494857.30544  24689101.261    24689120.6824
  23040469.462    -9943847.205 8  -7473678.17246  23040469.445    23040479.9304
  21023599.255   -23432557.486 9 -18247164.35647  21023598.616    21023608.0894
  22975931.808   -11570625.294 8  -8988084.35046  22975931.724    22975947.2564
  23107184.927   -15212840.852 8 -11827248.99045  23107184.658    23107199.4294
  22665567.434   -14890902.450 8 -11575725.23246  22665567.065    22665578.5724
 00  5  4  0  8  0.0000000  0  8 23 21 22 26 17 29 06 03
  20810018.070   -20704483.999 9 -16109672.03647  20810017.545    20810026.2174
  22158225.999   -17014431.650 8 -12959446.70747  22158225.520    22158236.7934
  24700160.979    -3167181.533 7  -2449574.38544  24700160.203    24700179.2974
  23056810.725    -9857973.315 8  -7406763.47446  23056810.722    23056821.2494
  21028612.961   -23406210.457 9 -18226634.20147  21028612.345    21028621.7744
  22956474.521   -11672872.686 8  -9067757.28946  22956474.415    22956489.8604
  23127440.365   -15106398.828 8 -11744307.40145  23127440.136    23127454.8484
  22651494.425   -14964855.821 8 -11633351.09246  22651494.087    22651505.5714
 00  5  4  0  8 30.0000000  0  8 23 21 22 26 17 29 06 03
  20813269.238   -20687398.595 9 -16096358.70047  20813268.714    20813277.4074
  22148985.270   -17062991.454 8 -12997285.38947  22148984.777    22148996.0084
  24711258.971    -3108862.234 7  -2404130.95044  24711258.283    24711277.3314
  23073225.516    -9771712.690 8  -7339547.42945  23073225.578    23073236.1244
  21033679.864   -23379583.749 9 -18205886.11147  21033679.237    21033688.6754
  22937051.584   -11774939.535 8  -9147289.54346  22937051.450    22937066.7404
  23147733.078   -14999760.672 8 -11661212.97745  23147732.888    23147747.6134
  22637496.811   -15038413.013 8 -11690668.26046  22637496.488    22637507.8644
 00  5  4  0  9  0.0000000  0  8 23 21 22 26 17 29 06 03
  20816569.587   -20670055.061 9 -16082844.23247  20816569.069    20816577.7574
  22139788.548   -17111320.118 8 -13034943.97047  22139788.064    22139799.2734
  24722395.773    -3050339.339 7  -2358528.89645  24722395.022    24722414.3814
  23089713.591    -9685067.380 8  -7272031.61945  23089713.644    23089724.1674
  21038800.268   -23352675.850 9 -18184918.91347  21038799.642    21038809.0254
  22917663.554   -11876822.762 8  -9226678.71546  22917663.432    22917678.6474
  23168062.854   -14892928.002 8 -11577966.99345  23168062.643    23168077.4644
  22623575.229   -15111570.691 8 -11747674.10246  22623574.905    22623586.2334
 00  5  4  0  9 30.0000000  0  8 23 21 22 26 17 29 06 03
  20819918.687   -20652455.413 9 -16069130.18847  20819918.141    20819926.8144
  22130635.632   -17159418.600 8 -13072423.18547  22130635.130    22130646.3054
  24733570.732    -2991616.158 8  -2312770.78545  24733569.985    24733589.4994
  23106274.245    -9598040.726 8  -7204218.66245  23106274.210    23106284.7914
  21043974.191   -23325486.795 9 -18163732.62047  21043973.550    21043982.9534
  22898310.850   -11978520.316 8  -9305923.20446  22898310.700    22898325.9174
  23188428.943   -14785904.099 8 -11494572.00645  23188428.785    23188443.6864
  22609730.035   -15184327.134 8 -11804367.29646  22609729.740    22609740.9874
 00  5  4  0 10  0.0000000  0  8 23 21 22 26 17 29 06 03
  20823316.400   -20634600.140 9 -16055216.95947  20823315.878    20823324.5444
  22121526.600   -17207286.276 8 -13109722.54847  22121526.126    22121537.2794
  24744783.522    -2932694.132 8  -2266857.73245  24744782.633    24744802.3404
  23122907.034    -9510634.739 8  -7136110.12645  23122906.985    23122917.7044
  21049201.855   -23298015.025 9 -18142326.03647  21049201.251    21049210.6464
  22878994.212   -12080028.705 8  -9385020.31246  22878994.073    22879009.1494
  23208831.217   -14678690.516 8 -11411029.21545  23208831.050    23208846.0434
  22595961.820   -15256679.080 8 -11860745.29846  22595961.511    22595972.7154
 00  5  4  0 10 30.0000000  0  8 23 21 22 26 17 29 06 03
  20826762.407   -20616491.103 9 -16041105.99247  20826761.873    20826770.5424
  22112461.393   -17254923.943 8 -13146842.68947  22112460.902    22112472.0104
  24756033.433    -2873576.475 8  -2220792.25845  24756032.595    24756052.3804
  23139611.352    -9422852.753 8  -7067708.60545  23139611.400    23139622.0794
  21054483.452   -23270260.323 9 -18120698.97547  21054482.815    21054492.2184
  22859713.956   -12181345.920 8  -9463968.45546  22859713.800    22859728.7884
  23229268.936   -14571290.394 8 -11327341.07645  23229268.752    23229283.8584
  22582270.866   -15328625.037 8 -11916806.94246  22582270.580    22582281.7614
 00  5  4  0 11  0.0000000  0  8 23 21 22 26 17 29 06 03
  20830256.446   -20598129.863 9 -16026798.50047  20830255.914    20830264.5624
  22103439.841   -17302332.076 8 -13183783.96147  22103439.348    22103450.4234
  24767319.873    -2814266.492 8  -2174576.93445  24767318.952    24767338.9394
  23156386.620    -9334697.846 8  -6999016.48545  23156386.687    23156397.4414
  21059818.873   -23242222.372 9 -18098851.20247  21059818.231    21059827.6244
  22840470.528   -12282469.696 8  -9542765.87046  22840470.342    22840485.2194
  23249741.654   -14463706.572 8 -11243509.79145  23249741.478    23249756.5974
  22568657.674   -15400162.558 8 -11972550.32946  22568657.384    22568668.5354
 00  5  4  0 11 30.0000000  0  8 23 21 22 26 17 29 06 03
  20833798.301   -20579517.337 9 -16012295.20347  20833797.762    20833806.4014
  22094461.919   -17349510.746 8 -13220546.44047  22094461.443    22094472.4634
  24778642.488    -2754766.787 8  -2128213.75845  24778641.603    24778661.5934
  23173232.478    -9246172.174 8  -6930035.45945  23173232.584    23173243.2484
  21065208.480   -23213899.667 9 -18076781.54647  21065207.840    21065217.2534
  22821264.522   -12383396.954 8  -9621410.16946  22821264.278    22821278.9914
  23270248.944   -14355941.036 8 -11159536.91645  23270248.771    23270263.9844
  22555122.726   -15471288.749 8 -12027973.20546  22555122.464    22555133.5684
 00  5  4  0 12  0.0000000  0  8 23 21 22 26 17 29 06 03
  20837387.588   -20560655.337 9 -15997597.50247  20837387.047    20837395.6844
  22085527.596   -17396460.282 8 -13257130.36147  22085527.128    22085538.1344
  24790000.652    -2695080.423 8  -2081705.15645  24789999.690    24790019.8884
  23190148.198    -9157279.133 8  -6860768.16345  23190148.334    23190158.9214
  21070652.332   -23185291.984 9 -18054489.82047  21070651.691    21070661.1004
  22802096.215   -12484125.530 8  -9699899.63946  22802096.028    22802110.6544
  23290790.179   -14247996.907 8 -11075424.87545  23290790.081    23290805.4574
  22541666.441   -15542001.651 8 -12083074.02746  22541666.150    22541677.2094
 00  5  4  0 12 30.0000000  0  8 23 21 22 26 17 29 06 03
  20841024.139   -20541545.003 9 -15982706.30047  20841023.590    20841032.2394
  22076636.830   -17443181.069 8 -13293536.04747  22076636.363    22076647.3404
  24801393.941    -2635209.455 7  -2035052.71845  24801392.993    24801413.1694
  23207133.491    -9068021.173 8  -6791216.50345  23207133.616    23207144.0804
  21076150.570   -23156398.563 9 -18031975.45147  21076149.925    21076159.3204
  22782966.211   -12584652.669 8  -9778232.15846  22782966.122    22782980.6384
  23311365.074   -14139876.177 8 -10991175.24845  23311364.957    23311380.4884
  22528289.188   -15612298.992 8 -12137851.04546  22528288.910    22528299.9084
 00  5  4  0 13  0.0000000  0  8 23 21 22 26 17 29 06 03
  20844707.797   -20522187.091 9 -15967622.17847  20844707.250    20844715.8954
  22067789.712   -17489672.549 8 -13329763.04847  22067789.228    22067800.1584
  24812821.891    -2575156.024 7  -1988258.10645  24812820.991    24812841.2024
  23224187.747    -8978400.564 8  -6721382.26345  23224187.889    23224198.3694
  21081703.433   -23127218.165 9 -18009237.45547  21081702.791    21081712.1304
  22763875.201   -12684975.135 8  -9856405.19546  22763875.078    22763889.5704
  23331973.273   -14031580.931 8 -10906789.61545  23331973.180    23331988.6444
  22514991.650   -15682177.565 8 -12192301.75246  22514991.356    22515002.3324
 00  5  4  0 13 30.0000000  0  8 23 21 22 26 17 29 06 03
  20848437.870   -20502585.407 9 -15952348.10147  20848437.327    20848445.9704
  22058985.586   -17535938.166 8 -13365814.04947  22058985.073    22058996.0134
  24824283.560    -2514925.751 7  -1941325.70545  24824282.636    24824302.9974
  23241310.030    -8888422.634 8  -6651269.59445  23241310.166    23241320.6834
  21087310.514   -23097752.759 9 -17986277.38347  21087309.869    21087319.2184
  22744823.152   -12785093.177 8  -9934418.93146  22744823.007    22744837.4224
  23352613.680   -13923116.258 8 -10822271.96745  23352613.552    23352628.9964
  22501773.761   -15751637.714 8 -12246426.41046  22501773.477    22501784.4214
 00  5  4  0 14  0.0000000  0  8 23 21 22 26 17 29 06 03
  20852214.482   -20482739.084 9 -15936883.39847  20852213.933    20852222.5644
  22050224.890   -17581975.448 8 -13401687.12347  22050224.397    22050235.2974
  24835778.594    -2454519.453 7  -1894256.17145  24835777.669    24835798.2034
  23258500.153    -8798088.043 8  -6580879.01945  23258500.195    23258510.8464
  21092972.440   -23067999.111 9 -17963092.70947  21092971.799    21092981.1224
  22725810.988   -12885001.594 8 -10012269.32846  22725810.819    22725825.2124
  23373286.276   -13814482.427 8 -10737622.52445  23373286.100    23373301.5314
  22488636.359   -15820674.705 8 -12300221.34646  22488636.071    22488646.9684
 00  5  4  0 14 30.0000000  0  8 23 21 22 26 17 29 06 03
  20856037.110   -20462650.933 9 -15921230.25447  20856036.566    20856045.1594
  22041507.258   -17627786.261 8 -13437383.73247  22041506.783    22041517.6464
  24847306.363    -2393941.001 7  -1847052.48745  24847305.488    24847326.1504
  23275757.386    -8707400.795 8  -6510213.62645  23275757.458    23275768.2264
  21098689.067   -23037958.016 9 -17939684.05447  21098688.422    21098697.7374
  22706838.849   -12984699.348 8 -10089955.56846  22706838.713    22706853.0534
  23393990.277   -13705683.410 8 -10652844.36645  23393990.078    23394005.6174
  22475579.627   -15889287.570 8 -12353685.78746  22475579.310    22475590.2104
 00  5  4  0 15  0.0000000  0  8 23 21 22 26 17 29 06 03
  20859906.172   -20442318.972 9 -15905387.13947  20859905.608    20859914.1894
  22032833.259   -17673368.054 8 -13472901.89047  22032832.787    22032843.6114
  24858867.024    -2333189.643 7  -1799714.04845  24858866.215    24858886.8854
  23293081.844    -8616360.714 8  -6439273.30945  23293081.875    23293092.6404
  21104461.137   -23007625.692 9 -17916048.47347  21104460.496    21104469.7974
  22687907.969   -13084180.735 8 -10167473.21746  22687907.879    22687922.1004
  23414725.787   -13596718.498 8 -10567936.94045  23414725.552    23414741.2114
  22462604.660   -15957470.818 8 -12406815.47646  22462604.393    22462615.1474
 00  5  4  0 15 30.0000000  0  7 23 21 26 17 29 06 03
  20863821.309   -20421744.676 9 -15889355.18747  20863820.728    20863829.2924
  22024202.887   -17718720.916 8 -13508241.64947  22024202.372    22024213.1364
  23310472.905    -8524970.503 8  -6368060.13645  23310472.886    23310483.6934
  21110288.768   -22977001.391 9 -17892185.37447  21110288.122    21110297.3884
  22669018.671   -13183443.417 8 -10244820.44546  22669018.575    22669032.7044
  23435492.424   -13487590.300 8 -10482902.28645  23435492.226    23435507.9514
  22449711.884   -16025222.357 8 -12459608.76646  22449711.608    22449722.3474
 00  5  4  0 16  0.0000000  0  7 23 21 26 17 29 06 03
  20867783.148   -20400924.915 9 -15873131.96647  20867782.585    20867791.1394
  22015616.752   -17763840.532 8 -13543399.66747  22015616.266    22015627.0094
  23327930.830    -8433228.613 8  -6296572.94445  23327930.840    23327941.6394
  21116172.887   -22946079.878 9 -17868090.69047  21116172.228    21116181.5284
  22650172.457   -13282479.946 8 -10321991.45046  22650172.343    22650186.3464
  23456290.624   -13378296.484 8 -10397738.57845  23456290.397    23456306.1844
  22436902.659   -16092535.250 8 -12512060.25446  22436902.356    22436913.0714
 00  5  4  0 16 30.0000000  0  7 23 21 26 17 29 06 03
  20871789.133   -20379873.120 9 -15856727.93947  20871788.581    20871797.1384
  22007072.595   -17808740.058 8 -13578386.18647  22007072.091    22007082.7764
  23345452.711    -8341150.041 8  -6224823.40645  23345452.779    23345463.6044
  21122111.355   -22914872.790 9 -17843773.48147  21122110.707    21122120.0344
  22631367.227   -13381300.330 8 -10398994.03146  22631367.141    22631381.0674
  23477117.441   -13268852.071 8 -10312457.53445  23477117.250    23477133.0234
  22424174.949   -16159419.292 8 -12564177.57646  22424174.638    22424185.3414
 00  5  4  0 17  0.0000000  0  8 23 21 26 17 29 09 06 03
  20875839.588   -20358587.709 9 -15840141.87547  20875839.037    20875847.5874
  21998570.925   -17853416.315 8 -13613198.72547  21998570.397    21998581.0274
  23363038.721    -8248734.578 8  -6152811.36645  23363038.795    23363049.6074
  21128104.946   -22883376.309 9 -17819230.77447  21128104.318    21128113.6194
  22612604.173   -13479899.082 8 -10475823.91746  22612604.101    22612617.9934
  24465713.125     -467382.14645                  24465713.479    24465730.1144
  23497972.984   -13159256.481 8 -10227058.69445  23497972.732    23497988.7064
  22411529.776   -16225869.375 8 -12615956.74446  22411529.451    22411540.1974
 00  5  4  0 17 30.0000000  0  8 23 21 26 17 29 09 06 03
  20879934.396   -20337069.137 9 -15823374.12747  20879933.843    20879942.3984
  21990111.742   -17897869.095 8 -13647837.12947  21990111.233    21990121.8114
  23380688.573    -8155984.217 8  -6080538.35445  23380688.666    23380699.4194
  21134153.921   -22851589.076 9 -17794461.50147  21134153.280    21134162.5124
  22593884.157   -13578272.405 8 -10552478.13746  22593884.070    22593897.8814
  24453954.757     -677999.03117   -515529.70045  24453954.809    24453971.4944
  23518857.007   -13049511.387 7 -10141543.35345  23518856.763    23518872.7814
  22398967.890   -16291882.180 8 -12667395.18646  22398967.568    22398978.2564
 00  5  4  0 18  0.0000000  0  8 23 21 26 17 29 09 06 03
  20884073.338   -20315318.802 9 -15806425.78547  20884072.797    20884081.3414
  21981695.073   -17942098.234 8 -13682301.26447  21981694.560    21981705.1414
  23398401.634    -8062901.650 8  -6008006.47845  23398401.704    23398412.3994
  21140258.331   -22819510.171 9 -17769464.95147  21140257.664    21140266.9154
  22575207.522   -13676417.882 8 -10628954.83446  22575207.380    22575221.1024
  24442239.046     -739566.451 7   -563504.05145  24442238.530    24442255.3514
  23539768.961   -12939619.389 7 -10055913.54645  23539768.747    23539784.7924
  22386489.632   -16357455.449 8 -12718491.14146  22386489.306    22386499.9054
 00  5  4  0 18 30.0000000  0  8 23 21 26 17 29 09 06 03
  20888256.050   -20293338.316 9 -15789298.10347  20888255.492    20888264.0384
  21973320.842   -17986104.553 8 -13716591.78747  21973320.347    21973330.8774
  23416177.319    -7969490.104 8  -5935218.25545  23416177.368    23416188.0794
  21146418.251   -22787139.635 9 -17744241.16347  21146417.590    21146426.8404
  22556574.594   -13774333.424 8 -10705252.36046  22556574.489    22556588.0894
  24430565.925     -800908.920 7   -611303.09645  24430565.601    24430582.1294
  23560708.294   -12829583.351 8  -9970171.50945  23560708.061    23560724.3654
  22374095.441   -16422587.314 8 -12769243.13546  22374095.116    22374105.6434
 00  5  4  0 19  0.0000000  0  8 23 21 26 17 29 09 06 03
  20892482.434   -20271128.280 9 -15771991.55247  20892481.876    20892490.4264
  21964989.110   -18029887.648 8 -13750708.36447  21964988.605    21964999.0944
  23434015.165    -7875751.913 8  -5862175.51945  23434015.179    23434025.8464
  21152633.912   -22754476.003 9 -17718788.98147  21152633.247    21152642.4774
  22537985.998   -13872015.962 8 -10781368.31746  22537985.878    22537999.4464
  24418936.350     -862022.777 7   -658923.99045  24418936.162    24418952.2774
  23581674.648   -12719405.061 7  -9884318.64145  23581674.536    23581690.9644
  22361785.675   -16487274.942 8 -12819648.95746  22361785.358    22361795.8944
 00  5  4  0 19 30.0000000  0  8 23 21 26 17 29 09 06 03
  20896752.754   -20248687.541 9 -15754505.23847  20896752.209    20896760.7494
  21956700.213   -18073445.583 8 -13784649.49847  21956699.723    21956710.1914
  23451915.075    -7781687.149 8  -5788878.30145  23451915.147    23451925.8034
  21158906.039   -22721515.897 9 -17693105.78247  21158905.365    21158914.5974
  22519442.766   -13969460.090 8 -10857298.51746  22519442.645    22519456.1564
  24407351.303     -922902.314 7   -706362.30645  24407350.984    24407367.3174
  23602668.229   -12609084.523 8  -9798354.92345  23602668.092    23602684.6464
  22349561.405   -16551513.458 8 -12869704.83046  22349561.051    22349571.6224
 00  5  4  0 20  0.0000000  0  8 23 21 26 17 29 09 06 03
  20901066.307   -20226019.609 9 -15736841.88647  20901065.763    20901074.2544
  21948453.780   -18116780.700 8 -13818417.00347  21948453.272    21948463.7084
  23469876.185    -7687300.817 8  -5715330.52645  23469876.243    23469886.9234
  21165234.257   -22688260.835 9 -17667192.74947  21165233.574    21165242.8234
  22500944.938   -14066665.683 8 -10933042.83246  22500944.791    22500958.2304
  24395810.884     -983546.566 7   -753617.25545  24395810.473    24395826.9134
  23623688.012   -12498626.552 8  -9712284.11745  23623687.811    23623704.4814
  22337422.578   -16615302.747 8 -12919410.65746  22337422.245    22337432.8434
 00  5  4  0 20 30.0000000  0  8 23 21 26 17 29 09 06 03
  20905423.002   -20203124.922 9 -15719001.84647  20905422.447    20905430.9524
  21940249.618   -18159893.149 8 -13852011.00547  21940249.132    21940259.5674
  23487898.063    -7592595.248 8  -5641533.95345  23487898.086    23487908.7564
  21171618.853   -22654709.596 9 -17641048.93547  21171618.184    21171627.4004
  22482493.181   -14163629.405 8 -11008598.68246  22482493.025    22482506.4154
  24384315.953    -1043951.930 7   -800686.08645  24384315.500    24384332.0384
  23644733.539   -12388032.950 8  -9626107.64145  23644733.231    23644749.9764
  22325369.794   -16678640.125 8 -12968764.35646  22325369.449    22325380.0084
 00  5  4  0 21  0.0000000  0  8 23 21 26 17 29 09 06 03
  20909822.479   -20180005.306 9 -15700986.53447  20909821.942    20909830.4224
  21932087.744   -18202783.559 8 -13885431.99647  21932087.252    21932097.6664
  23505980.145    -7497573.426 8  -5567490.97145  23505980.208    23505990.8984
  21178059.910   -22620861.913 9 -17614674.12447  21178059.225    21178068.4264
  22464087.827   -14260349.208 8 -11083964.47546  22464087.656    22464100.9234
  24372867.132    -1104115.491 7   -847566.49745  24372866.796    24372883.0584
  23665804.315   -12277306.648 7  -9539827.75345  23665803.984    23665820.8224
  22313403.360   -16741523.640 8 -13017764.39346  22313403.003    22313413.5314
 00  5  4  0 21 30.0000000  0  8 23 21 26 17 29 09 06 03
  20914264.449   -20156662.625 9 -15682797.41047  20914263.886    20914272.3674
  21923968.023   -18245452.716 8 -13918680.58247  21923967.503    21923977.9044
  23524121.728    -7402238.814 8  -5493204.25745  23524121.750    23524132.4384
  21184557.335   -22586717.757 9 -17588068.29747  21184556.647    21184565.8804
  22445729.273   -14356822.985 8 -11159138.56746  22445729.146    22445742.2744
  24361464.666    -1164034.556 7   -894256.39045  24361464.230    24361480.7274
  23686899.740   -12166450.704 8  -9453446.86345  23686899.340    23686916.3334
  22301523.578   -16803951.649 8 -13066409.48746  22301523.237    22301533.7754
 00  5  4  0 22  0.0000000  0  8 23 21 26 17 29 09 06 03
  20918748.626   -20133098.104 9 -15664435.42547  20918748.072    20918756.5214
  21915890.297   -18287900.806 8 -13951756.92247  21915889.795    21915900.1474
  23542322.231    -7306594.440 8  -5418676.16945  23542322.250    23542332.9384
  21191111.307   -22552276.348 9 -17561230.84747  21191110.609    21191119.8794
  22427417.926   -14453048.500 8 -11234119.21346  22427417.812    22427430.8514
  24350109.326    -1223706.039 7   -940753.32845  24350109.051    24350125.6254
  23708019.385   -12055467.636 8  -9366966.90145  23708018.999    23708036.1064
  22289730.844   -16865922.208 8 -13114698.13646  22289730.541    22289741.0964
 00  5  4  0 22 30.0000000  0  8 23 21 26 17 29 09 06 03
  20923275.090   -20109311.443 9 -15645900.34747  20923274.519    20923282.9554
  21907854.980   -18330126.347 8 -13984659.84947  21907854.488    21907864.8154
  23560581.374    -7210641.364 7  -5343907.53745  23560581.479    23560592.1494
  21197722.217   -22517535.674 9 -17534160.20447  21197721.523    21197730.8044
  22409154.617   -14549021.576 8 -11308903.14846  22409154.496    22409167.4624
  24338801.929    -1283125.543 7   -987053.96145  24338801.849    24338818.3304
  23729163.039   -11944358.262 7  -9280388.53045  23729162.742    23729179.8764
  22278025.987   -16927431.510 8 -13162627.36446  22278025.664    22278036.1934
 00  5  4  0 23  0.0000000  0  8 23 21 26 17 29 09 06 03
  20927843.210   -20085305.628 9 -15627194.49847  20927842.636    20927851.0744
  21899861.474   -18372132.012 8 -14017391.43847  21899860.962    21899871.2884
  23578898.510    -7114383.987 7  -5268901.79345  23578898.548    23578909.2634
  21204389.928   -22482496.525 9 -17506856.97947  21204389.227    21204398.5414
  22390939.568   -14644741.314 8 -11383489.66746  22390939.446    22390952.3734
  24327542.703    -1342291.481 7  -1033156.97145  24327542.662    24327559.3114
  23750329.973   -11833126.659 8  -9193714.92045  23750329.718    23750346.8974
  22266409.064   -16988478.874 8 -13210196.64446  22266408.716    22266419.1964
 00  5  4  0 23 30.0000000  0  8 23 21 26 17 29 09 06 03
  20932452.830   -20061081.935 9 -15608318.88347  20932452.245    20932460.6824
  21891909.805   -18413917.944 8 -14049951.81647  21891909.317    21891919.6144
  23597273.006    -7017825.225 7  -5193661.18445  23597273.018    23597283.7514
  21211114.534   -22447158.495 9 -17479320.86147  21211113.861    21211123.1534
  22372773.170   -14740205.104 8 -11457876.76346  22372773.052    22372785.9444
  24316332.653    -1401200.813 7  -1079060.07945  24316332.394    24316348.8924
  23771519.756   -11721775.322 7  -9106948.01145  23771519.440    23771536.6994
  22254880.390   -17049062.203 8 -13257404.34546  22254880.037    22254890.4794
 00  5  4  0 24  0.0000000  0  8 23 21 26 17 29 09 06 03
  20937103.606   -20036641.885 9 -15589274.67947  20937103.015    20937111.4534
  21883999.885   -18455484.394 8 -14082341.17147  21883999.393    21884009.6664
  23615704.304    -6920968.018 7  -5118188.02645  23615704.248    23615715.0964
  21217896.182   -22411520.904 9 -17451551.32847  21217895.477    21217904.7654
  22354655.976   -14835410.720 8 -11532062.68946  22354655.825    22354668.6484
  24305171.719    -1459850.571 7  -1124760.89045  24305171.331    24305187.8724
  23792731.806   -11610307.008 7  -9020089.94445  23792731.385    23792748.5574
  22243440.264   -17109179.312 8 -13304248.75346  22243439.967    22243450.4594
 00  5  4  0 24 30.0000000  0  8 23 21 26 17 29 09 06 03
  20941795.394   -20011986.182 9 -15570062.43347  20941794.817    20941803.2484
  21876131.696   -18496831.626 8 -14114559.70247  21876131.230    21876141.4834
  23634191.947    -6823814.654 7  -5042484.09845  23634191.859    23634202.7404
  21224734.986   -22375582.532 9 -17423547.40747  21224734.292    21224743.6194
  22336588.447   -14930354.966 8 -11606044.94046  22336588.253    22336601.0874
  24294060.917    -1518237.006 7  -1170256.53245  24294060.483    24294077.0024
  23813965.643   -11498723.871 7  -8933142.41745  23813965.304    23813982.5014
  22232089.463   -17168827.736 8 -13350727.96346  22232089.125    22232099.6224
 00  5  4  0 25  0.0000000  0  8 23 21 26 17 29 09 06 03
  20946527.906   -19987116.500 9 -15550683.44947  20946527.341    20946535.7774
  21868305.068   -18537960.638 9 -14146608.19347  21868304.588    21868314.8204
  23652735.367    -6726368.378 8  -4966551.92745  23652735.262    23652746.1994
  21231631.141   -22339343.137 9 -17395308.93347  21231630.448    21231639.8204
  22318571.078   -15025035.873 8 -11679822.01946  22318570.835    22318583.5654
  24283000.610    -1576357.840 7  -1215545.23245  24283000.249    24283016.5854
  23835220.741   -11387028.842 7  -8846107.71745  23835220.459    23835237.7664
  22220828.249   -17228005.551 8 -13396840.47446  22220827.921    22220838.4214
 00  5  4  0 25 30.0000000  0  8 23 21 26 17 29 09 06 03
  20951300.931   -19962034.159 9 -15531138.76047  20951300.357    20951308.7754
  21860519.924   -18578871.403 8 -14178486.62247  21860519.418    21860529.6124
  23671333.959    -6628632.000 7  -4890393.72445  23671333.916    23671344.8154
  21238584.649   -22302802.226 9 -17366835.49847  21238583.954    21238593.3194
  22300604.298   -15119450.930 8 -11753391.94746  22300604.104    22300616.6804
  24271991.725    -1634209.638 7  -1260624.30445  24271991.370    24272007.5244
  23856496.740   -11275224.237 7  -8758987.64845  23856496.461    23856513.9384
  22209656.971   -17286710.606 8 -13442584.59346  22209656.685    22209667.1234
 00  5  4  0 26  0.0000000  0  8 23 21 26 17 29 09 06 03
  20956113.971   -19936741.528 9 -15511430.20547  20956113.385    20956121.7864
  21852776.056   -18619565.501 9 -14210196.21847  21852775.518    21852785.6804
  23689987.035    -6530609.694 8  -4814012.71545  23689986.973    23689997.8554
  21245595.358   -22265960.428 9 -17338127.61347  21245594.691    21245604.0814
  22282688.293   -15213599.042 8 -11826753.85546  22282688.116    22282700.5884
  24261034.267    -1691790.556 7  -1305492.30645  24261033.956    24261050.0064
  23877792.859   -11163314.057 7  -8671785.30545  23877792.607    23877810.1684
  22198575.795   -17344942.463 8 -13487959.99946  22198575.466    22198585.8844
 00  5  4  0 26 30.0000000  0  8 23 21 26 17 29 09 06 03
  20960967.170   -19911237.698 9 -15491557.08247  20960966.595    20960975.0074
  21845073.694   -18660041.412 9 -14241735.79847  21845073.171    21845083.2584
  23708694.387    -6432302.084 8  -4737409.39445  23708694.382    23708705.1864
  21252663.940   -22228814.799 9 -17309182.97647  21252663.277    21252672.6684
  22264824.000   -15307475.556 8 -11899904.13446  22264823.804    22264836.1824
  24250129.342    -1749095.231 7  -1350145.02145  24250129.025    24250144.8544
  23899109.032   -11051298.547 7  -8584500.86145  23899108.830    23899126.4354
  22187585.484   -17402696.536 8 -13532963.10146  22187585.144    22187595.5154
 00  5  4  0 27  0.0000000  0  8 23 21 26 17 29 09 06 03
  20965860.153   -19885524.874 9 -15471521.10547  20965859.568    20965867.9814
  21837412.772   -18700299.580 9 -14273105.70847  21837412.244    21837422.3024
  23727455.365    -6333712.713 8  -4660586.48345  23727455.424    23727466.1494
  21259790.244   -22191365.711 9 -17280001.88047  21259789.594    21259799.0044
  22247011.754   -15401078.438 8 -11972841.20046  22247011.595    22247023.8734
  24239277.442    -1806121.734 7  -1394581.00245  24239277.048    24239292.7854
  23920444.644   -10939180.838 7  -8497136.81345  23920444.420    23920462.0314
  22176686.356   -17459971.861 8 -13577593.15746  22176686.000    22176696.2624
 00  5  4  0 27 30.0000000  0  8 23 21 26 17 29 09 06 03
  20970792.098   -19859607.288 9 -15451325.56947  20970791.513    20970799.9184
  21829792.483   -18740344.153 9 -14304309.16147  21829791.950    21829802.0124
  23746268.952    -6234847.356 8  -4583548.53145  23746268.940    23746279.5174
  21266973.867   -22153615.459 9 -17250586.10647  21266973.211    21266982.6334
  22229251.392   -15494408.867 8 -12045565.95746  22229251.220    22229263.4034
  24228478.517    -1862869.910 7  -1438800.11045  24228478.104    24228493.6974
  23941798.763   -10826966.238 7  -8409697.24945  23941798.457    23941816.1484
  22165878.162   -17516769.190 8 -13621850.74346  22165877.792    22165887.9934
 00  5  4  0 28  0.0000000  0  8 23 21 26 17 29 09 06 03
  20975763.641   -19833481.637 9 -15430967.91247  20975763.061    20975771.4644
  21822213.566   -18780171.054 8 -14335343.01147  21822213.046    21822223.1364
  23765135.296    -6135704.513 7  -4506294.33845  23765135.240    23765145.7064
  21274215.753   -22115559.106 9 -17220931.81347  21274215.067    21274224.5104
  22211544.299   -15587459.400 8 -12118072.62046  22211544.128    22211556.2274
  24217734.007    -1919332.149 7  -1482796.38045  24217733.602    24217749.1224
  23963171.647   -10714652.899 7  -8322180.74945  23963171.391    23963189.0564
  22155162.126   -17573082.005 8 -13665730.78646  22155161.761    22155171.9494
 00  5  4  0 28 30.0000000  0  8 23 21 26 17 29 09 06 03
  20980774.066   -19807151.615 9 -15410450.99847  20980773.493    20980781.8854
  21814675.510   -18819783.389 9 -14366209.66547  21814674.995    21814685.0724
  23784053.385    -6036289.400 7  -4428827.99645  23784053.262    23784063.6554
  21281515.513   -22077198.540 9 -17191040.46847  21281514.864    21281524.3084
  22193890.330   -15680230.423 8 -12190361.47946  22193890.160    22193902.2324
  24207043.871    -1975508.198 7  -1526569.64145  24207043.403    24207058.9424
  23984562.292   -10602246.041 7  -8234591.37145  23984562.032    23984579.6484
  22144538.190   -17628910.635 8 -13709233.53846  22144537.856    22144548.0434
 00  5  4  0 29  0.0000000  0  8 23 21 26 17 29 09 06 03
  20985823.404   -19780617.041 9 -15389774.69247  20985822.837    20985831.2464
  21807178.621   -18859179.310 8 -14396907.68847  21807178.115    21807188.1614
  23803022.876    -5936603.356 7  -4351150.56445  23803022.819    23803033.2494
  21288873.618   -22038531.744 9 -17160910.50347  21288872.920    21288882.3894
  22176290.417   -15772717.652 8 -12262429.20546  22176290.234    22176302.2954
  24196409.058    -2031393.347 7  -1570116.24845  24196408.505    24196424.1224
  24005970.481   -10489746.636 7  -8146929.91445  24005970.203    24005987.9874
  22134006.990   -17684251.738 8 -13752356.38946  22134006.676    22134016.9164
 00  5  4  0 29 30.0000000  0  8 23 21 26 17 29 09 06 03
  20990911.108   -19753880.944 9 -15368941.34947  20990910.525    20990918.9324
  21799722.457   -18898361.361 9 -14427439.04847  21799721.937    21799731.9644
  23822043.073    -5836650.841 7  -4273265.50845  23822043.093    23822053.5894
  21296289.672   -21999559.818 9 -17130542.78047  21296288.986    21296298.4874
  22158744.531   -15864920.491 8 -12334275.32846  22158744.381    22158756.4434
  24185829.876    -2086986.144 7  -1613435.01645  24185829.309    24185844.8394
  24027395.356   -10377158.945 7  -8059199.66345  24027395.010    24027413.1234
  22123568.733   -17739104.986 8 -13795099.10846  22123568.442    22123578.5724
 00  5  4  0 30  0.0000000  0  8 23 21 26 17 29 09 06 03
  20996037.030   -19726944.073 9 -15347951.55847  20996036.437    20996044.8244
  21792306.989   -18937329.589 9 -14457803.79747  21792306.460    21792316.4454
  23841113.619    -5736434.497 8  -4195174.85045  23841113.621    23841124.1344
  21303764.030   -21960281.719 9 -17099936.48047  21303763.352    21303772.8664
  22141253.271   -15956836.315 8 -12405897.80746  22141253.140    22141265.2034
  24175306.903    -2142283.405 7  -1656523.53145  24175306.434    24175321.8634
  24048836.676   -10264485.024 7  -7971402.24145  24048836.496    24048854.6664
  22113223.780   -17793468.172 8 -13837459.95947  22113223.454    22113233.4504
 00  5  4  0 30 30.0000000  0  8 23 21 26 17 29 09 06 03
  21001200.951   -19699807.358 9 -15326806.04747  21001200.372    21001208.7724
  21784932.097   -18976084.462 9 -14488002.29947  21784931.576    21784941.5264
  23860233.892    -5635956.701 8  -4116880.44945  23860233.894    23860244.5204
  21311296.866   -21920696.663 9 -17069090.99747  21311296.197    21311305.6504
  22123817.296   -16048462.346 8 -12477294.48746  22123817.140    22123829.1284
  24164840.831    -2197281.836 8  -1699379.18845  24164840.509    24164855.7114
  24070294.035   -10151727.293 7  -7883539.50145  24070293.831    24070312.2264
  22102972.580   -17847338.933 8 -13879437.10147  22102972.221    22102982.1374
 00  5  4  0 31  0.0000000  0  8 23 21 26 17 29 09 06 03
  21006402.545   -19672472.655 9 -15305506.26047  21006401.971    21006410.3884
  21777597.776   -19014626.257 9 -14518034.76847  21777597.253    21777607.1604
  23879403.302    -5535220.925 8  -4038385.02545  23879403.283    23879413.9014
  21318888.106   -21880804.780 9 -17038006.42447  21318887.411    21318896.8164
  22106436.785   -16139796.651 8 -12548463.83246  22106436.623    22106448.5894
  24154432.120    -2251978.959 7  -1742000.09345  24154431.845    24154446.9114
  24091766.761   -10038888.557 7  -7795613.63745  24091766.537    24091785.0764
  22092815.186   -17900716.065 8 -13921029.59047  22092814.872    22092824.7424
 00  5  4  0 31 30.0000000  0  8 23 21 26 17 29 09 06 03
  21011641.708   -19644940.563 9 -15284052.65547  21011641.134    21011649.5424
  21770303.996   -19052954.822 9 -14547901.07947  21770303.473    21770313.3614
  23898621.403    -5434229.270 8  -3959690.20345  23898621.448    23898631.8564
  21326537.928   -21840604.740 8 -17006681.72747  21326537.246    21326546.6704
  22089112.315   -16230836.192 8 -12619403.48946  22089112.167    22089124.1034
  24144081.448    -2306370.982 7  -1784383.21445  24144081.201    24144096.1044
  24113254.655    -9925970.693 7  -7707626.14145  24113254.350    24113272.8714
  22082752.234   -17953596.875 8 -13962235.33047  22082751.909    22082761.8414
 00  5  4  0 32  0.0000000  0  8 23 21 26 17 29 09 06 03
  21016917.899   -19617213.889 9 -15262447.42747  21016917.341    21016925.7324
  21763050.385   -19091072.409 9 -14577602.99947  21763049.874    21763059.7294
  23917887.319    -5332986.065 8  -3880799.36545  23917887.270    23917897.7444
  21334246.199   -21800097.470 9 -16975117.63347  21334245.539    21334254.9624
  22071844.151   -16321580.169 8 -12690112.84446  22071843.980    22071855.8494
  24133789.200    -2360456.384 7  -1826527.43445  24133789.006    24133803.8324
  24134756.902    -9812977.759 7  -7619580.11845  24134756.645    24134775.0934
  22072783.764   -18005980.948 8 -14003054.01347  22072783.450    22072793.4124
 00  5  4  0 32 30.0000000  0  8 23 21 26 17 29 09 06 03
  21022231.119   -19589292.696 9 -15240690.62247  21022230.543    21022238.9484
  21755837.067   -19128978.247 9 -14607139.91347  21755836.548    21755846.3784
  23937200.745    -5231493.045 7  -3801713.86245  23937200.671    23937211.1074
  21342013.293   -21759281.056 9 -16943312.65047  21342012.622    21342022.1084
  22054632.869   -16412025.166 8 -12760589.21946  22054632.696    22054644.4844
  24123555.912    -2414231.356 7  -1868429.72245  24123555.690    24123570.4764
  24156273.103    -9699911.261 7  -7531476.76445  24156272.760    24156291.3854
  22062910.364   -18057865.346 8 -14043483.33947  22062910.065    22062919.9904
 00  5  4  0 33  0.0000000  0  8 23 21 26 17 29 09 06 03
  21027581.235   -19561177.593 9 -15218782.72047  21027580.649    21027589.0424
  21748664.045   -19166672.227 9 -14636511.75247  21748663.534    21748673.3704
  23956561.273    -5129752.362 8  -3722435.39445  23956561.198    23956571.6234
  21349839.390   -21718154.655 9 -16911266.13047  21349838.734    21349848.2514
  22037479.073   -16502168.033 8 -12830830.17846  22037478.881    22037490.5914
  24113382.548    -2467692.330 7  -1910087.38545  24113382.363    24113396.9814
  24177802.986    -9586772.888 7  -7443317.41345  24177802.535    24177821.3084
  22053132.627   -18109247.387 8 -14083521.21847  22053132.334    22053142.1764
 00  5  4  0 33 30.0000000  0  9 23 21 15 26 17 29 09 06 03
  21032966.682   -19532876.801 9 -15196730.13247  21032966.101    21032974.4914
  21741529.999   -19204161.674 9 -14665724.21947  21741529.473    21741539.2894
  24268243.598    -4534935.793 7  -3241902.55644  24268242.866    24268258.4184
  23975967.138    -5027773.629 8  -3642971.46545  23975967.003    23975977.5744
  21357723.302   -21676724.817 8 -16878983.15947  21357722.626    21357732.0974
  22020381.870   -16592013.302 8 -12900839.23946  22020381.688    22020393.3574
  24103268.193    -2520842.947 7  -1951503.18745  24103267.875    24103282.3984
  24199344.662    -9473572.154 7  -7355109.49045  24199344.322    24199363.1114
  22043449.461   -18160132.158 8 -14123171.60447  22043449.178    22043459.0854
 00  5  4  0 34  0.0000000  0  9 23 21 15 26 17 29 09 06 03
  21038388.761   -19504383.405 9 -15174527.45947  21038388.197    21038396.5764
  21734436.331   -19241438.799 9 -14694771.23947  21734435.803    21734445.5914
  24250919.426    -4625972.441 7  -3312839.84244  24250919.138    24250934.2304
  23995419.191    -4925551.996 8  -3563318.24745  23995419.117    23995429.7014
  21365666.553   -21634983.049 8 -16846457.12647  21365665.857    21365675.2974
  22003343.256   -16681550.830 8 -12970608.51146  22003343.093    22003354.6694
  24093214.810    -2573672.541 7  -1992668.86345  24093214.496    24093229.1914
  24220899.141    -9360303.627 7  -7266848.73645  24220898.771    24220917.9694
  22033862.866   -18210510.024 8 -14162426.99347  22033862.574    22033872.4954
 00  5  4  0 34 30.0000000  0  9 23 21 15 26 17 29 09 06 03
  21043847.383   -19475698.117 9 -15152175.27047  21043846.798    21043855.1814
  21727382.974   -19278504.262 9 -14723653.33247  21727382.426    21727392.1734
  24233588.531    -4717045.112 7  -3383805.17844  24233587.978    24233603.2484
  24014917.174    -4823089.420 8  -3483477.25445  24014917.099    24014927.6394
  21373669.306   -21592928.060 8 -16813687.02747  21373668.637    21373678.0814
  21986363.807   -16770777.600 8 -13040135.63246  21986363.658    21986375.1424
  24083223.194    -2626177.320 7  -2033581.41245  24083222.943    24083237.5014
  24242466.143    -9246969.172 7  -7178536.61145  24242465.729    24242485.1334
  22024373.195   -18260378.378 8 -14201285.37347  22024372.874    22024382.8514
 00  5  4  0 35  0.0000000  0  9 23 21 15 26 17 29 09 06 03
  21049341.708   -19446825.067 9 -15129676.76847  21049341.124    21049349.4924
  21720369.322   -19315360.866 9 -14752372.67847  21720368.762    21720378.4874
  24216250.687    -4808155.816 7  -3454800.24445  24216250.030    24216265.1544
  24034459.894    -4720391.632 7  -3403452.98045  24034459.919    24034470.3764
  21381731.231   -21550562.349 8 -16780674.81047  21381730.566    21381739.9994
  21969443.369   -16859694.038 8 -13109420.93846  21969443.261    21969454.7144
  24073293.461    -2678357.274 7  -2074240.88445  24073293.247    24073307.7334
  24264044.675    -9133574.090 7  -7090177.23845  24264044.501    24264064.0904
  22014980.174   -18309738.615 8 -14239747.81247  22014979.847    22014989.8154
 00  5  4  0 35 30.0000000  0  9 23 21 15 26 17 29 09 06 03
  21054871.812   -19417764.075 9 -15107031.82347  21054871.236    21054879.6014
  21713395.598   -19352007.525 9 -14780928.43347  21713395.069    21713404.7754
  24198905.955    -4899302.117 7  -3525823.00545  24198905.257    24198920.3984
  24054047.123    -4617460.174 7  -3323246.61545  24054047.150    24054057.6514
  21389852.660   -21507884.045 8 -16747419.00847  21389851.994    21389861.4884
  21952582.618   -16948296.914 8 -13178461.91146  21952582.514    21952593.9214
  24063426.394    -2730208.109 7  -2114643.88545  24063426.107    24063440.6864
  24285634.623    -9020119.757 7  -7001771.72145  24285634.505    24285654.0734
  22005684.530   -18358587.327 8 -14277811.66847  22005684.202    22005694.1284
 00  5  4  0 36  0.0000000  0 10 23 21 15 26 17 29 09 06 03 31
  21060436.624   -19388520.669 9 -15084244.73947  21060436.044    21060444.3894
  21706460.901   -19388449.253 9 -14809324.50347  21706460.360    21706470.0534
  24181553.717    -4990487.630 8  -3596876.31145  24181553.139    24181568.2044
  24073677.391    -4514302.297 7  -3242863.84945  24073677.409    24073687.9414
  21398032.812   -21464896.995 8 -16713922.62947  21398032.131    21398041.6744
  21935781.300   -17036587.782 8 -13247259.76146  21935781.185    21935792.5164
  24053621.624    -2781731.698 7  -2154791.91345  24053621.265    24053635.7584
  24307234.537    -8906613.027 7  -6913325.33845  24307234.361    24307254.0364
  21996485.624   -18406927.350 8 -14315479.14047  21996485.290    21996495.2244
  24495671.829    -3630239.221 7  -2800427.27445  24495671.320    24495684.6764
 00  5  4  0 36 30.0000000  0 10 23 21 15 26 17 29 09 06 03 31
  21066036.414   -19359093.567 9 -15061314.51647  21066035.827    21066044.1824
  21699565.520   -19424684.317 9 -14837559.52947  21699564.974    21699574.6704
  24164194.673    -5081708.846 7  -3667957.43045  24164194.077    24164209.1614
  24093350.634    -4410918.134 7  -3162304.78645  24093350.780    24093361.3004
  21406272.324   -21421598.117 8 -16680183.26747  21406271.657    21406281.1864
  21919040.126   -17124562.159 8 -13315810.99746  21919040.025    21919051.2964
  24043880.127    -2832922.536 7  -2194680.66945  24043879.898    24043894.1614
  24328844.511    -8793053.773 7  -6824838.03045  24328844.331    24328864.0694
  21987384.437   -18454754.148 8 -14352746.70047  21987384.081    21987394.0194
  24478204.307    -3722031.009 7  -2871953.16145  24478203.823    24478217.1074
 00  5  4  0 37  0.0000000  0 10 23 21 15 26 17 29 09 06 03 31
  21071671.127   -19329483.008 9 -15038241.33847  21071670.536    21071678.8654
  21692709.649   -19460711.744 9 -14865632.76247  21692709.120    21692718.8274
  24146829.163    -5172963.903 7  -3739064.91745  24146828.619    24146843.6424
  24113066.649    -4307309.463 7  -3081570.77145  24113066.781    24113077.4094
  21414571.420   -21377986.030 8 -16646199.84247  21414570.771    21414580.2794
  21902359.873   -17212216.555 8 -13384112.89846  21902359.762    21902370.9424
  24034202.795    -2883776.531 7  -2234306.96745  24034202.608    24034216.7034
  24350464.282    -8679443.262 7  -6736310.81245  24350464.014    24350483.9214
  21978381.433   -18502065.144 8 -14389612.33147  21978381.083    21978391.0254
  24460791.616    -3813535.059 7  -2943254.86245  24460791.107    24460804.3334
 00  5  4  0 37 30.0000000  0 10 23 21 15 26 17 29 09 06 03 31
  21077340.642   -19299689.637 9 -15015025.72247  21077340.031    21077348.3884
  21685893.418   -19496530.968 9 -14893543.76147  21685892.889    21685902.5664
  24129457.484    -5264251.332 7  -3810197.63845  24129456.865    24129471.9474
  24132825.133    -4203478.525 7  -3000663.56245  24132825.242    24132835.7344
  21422930.380   -21334059.740 8 -16611971.59247  21422929.704    21422939.2024
  21885741.104   -17299547.959 8 -13452163.12546  21885740.977    21885752.0774
  24024590.188    -2934290.229 8  -2273668.02245  24024589.973    24024603.9494
  24372093.347    -8565783.594 7  -6647745.29645  24372093.050    24372112.9584
  21969476.928   -18548858.115 8 -14426074.32147  21969476.588    21969486.5054
  24443434.253    -3904748.288 7  -3014329.93645  24443433.793    24443446.8194
 00  5  4  0 38  0.0000000  0 10 23 21 15 26 17 29 09 06 03 31
  21083044.649   -19269714.760 9 -14991668.66747  21083044.052    21083052.4024
  21679116.597   -19532143.136 9 -14921293.42347  21679116.050    21679125.6814
  24112079.878    -5355570.288 8  -3881354.95345  24112079.225    24112094.2204
  24152625.360    -4099428.242 7  -2919585.41445  24152625.435    24152635.9604
  21431349.115   -21289818.942 8 -16577498.27247  21431348.456    21431357.9834
  21869184.140   -17386554.380 8 -13519960.12046  21869183.989    21869195.0944
  24015042.975    -2984460.829 8  -2312761.77445  24015042.662    24015056.6204
  24393731.213    -8452077.379 7  -6559143.50845  24393731.031    24393751.0284
  21960671.316   -18595131.495 8 -14462131.43547  21960671.014    21960680.8684
  24426132.627    -3995667.967 7  -3085176.28245  24426132.101    24426145.1724
 00  5  4  0 38 30.0000000  0 10 23 21 15 26 17 29 09 06 03 31
  21088782.538   -19239561.659 9 -14968172.73547  21088781.940    21088790.3134
  21672378.666   -19567550.917 9 -14948883.81347  21672378.125    21672387.6784
  24094696.115    -5446922.028 8  -3952537.85345  24094695.360    24094710.0814
  24172466.442    -3995163.590 7  -2838340.22945  24172466.430    24172476.9214
  21439827.370   -21245265.225 8 -16542781.11347  21439826.717    21439836.3184
  21852689.089   -17473235.605 8 -13587503.70546  21852688.959    21852699.9834
  24005561.124    -3034287.614 8  -2351587.64145  24005560.767    24005574.6704
  24415377.045    -8338329.106 7  -6470508.93545  24415376.886    24415396.9984
  21951964.609   -18640885.473 8 -14497783.81147  21951964.282    21951974.0734
  24408886.851    -4086293.845 7  -3155793.68045  24408886.160    24408899.6484
 00  5  4  0 39  0.0000000  0 10 23 21 15 26 17 29 09 06 03 31
  21094554.475   -19209229.986 9 -14944537.65647  21094553.874    21094562.2154
  21665679.880   -19602752.784 9 -14976313.75247  21665679.352    21665688.9164
  24077306.508    -5538303.899 8  -4023744.25145  24077305.759    24077320.3934
  24192348.042    -3890685.695 7  -2756928.87945  24192348.056    24192358.5294
  21448365.628   -21200396.725 8 -16507818.67547  21448364.966    21448374.5224
  21836256.569   -17559588.106 8 -13654791.14846  21836256.435    21836267.4244
  23996145.570    -3083766.223 8  -2390142.21745  23996145.244    23996158.8924
  24437030.853    -8224539.713 7  -6381842.28445  24437030.545    24437050.7894
  21943357.314   -18686116.922 8 -14533029.03547  21943356.980    21943366.7594
  24391697.819    -4176621.708 7  -3226178.83745  24391697.290    24391710.6724
 00  5  4  0 39 30.0000000  0 10 23 21 15 26 17 29 09 06 03 31
  21100360.224   -19178720.423 9 -14920763.96147  21100359.625    21100367.9654
  21659020.161   -19637749.380 9 -15003583.74447  21659019.643    21659029.1784
  24059911.331    -5629714.641 8  -4094973.13945  24059910.571    24059925.1144
  24212269.669    -3785996.858 7  -2675353.19145  24212269.685    24212279.9834
  21456963.976   -21155212.343 8 -16472610.09147  21456963.313    21456972.8514
  21819887.245   -17645608.715 8 -13721819.97646  21819887.097    21819898.0524
  23986796.764    -3132893.357 8  -2428422.89545  23986796.368    23986810.1024
  24458692.045    -8110711.212 7  -6293145.18445  24458691.819    24458711.9934
  21934849.873   -18730823.674 8 -14567865.39547  21934849.520    21934859.3634
  24374566.406    -4266648.069 7  -3296329.10245  24374565.719    24374579.0184
 00  5  4  0 40  0.0000000  0 10 23 21 15 26 17 29 09 06 03 31
  21106198.989   -19148037.519 9 -14896855.19447  21106198.393    21106206.7174
  21652398.896   -19672544.181 9 -15030696.49347  21652398.377    21652407.8794
  24042510.234    -5721156.767 7  -4166226.47545  24042509.448    24042523.9684
  24232230.089    -3681103.345 7  -2593618.04445  24232229.997    24232240.4774
  21465621.804   -21109715.229 8 -16437157.82547  21465621.130    21465630.7004
  21803580.703   -17731299.067 8 -13788591.45946  21803580.585    21803591.4854
  23977514.752    -3181669.570 8  -2466430.12745  23977514.472    23977528.0714
  24480359.692    -7996849.423 7  -6204422.12745  24480359.519    24480379.6114
  21926441.833   -18775007.625 8 -14602294.38347  21926441.481    21926451.3514
  24357492.106    -4356373.874 7  -3366245.16445  24357491.420    24357504.6124
 00  5  4  0 40 30.0000000  0 10 23 21 15 26 17 29 09 06 03 31
  21112071.146   -19117179.056 9 -14872809.62947  21112070.548    21112078.8574
  21645816.556   -19707134.416 9 -15057649.84147  21645816.014    21645825.4854
  24025103.824    -5812626.126 7  -4237501.03845  24025103.088    24025117.7684
  24252229.668    -3576004.683 7  -2511723.04245  24252229.401    24252240.1654
  21474339.883   -21063901.668 8 -16401458.97147  21474339.224    21474348.7414
  21787338.185   -17816653.330 8 -13855101.06246  21787338.070    21787348.8944
  23968300.817    -3230088.658 8  -2504159.03845  23968300.471    23968314.0924
  24502033.728    -7882953.847 7  -6115672.78245  24502033.474    24502053.7224
  21918134.297   -18818663.721 8 -14636312.05247  21918133.942    21918143.7814
  24340476.074    -4445793.169 7  -3435922.41145  24340475.519    24340488.5054
 00  5  4  0 41  0.0000000  0  9 23 21 15 26 17 29 09 03 31
  21117976.239   -19086147.465 9 -14848629.15947  21117975.640    21117983.9684
  21639272.775   -19741521.944 9 -15084445.23947  21639272.244    21639281.6464
  24007692.436    -5904122.846 7  -4308796.93245  24007691.701    24007706.1614
  24272267.590    -3470704.934 7  -2429671.29645  24272267.369    24272278.0224
  21483118.042   -21017772.528 8 -16365514.21647  21483117.337    21483126.8424
  21771159.792   -17901670.760 8 -13921348.19646  21771159.620    21771170.3784
  23959154.983    -3278149.264 8  -2541608.64445  23959154.642    23959168.2664
  21909927.244   -18861791.843 8 -14669918.32347  21909926.893    21909936.6664
  24323518.523    -4534904.733 7  -3505359.85745  24323517.929    24323531.0654
 00  5  4  0 41 30.0000000  0  9 23 21 15 26 17 29 09 03 31
  21123914.655   -19054940.742 9 -14824312.23047  21123914.069    21123922.3844
  21632768.008   -19775704.193 9 -15111080.68447  21632767.497    21632776.8804
  23990276.560    -5995643.055 7  -4380111.18645  23990275.818    23990290.1574
  24292343.834    -3365203.656 8  -2347462.49445  24292343.720    24292354.3004
  21491956.889   -20971324.176 8 -16329320.73047  21491956.208    21491965.7084
  21755046.447   -17986345.819 8 -13987328.54846  21755046.305    21755057.0324
  23950078.615    -3325845.147 8  -2578774.06145  23950078.446    23950091.5974
  21901821.649   -18904387.272 8 -14703109.51047  21901821.255    21901830.9684
  24306620.717    -4623702.601 7  -3574552.85045  24306620.277    24306633.3114
 00  5  4  0 42  0.0000000  0  9 23 21 15 26 17 29 09 03 31
  21129885.488   -19023563.942 9 -14799862.77047  21129884.875    21129893.2184
  21626301.521   -19809685.644 9 -15137559.66747  21626300.994    21626310.4004
  23972855.715    -6087189.355 7  -4451445.82544  23972855.258    23972868.8924
  24312457.119    -3259507.366 8  -2265101.71345  24312457.046    24312467.5864
  21500855.814   -20924560.098 8 -16292881.21747  21500855.138    21500864.6224
  21738998.014   -18070680.149 8 -14053043.39647  21738997.845    21739008.5214
  23941071.248    -3373177.893 8  -2615656.66145  23941071.111    23941084.3024
  21893816.876   -18946452.199 8 -14735887.31747  21893816.486    21893826.2064
  24289782.459    -4712188.092 7  -3643502.46445  24289781.824    24289794.9904
 00  5  4  0 42 30.0000000  0  9 23 21 15 26 17 29 09 03 31
  21135888.227   -18992019.246 9 -14775282.48647  21135887.600    21135895.9464
  21619873.008   -19843467.463 9 -15163883.09347  21619872.464    21619881.8554
  23955429.874    -6178761.855 7  -4522800.90044  23955429.192    23955442.5074
  24332606.844    -3153620.031 8  -2182592.06745  24332606.797    24332617.1684
  21509814.681   -20877480.902 8 -16256196.16447  21509813.986    21509823.4334
  21723014.682   -18154672.557 8 -14118491.81847  21723014.461    21723025.0884
  23932133.524    -3420145.141 8  -2652254.20645  23932133.339    23932146.6014
  21885913.128   -18987986.249 8 -14768251.43347  21885912.748    21885922.5254
  24273003.945    -4800359.168 8  -3712207.06345  24273003.190    24273016.3824
 00  5  4  0 43  0.0000000  0  9 23 21 15 26 17 29 09 03 31
  21141923.087   -18960305.843 9 -14750570.74047  21141922.462    21141930.7984
  21613482.728   -19877048.220 9 -15190049.85047  21613482.178    21613491.5824
  23937999.594    -6270357.445 7  -4594173.91244  23937998.829    23938012.1314
  24352792.829    -3047542.212 8  -2099933.99345  24352792.762    24352803.0784
  21518833.896   -20830084.234 8 -16219263.72947  21518833.242    21518842.7344
  21707097.094   -18238319.030 8 -14183670.67747  21707096.910    21707107.4744
  23923266.095    -3466742.572 8  -2688563.66645  23923265.908    23923279.2344
  21878111.099   -19028985.688 8 -14800198.97747  21878110.729    21878120.5534
  24256286.077    -4888211.468 8  -3780663.26845  24256285.223    24256298.3944
 00  5  4  0 43 30.0000000  0  9 23 21 15 26 17 29 09 03 31
  21147989.475   -18928426.814 9 -14725729.93547  21147988.862    21147997.1854
  21607130.316   -19910430.060 9 -15216061.60747  21607129.775    21607139.1494
  23920564.773    -6361977.029 7  -4665565.57345  23920564.109    23920577.4374
  24373014.085    -2941278.708 8  -2017131.22345  24373014.034    24373024.2754
  21527913.282   -20782371.744 8 -16182085.19647  21527912.666    21527922.1534
  21691245.398   -18321619.374 8 -14248579.83047  21691245.214    21691255.7034
  23914469.225    -3512969.387 8  -2724584.37645  23914468.978    23914482.3504
  21870410.787   -19069451.049 8 -14831730.37547  21870410.410    21870420.1724
  24239629.125    -4975744.077 7  -3848870.33945  24239628.275    24239641.3004
 00  5  4  0 44  0.0000000  0  9 23 21 15 26 17 29 09 03 31
  21154087.251   -18896382.718 9 -14700760.50747  21154086.651    21154094.9724
  21600815.750   -19943612.766 9 -15241918.18847  21600815.217    21600824.5964
  23903125.730    -6453619.037 7  -4736974.69245  23903124.912    23903138.5434
  24393270.206    -2834831.610 8  -1934185.40245  24393270.190    24393280.5664
  21537053.033   -20734342.450 8 -16144659.80347  21537052.399    21537061.8794
  21675460.159   -18404570.606 8 -14313216.95347  21675459.982    21675470.4174
  23905743.636    -3558822.050 8  -2760313.56745  23905743.318    23905756.7024
  21862812.379   -19109380.661 8 -14862844.29847  21862812.000    21862821.7034
  24223033.507    -5062953.965 7  -3916825.90245  24223032.784    24223045.7224
 00  5  4  0 44 30.0000000  0  9 23 21 15 26 17 29 09 03 31
  21160216.698   -18864172.345 9 -14675661.51847  21160216.097    21160224.4094
  21594539.396   -19976595.194 9 -15267618.71647  21594538.862    21594548.1954
  23885683.013    -6545280.283 7  -4808398.84745  23885682.116    23885695.8554
  24413561.170    -2728201.411 8  -1851096.88845  24413561.114    24413571.5924
  21546253.532   -20685993.690 8 -16106985.48647  21546252.869    21546262.3424
  21659742.131   -18487168.438 8 -14377578.69747  21659741.973    21659752.3684
  23897090.139    -3604295.612 7  -2795747.34945  23897089.869    23897103.2004
  21855316.657   -19148770.567 8 -14893537.67147  21855316.269    21855325.9704
  24206500.057    -5149836.736 7  -3984526.59145  24206499.310    24206512.3574
 00  5  4  0 45  0.0000000  0  9 23 21 15 26 17 29 09 03 31
  21166377.008   -18831799.769 9 -14650436.13747  21166376.392    21166384.6824
  21588300.585   -20009380.155 9 -15293165.37347  21588300.031    21588309.3464
  23868236.418    -6636962.530 7  -4879839.36545  23868235.464    23868249.1564
  24433885.909    -2621393.794 7  -1767870.16945  24433885.843    24433896.5224
  21555514.390   -20637328.003 8 -16069064.21147  21555513.728    21555523.1634
  21644091.236   -18569413.712 8 -14441665.73447  21644091.078    21644101.3874
  23888508.765    -3649390.107 7  -2830885.67645  23888508.450    23888521.8854
  21847923.351   -19187622.323 8 -14923811.70547  21847922.958    21847932.6664
  24190028.875    -5236392.416 7  -4051972.34245  24190027.992    24190041.2434
 00  5  4  0 45 30.0000000  0  9 23 21 15 26 17 29 09 03 31
  21172568.254   -18799264.374 9 -14625083.88247  21172567.647    21172575.9444
  21582099.447   -20041966.957 9 -15318557.62047  21582098.884    21582108.2014
  23850786.314    -6728662.785 7  -4951293.88545  23850785.306    23850799.1114
  24454244.219    -2514409.706 7  -1684505.94745  24454244.220    24454254.8834
  21564835.953   -20588343.131 8 -16030894.21347  21564835.275    21564844.7064
  21628508.185   -18651302.492 8 -14505474.97647  21628508.016    21628518.3024
  23880000.338    -3694101.180 7  -2865725.24645  23879999.920    23880013.3524
  21840633.043   -19225932.729 8 -14953663.91047  21840632.685    21840642.4064
  24173620.864    -5322616.409 7  -4119159.66445  24173619.991    24173633.2504
 00  5  4  0 46  0.0000000  0  9 23 21 15 26 17 29 09 03 31
  21178790.023   -18766568.796 9 -14599606.80947  21178789.429    21178797.7414
  21575935.699   -20074357.045 9 -15343796.57847  21575935.151    21575944.4914
  23833332.537    -6820381.614 7  -5022762.87145  23833331.578    23833345.5514
  24474635.366    -2407253.513 7  -1601007.62645  24474635.332    24474646.1634
  21574217.957   -20539040.552 8 -15992476.65547  21574217.280    21574226.7294
  21612993.029   -18732834.247 8 -14569006.02347  21612992.857    21613003.1104
  23871565.110    -3738428.042 7  -2900265.41345  23871564.580    23871578.0674
  21833445.780   -19263701.983 8 -14983094.45247  21833445.411    21833455.1134
  24157276.131    -5408507.872 7  -4186087.89045  24157275.296    24157288.4074
 00  5  4  0 46 30.0000000  0  9 23 21 15 26 17 29 09 03 31
  21185042.354   -18733712.490 9 -14574004.48847  21185041.741    21185050.0794
  21569809.631   -20106549.403 9 -15368881.46647  21569809.112    21569818.4284
  23815875.836    -6912116.379 8  -5094244.25445  23815874.983    23815888.9094
  24495058.992    -2299926.354 7  -1517376.07045  24495058.934    24495069.7644
  21583660.767   -20489418.345 8 -15953810.03147  21583660.073    21583669.5244
  21597546.493   -18814005.587 8 -14632256.22847  21597546.330    21597556.4944
  23863203.752    -3782366.184 7  -2934502.68645  23863203.198    23863216.6644
  21826361.929   -19300927.085 8 -15012100.97547  21826361.584    21826371.2664
  24140995.624    -5494062.552 7  -4252753.70245  24140994.827    24141007.6014
 00  5  4  0 47  0.0000000  0  9 23 21 15 26 17 29 09 03 31
  21191324.959   -18700697.225 9 -14548278.30347  21191324.342    21191332.6404
  21563720.938   -20138545.578 9 -15393813.48747  21563720.397    21563729.6614
  23798416.230    -7003866.448 8  -5165737.57245  23798415.380    23798429.3304
  24515514.608    -2192431.442 7  -1433613.78545  24515514.642    24515525.2974
  21593164.339   -20439476.689 8 -15914894.49747  21593163.654    21593173.1424
  21582168.921   -18894814.556 8 -14695224.07947  21582168.776    21582178.8394
  23854916.761    -3825913.458 7  -2968435.42045  23854916.235    23854929.7914
  21819381.986   -19337607.030 8 -15040682.70747  21819381.626    21819391.2444
  24124779.544    -5579278.541 7  -4319155.56045  24124778.683    24124791.2614
 00  5  4  0 47 30.0000000  0  9 23 21 15 26 17 29 09 03 31
  21197637.494   -18667524.696 9 -14522429.57047  21197636.881    21197645.1844
  21557669.362   -20170346.501 9 -15418593.35447  21557668.807    21557678.0454
  23780953.802    -7095631.552 8  -5237242.59445  23780952.989    23780966.7734
  24536001.539    -2084772.342 7  -1349723.57345  24536001.560    24536012.0314
  21602728.702   -20389216.047 8 -15875730.39947  21602727.983    21602737.4964
  21566860.513   -18975259.880 8 -14757908.56447  21566860.364    21566870.3974
  23846704.537    -3869067.845 7  -3002062.02545  23846704.081    23846717.5954
  21812505.830   -19373741.469 8 -15068839.36347  21812505.447    21812515.0764
  24108628.153    -5664153.701 7  -4385291.83645  24108627.315    24108639.8774
 00  5  4  0 48  0.0000000  0  9 23 21 15 26 17 29 09 03 31
  21203979.792   -18634195.582 9 -14496458.82147  21203979.181    21203987.5074
  21551654.950   -20201952.122 9 -15443221.05147  21551654.410    21551663.6424
  23763488.805    -7187410.316 7  -5308758.28245  23763488.040    23763501.6414
  24556519.266    -1976951.062 7  -1265706.97145  24556518.936    24556529.6574
  21612353.809   -20338635.777 8 -15836317.24047  21612353.139    21612362.6544
  21551621.825   -19055339.130 8 -14820307.79947  21551621.663    21551631.6714
  23838567.681    -3911826.354 7  -3035380.12445  23838567.243    23838580.7934
  21805733.816   -19409328.604 8 -15096569.55247  21805733.435    21805743.0514
  24092542.131    -5748684.911 8  -4451160.10645  24092541.341    24092553.9624
 00  5  4  0 48 30.0000000  0  9 23 21 15 26 17 29 09 03 31
  21210351.736   -18600710.927 9 -14470366.87547  21210351.120    21210359.4244
  21545677.646   -20233362.952 9 -15467696.95647  21545677.098    21545686.2884
  23746021.359    -7279201.350 8  -5380283.53545  23746020.592    23746034.0944
  24577067.365    -1868970.336 7  -1181566.11045  24577067.129    24577077.7664
  21622039.847   -20287735.457 8 -15796654.69847  21622039.154    21622048.6864
  21536453.228   -19135049.979 8 -14882419.97547  21536453.064    21536462.9954
  23830506.604    -3954186.413 7  -3068387.76145  23830506.274    23830519.7954
  21799066.119   -19444367.278 8 -15123872.37447  21799065.721    21799075.3854
  24076522.130    -5832869.656 8  -4516758.43545  24076521.411    24076534.0484
 00  5  4  0 49  0.0000000  0  9 23 21 15 26 17 29 09 03 31
  21216753.047   -18567071.731 9 -14444154.50747  21216752.438    21216760.7394
  21539737.232   -20264579.646 9 -15492021.58347  21539736.681    21539745.8584
  23728551.707    -7371003.788 7  -5451817.67245  23728550.907    23728564.4914
  24597645.232    -1760832.912 7  -1097303.11645  24597644.936    24597655.6834
  21631786.787   -20236514.852 8 -15756742.57547  21631786.086    21631795.6554
  21521355.025   -19214390.760 8 -14944243.78747  21521354.856    21521364.7694
  23822521.901    -3996145.388 7  -3101082.88245  23822521.612    23822534.9734
  21792503.028   -19478856.074 8 -15150746.71847  21792502.645    21792512.2814
  24060568.644    -5916705.368 8  -4582084.80145  24060567.956    24060580.4694
 00  5  4  0 49 30.0000000  0  8 23 21 15 17 29 09 03 31
  21223183.137   -18533281.118 9 -14417824.14747  21223182.547    21223190.8594
  21533833.332   -20295604.540 9 -15516196.75147  21533832.788    21533841.9624
  23711079.805    -7462818.259 8  -5523361.19745  23711078.942    23711092.4604
  21641594.312   -20184975.845 8 -15716582.34447  21641593.616    21641603.2194
  21506327.274   -19293361.305 8 -15005779.10647  21506327.120    21506337.0154
  23814613.670    -4037702.676 7  -3133464.97245  23814613.376    23814626.5864
  21786044.507   -19512795.755 8 -15177193.18747  21786044.126    21786053.6724
  24044681.645    -6000191.555 8  -4647138.82845  24044680.864    24044693.3574
 00  5  4  0 50  0.0000000  0  8 23 21 15 17 29 09 03 31
  21229642.635   -18499336.073 9 -14391373.45747  21229642.055    21229650.3894
  21527966.687   -20326433.748 9 -15540219.44147  21527966.149    21527975.2824
  23693606.671    -7554639.493 7  -5594910.02645  23693605.888    23693619.2644
  21651463.363   -20133113.990 8 -15676170.55847  21651462.644    21651472.2524
  21491371.157   -19371955.359 8 -15067021.06147  21491370.994    21491380.8614
  23806783.240    -4078851.348 7  -3165528.69145  23806782.988    23806796.1204
  21779691.545   -19546180.936 8 -15203207.57847  21779691.163    21779700.6614
  24028862.419    -6083321.463 8  -4711915.23245  24028861.696    24028874.1264
 00  5  4  0 50 30.0000000  0  8 23 21 15 17 29 09 03 31
  21236130.711   -18465240.885 9 -14364805.76447  21236130.133    21236138.4994
  21522136.614   -20357070.777 9 -15564092.38247  21522136.075    21522145.1844
  23676131.847    -7646469.480 7  -5666465.67745  23676131.047    23676144.4484
  21661393.248   -20080932.352 8 -15635509.58047  21661392.530    21661402.1294
  21476486.476   -19450174.174 8 -15127970.62647  21476486.308    21476496.1334
  23799030.411    -4119592.115 8  -3197274.55345  23799030.184    23799043.2894
  21773443.648   -19579013.804 8 -15228791.58947  21773443.269    21773452.7734
  24013110.798    -6166095.975 8  -4776414.70445  24013110.180    24013122.5314
 00  5  4  0 51  0.0000000  0  8 23 21 15 17 29 09 03 31
  21242647.151   -18430996.738 9 -14338122.00747  21242646.562    21242654.9474
  21516342.839   -20387516.922 9 -15587816.58647  21516342.296    21516351.4074
  23658655.408    -7738307.466 7  -5738027.54745  23658654.715    23658667.8984
  21671383.958   -20028430.718 8 -15594599.24947  21671383.264    21671392.9014
  21461673.509   -19528016.100 8 -15188626.51447  21461673.353    21461683.1434
  23791355.703    -4159922.779 8  -3228700.84845  23791355.418    23791368.4524
  21767301.004   -19611293.300 8 -15253944.40647  21767300.631    21767310.1744
  23997427.270    -6248512.573 8  -4840635.27945  23997426.707    23997438.8964
 00  5  4  0 51 30.0000000  0  8 23 21 15 17 29 09 03 31
  21249192.234   -18396602.094 9 -14311320.98247  21249191.631    21249200.0504
  21510585.817   -20417770.043 9 -15611390.37547  21510585.292    21510594.3994
  23641178.240    -7830149.776 7  -5809592.83345  23641177.444    23641190.7504
  21681436.172   -19975606.163 8 -15553437.29447  21681435.484    21681445.1344
  21446933.242   -19605476.284 8 -15248984.94047  21446933.068    21446942.8074
  23783759.963    -4199838.349 8  -3259803.69745  23783759.626    23783772.5684
  21761264.422   -19643015.602 8 -15278663.04447  21761264.060    21761273.5484
  23981812.805    -6330566.099 7  -4904572.96345  23981812.267    23981824.4664
 00  5  4  0 52  0.0000000  0  8 23 21 15 17 29 09 03 31
  21255765.381   -18362059.887 9 -14284404.97747  21255764.780    21255773.1944
  21504865.042   -20447832.464 9 -15634815.56747  21504864.512    21504873.6034
  23623700.064    -7921996.975 8  -5881161.93145  23623699.323    23623712.4964
  21691549.476   -19922460.367 8 -15512025.02247  21691548.783    21691558.5024
  21432265.539   -19682555.020 8 -15309046.13547  21432265.352    21432275.0084
  23776243.289    -4239338.149 8  -3290582.60545  23776243.010    23776255.8544
  21755333.679   -19674181.801 8 -15302948.35947  21755333.336    21755342.7634
  23966267.650    -6412255.811 8  -4968227.16745  23966267.069    23966279.3224
 00  5  4  0 52 30.0000000  0  8 23 21 15 17 29 09 03 31
  21262366.444   -18327371.146 9 -14257374.78847  21262365.830    21262374.2314
  21499180.506   -20477704.669 9 -15658092.53447  21499179.977    21499189.0674
  23606221.304    -8013847.840 8  -5952733.90645  23606220.564    23606233.5714
  21701723.937   -19868993.330 8 -15470362.43347  21701723.250    21701732.9494
  21417670.821   -19759250.049 8 -15368808.34047  21417670.635    21417680.2514
  23768806.332    -4278419.338 8  -3321035.27745  23768805.998    23768818.6604
  21749509.028   -19704790.433 8 -15326799.20647  21749508.669    21749518.0714
  23950792.119    -6493579.496 7  -5031596.15445  23950791.502    23950803.7274
 00  5  4  0 53  0.0000000  0  8 23 21 15 17 29 09 03 31
  21268995.119   -18292537.153 9 -14230231.41247  21268994.541    21269002.9094
  21493532.021   -20507387.473 9 -15681221.91847  21493531.478    21493540.5604
  23588742.153    -8105701.295 8  -6024307.88245  23588741.324    23588754.3204
  21711959.563   -19815205.014 8 -15428449.50047  21711958.864    21711968.5724
  21403149.459   -19835559.827 8 -15428270.34047  21403149.268    21403158.8444
  23761449.364    -4317079.940 8  -3351160.22945  23761449.021    23761461.5284
  21743790.605   -19734840.673 8 -15350214.93347  21743790.207    21743799.6954
  23935386.767    -6574534.776 7  -5094678.07845  23935386.187    23935398.2214
 00  5  4  0 53 30.0000000  0  8 23 21 15 17 29 09 03 31
  21275651.672   -18257556.828 9 -14202974.01047  21275651.063    21275659.4694
  21487919.876   -20536879.466 9 -15704202.61847  21487919.303    21487928.3594
  23571262.955    -8197553.998 8  -6095881.28145  23571262.275    23571275.2484
  21722256.804   -19761092.799 8 -15386284.18547  21722256.115    21722265.8324
  21388702.186   -19911480.113 8 -15487428.84647  21388701.990    21388711.5454
  23754173.251    -4355315.264 8  -3380953.82745  23754172.889    23754185.3664
  21738179.061   -19764329.386 9 -15373193.11847  21738178.702    21738188.1684
  23920052.300    -6655116.820 7  -5157469.17245  23920051.703    23920063.8784
 00  5  4  0 54  0.0000000  0  8 23 21 15 17 29 09 03 31
  21282335.152   -18222435.032 9 -14175606.37347  21282334.546    21282342.9214
  21482343.164   -20566184.854 9 -15727037.90947  21482342.594    21482351.6684
  23553783.449    -8289408.909 8  -6167456.37645  23553782.696    23553795.7274
  21732614.949   -19706660.766 8 -15343869.66347  21732614.234    21732623.9594
  21374328.526   -19987013.264 8 -15546285.69247  21374328.331    21374337.8564
  23746977.797    -4393126.981 8  -3410417.33945  23746977.410    23746989.8484
  21732673.811   -19793259.655 8 -15395736.15747  21732673.433    21732682.8754
  23904788.709    -6735327.129 7  -5219970.61145  23904788.159    23904800.1574
 00  5  4  0 54 30.0000000  0  8 23 21 15 17 29 09 03 31
  21289045.629   -18187170.959 9 -14148127.87047  21289045.051    21289053.4324
  21476802.241   -20595302.527 9 -15749726.92747  21476801.670    21476810.7154
  23536304.143    -8381262.974 8  -6239030.85745  23536303.387    23536316.3564
  21743034.308   -19651906.823 8 -15301204.30246  21743033.581    21743043.3104
  21360029.327   -20062155.376 8 -15604837.83147  21360029.130    21360038.6284
  23739863.845    -4430510.701 8  -3439547.33245  23739863.475    23739875.8634
  21727275.402   -19821628.641 8 -15417841.83247  21727275.021    21727284.3804
  23889596.669    -6815161.855 7  -5282179.36945  23889596.126    23889607.9824
 00  5  4  0 55  0.0000000  0  8 23 21 15 17 29 09 03 31
  21295783.162   -18151765.049 9 -14120538.84447  21295782.556    21295790.9144
  21471297.085   -20624232.030 9 -15772269.31247  21471296.521    21471305.5434
  23518825.432    -8473114.024 8  -6310602.98845  23518824.687    23518837.4894
  21753515.053   -19596830.157 8 -15258287.46946  21753514.325    21753524.0624
  21345805.045   -20136903.789 8 -15663083.19547  21345804.857    21345814.3304
  23732831.756    -4467463.212 7  -3468341.32045  23732831.433    23732843.7964
  21721984.032   -19849434.619 8 -15439508.80047  21721983.654    21721992.9904
  23874476.634    -6894617.361 7  -5344092.62245  23874476.075    23874488.1774
 00  5  4  0 55 30.0000000  0  8 23 21 15 17 29 09 03 31
  21302547.362   -18116219.005 9 -14092840.62747  21302546.744    21302555.1254
  21465827.474   -20652974.565 9 -15794666.01947  21465826.937    21465835.9554
  23501347.297    -8564961.671 8  -6382172.44745  23501346.577    23501359.4104
  21764057.078   -19541431.438 8 -15215119.69046  21764056.367    21764066.1274
  21331655.864   -20211257.479 8 -15721020.98447  21331655.682    21331665.1354
  23725882.126    -4503982.702 7  -3496797.89645  23725881.794    23725894.1244
  21716799.838   -19876677.338 8 -15460736.87547  21716799.502    21716808.8644
  23859429.084    -6973691.838 7  -5405708.97545  23859428.562    23859440.6684
 00  5  4  0 56  0.0000000  0  8 23 21 15 17 29 09 03 31
  21309338.034   -18080533.602 9 -14065033.81747  21309337.423    21309345.8134
  21460393.426   -20681530.319 9 -15816917.17647  21460392.889    21460401.9124
  23483870.206    -8656804.265 8  -6453737.95045  23483869.376    23483882.1924
  21774660.460   -19485710.357 8 -15171700.71846  21774659.746    21774669.5444
  21317582.258   -20285214.310 8 -15778649.53147  21317582.065    21317591.4624
  23719015.369    -4540067.082 7  -3524915.41645  23719015.058    23719027.2524
  21711723.091   -19903355.738 9 -15481525.21447  21711722.727    21711732.1244
  23844454.548    -7052383.269 7  -5467026.86245  23844453.918    23844465.9834
 00  5  4  0 56 30.0000000  0  8 23 21 15 17 29 09 03 31
  21316155.246   -18044709.119 9 -14037118.63747  21316154.623    21316162.9904
  21454995.036   -20709898.964 9 -15839022.54047  21454994.506    21455003.4894
  23466394.374    -8748639.956 8  -6525298.07845  23466393.544    23466406.2534
  21785325.366   -19429665.988 8 -15128029.83046  21785324.653    21785334.4724
  21303584.626   -20358771.764 8 -15835966.88347  21303584.446    21303593.7694
  23712232.003    -4575712.900 7  -3552691.18045  23712231.634    23712243.7864
  21706754.097   -19929468.227 9 -15501872.58347  21706753.727    21706763.0904
  23829553.659    -7130687.741 8  -5528043.24645  23829553.064    23829564.9824
 00  5  4  0 57  0.0000000  0  8 23 21 15 17 29 09 03 31
  21322998.447   -18008747.979 9 -14009096.96847  21322997.826    21323006.1684
  21449631.819   -20738082.726 9 -15860983.84647  21449631.259    21449640.1964
  23448919.641    -8840469.009 7  -6596853.00245  23448918.713    23448931.5264
  21796051.614   -19373299.633 8 -15084108.05046  21796050.898    21796060.7124
  21289663.059   -20431929.634 8 -15892972.86447  21289662.843    21289672.1604
  23705532.309    -4610919.276 7  -3580124.53845  23705531.962    23705544.0464
  21701892.669   -19955015.111 9 -15521779.22047  21701892.303    21701901.6454
  23814726.536    -7208604.424 8  -5588757.44645  23814726.019    23814737.7954
 00  5  4  0 57 30.0000000  0  8 23 21 15 17 29 09 03 31
  21329867.405   -17972651.260 9 -13980969.65447  21329866.771    21329875.1194
  21444303.586   -20766082.284 9 -15882801.60547  21444303.048    21444311.9674
  23431446.468    -8932289.974 7  -6668401.63945  23431445.498    23431458.4404
  21806839.092   -19316611.263 8 -15039935.35246  21806838.380    21806848.1994
  21275817.881   -20504685.994 8 -15949665.98447  21275817.688    21275826.9434
  23698916.684    -4645683.982 7  -3607213.73245  23698916.332    23698928.3234
  21697139.013   -19979995.413 8 -15541244.36247  21697138.654    21697147.9944
  23799973.663    -7286131.041 8  -5649167.67145  23799973.132    23799984.8724
 00  5  4  0 58  0.0000000  0  8 23 21 15 17 29 09 03 31
  21336762.161   -17936419.115 9 -13952736.81547  21336761.518    21336769.8634
  21439010.574   -20793897.078 9 -15904475.40047  21439010.022    21439018.9164
  23413975.314    -9024101.008 8  -6739942.52645  23413974.323    23413987.2914
  21817687.952   -19259600.247 8 -14995511.23946  21817687.259    21817697.1224
  21262049.614   -20577038.334 8 -16006044.28747  21262049.410    21262058.5834
  23692385.524    -4680004.160 7  -3633956.54945  23692385.273    23692397.3714
  21692493.477   -20004407.880 8 -15560267.03647  21692493.129    21692502.4134
  23785295.601    -7363264.392 8  -5709271.45045  23785294.993    23785306.8434
 00  5  4  0 58 30.0000000  0  8 23 21 15 17 29 09 03 31
  21343682.518   -17900052.245 9 -13924398.99347  21343681.877    21343690.2394
  21433752.546   -20821527.909 9 -15926005.85047  21433752.002    21433760.8404
  23396506.325    -9115900.564 8  -6811474.46145  23396505.437    23396518.3214
  21828598.394   -19202265.882 8 -14950835.16846  21828597.676    21828607.5884
  21248358.540   -20648984.602 8 -16062106.17147  21248358.358    21248367.5134
  23685939.536    -4713877.218 7  -3660350.97545  23685939.166    23685951.4344
  21687956.173   -20028251.478 8 -15578846.43247  21687955.821    21687965.1504
  23770692.926    -7440001.632 8  -5769066.59645  23770692.382    23770704.0754
 00  5  4  0 59  0.0000000  0  8 23 21 15 17 29 09 03 31
  21350628.136   -17863552.694 9 -13895957.77747  21350627.538    21350635.8634
  21428529.327   -20848975.896 9 -15947393.81547  21428528.768    21428537.5864
  23379039.524    -9207688.047 8  -6882996.95245  23379038.738    23379051.5494
  21839570.202   -19144609.162 8 -14905907.91346  21839569.470    21839579.3994
  21234744.920   -20720524.010 8 -16117851.01947  21234744.732    21234753.8724
  23679578.965    -4747301.651 7  -3686395.83045  23679578.668    23679590.7814
  21683527.140   -20051526.040 8 -15596982.40947  21683526.787    21683536.1594
  23756165.880    -7516341.503 8  -5828552.11745  23756165.389    23756176.9644
 00  5  4  0 59 30.0000000  0  8 23 21 15 17 29 09 03 31
  21357598.808   -17826921.519 9 -13867414.00047  21357598.202    21357606.5424
  21423340.659   -20876242.098 9 -15968640.13947  21423340.110    21423348.9374
  23361575.250    -9299462.632 8  -6954509.42345  23361574.419    23361587.3004
  21850603.253   -19086630.207 8 -14860729.56246  21850602.543    21850612.5074
  21221209.023   -20791655.124 8 -16173277.72147  21221208.843    21221217.9284
  23673304.241    -4780275.214 7  -3712089.35045  23673303.983    23673315.8624
  21679206.360   -20074231.634 8 -15614675.04147  21679206.028    21679215.3584
  23741714.937    -7592281.758 8  -5887726.23645  23741714.393    23741725.9434
 00  5  4  1  0  0.0000000  0  8 23 21 15 17 29 09 03 31
  21364594.416   -17790159.391 9 -13838768.17847  21364593.819    21364602.1724
  21418186.737   -20903325.856 9 -15989744.30347  21418186.188    21418194.9624
  23344113.785    -9391222.295 8  -7026010.24745  23344112.977    23344125.8194
  21861697.725   -19028328.558 8 -14815299.77046  21861697.022    21861706.9584
  21207751.239   -20862375.670 8 -16228384.50447  21207751.080    21207760.1154
  23667115.646    -4812795.535 7  -3737429.72045  23667115.237    23667127.4724
  21674994.159   -20096366.828 8 -15631923.20347  21674993.824    21675003.1294
  23727340.431    -7667819.755 8  -5946586.87445  23727339.884    23727351.5104
 00  5  4  1  0 30.0000000  0  8 23 21 15 17 29 09 03 31
  21371614.931   -17753266.316 9 -13810020.31547  21371614.309    21371622.7104
  21413067.529   -20930227.432 9 -16010706.50647  21413066.962    21413075.6904
  23326655.672    -9482964.982 8  -7097497.83345  23326654.883    23326667.5844
  21872853.822   -18969703.240 8 -14769617.76546  21872853.099    21872863.0244
  21194372.065   -20932683.054 8 -16283169.33647  21194371.912    21194380.9324
  23661013.894    -4844859.384 7  -3762414.37745  23661013.571    23661025.7714
  21670890.807   -20117930.122 9 -15648725.71947  21670890.485    21670899.7134
  23713043.135    -7742952.147 7  -6005131.45145  23713042.633    23713054.1834
 00  5  4  1  1  0.0000000  0  8 23 21 15 17 29 09 03 31
  21378660.021   -17716244.367 9 -13781172.03347  21378659.392    21378667.7534
  21407982.665   -20956948.299 9 -16031527.90047  21407982.093    21407990.8104
  23309200.810    -9574690.572 8  -7168972.12645  23309200.057    23309212.5154
  21884071.303   -18910755.490 8 -14723684.51746  21884070.573    21884080.4894
  21181071.623   -21002576.818 8 -16337631.87447  21181071.470    21181080.4544
  23654999.281    -4876465.971 7  -3787042.71845  23654999.005    23655011.0364
  21666896.208   -20138921.909 8 -15665082.91047  21666895.860    21666905.0774
  23698823.266    -7817677.786 8  -6063359.08745  23698822.706    23698834.1854
 00  5  4  1  1 30.0000000  0  8 23 21 15 17 29 09 03 31
  21385729.397   -17679094.529 9 -13752224.10547  21385728.748    21385737.1094
  21402932.168   -20983488.542 9 -16052208.55547  21402931.609    21402940.3074
  23291749.395    -9666397.798 8  -7240432.08345  23291748.539    23291761.0104
  21895350.087   -18851485.392 8 -14677500.09346  21895349.355    21895359.2754
  21167850.149   -21072055.410 8 -16391770.91047  21167850.013    21167858.9534
  23649072.074    -4907613.135 8  -3811313.10245  23649071.799    23649083.7944
  21663010.493   -20159341.368 8 -15680994.13347  21663010.150    21663019.3474
  23684681.104    -7891994.380 8  -6121267.99045  23684680.737    23684692.1344
 00  5  4  1  2  0.0000000  0  8 23 21 15 17 29 09 03 31
  21392823.063   -17641817.172 9 -13723176.80347  21392822.407    21392830.7484
  21397915.968   -21009848.633 9 -16072748.82847  21397915.401    21397924.0784
  23274301.755    -9758084.820 8  -7311876.30845  23274300.927    23274313.3414
  21906690.297   -18791892.384 8 -14631064.04246  21906689.564    21906699.4904
  21154708.174   -21141116.476 9 -16445584.58847  21154708.031    21154716.9534
  23643232.888    -4938297.958 8  -3835223.21745  23643232.601    23643244.5334
  21659233.904   -20179187.215 8 -15696458.38347  21659233.575    21659242.7694
  23670617.352    -7965898.931 7  -6178855.83145  23670617.033    23670628.4134
 00  5  4  1  2 30.0000000  0  8 23 21 15 17 29 09 03 31
  21399940.868   -17604412.764 9 -13694030.50747  21399940.240    21399948.5684
  21392933.963   -21036028.881 9 -16093148.96747  21392933.401    21392942.0684
  23256858.402    -9849749.749 8  -7383303.33445  23256857.603    23256869.9194
  21918092.080   -18731975.962 8 -14584375.98146  21918091.321    21918101.2674
  21141646.093   -21209757.661 9 -16499071.09247  21141645.943    21141654.8514
  23637482.151    -4968517.908 8  -3858771.08145  23637481.792    23637493.7874
  21655566.628   -20198458.716 9 -15711475.09247  21655566.283    21655575.4974
  23656632.741    -8039388.446 8  -6236120.22745  23656632.284    23656643.7644
 00  5  4  1  3  0.0000000  0  8 23 21 15 17 29 09 03 31
  21407082.407   -17566883.743 9 -13664787.10947  21407081.756    21407090.0904
  21387985.916   -21062030.698 9 -16113410.07247  21387985.366    21387994.0614
  23239419.181    -9941392.583 8  -7454713.14145  23239418.346    23239430.7214
  21929555.027   -18671737.569 8 -14537437.02946  21929554.315    21929564.3194
  21128663.884   -21277979.295 9 -16552230.68147  21128663.711    21128672.5664
  23631820.065    -4998272.218 8  -3881956.13745  23631819.712    23631831.7074
  21652008.477   -20217156.800 9 -15726044.98247  21652008.127    21652017.3104
  23642727.178    -8112462.252 8  -6293060.72945  23642726.601    23642738.0514
 00  5  4  1  3 30.0000000  0  8 23 21 15 17 29 09 03 31
  21414247.656   -17529229.765 9 -13635446.34547  21414247.016    21414255.3714
  21383071.917   -21087853.772 9 -16133531.89747  21383071.368    21383080.0684
  23221984.589   -10033010.879 8  -7526103.82545  23221983.845    23221996.1814
  21941079.494   -18611176.141 8 -14490246.36146  21941078.807    21941088.8144
  21115762.041   -21345778.277 8 -16605060.92947  21115761.872    21115770.7234
  23626247.146    -5027557.485 8  -3904775.69245  23626246.790    23626258.7784
  21648559.818   -20235279.511 8 -15740166.53047  21648559.464    21648568.6534
  23628901.357    -8185117.020 8  -6349674.69245  23628900.782    23628912.2134
 00  5  4  1  4  0.0000000  0  8 23 21 15 17 29 09 03 31
  21421436.467   -17491452.253 9 -13606009.32647  21421435.858    21421444.1844
  21378191.773   -21113498.854 9 -16153515.02747  21378191.226    21378199.9444
  23204555.005   -10124603.693 8  -7597474.68145  23204554.251    23204566.4684
  21952665.418   -18550292.174 8 -14442804.36746  21952664.706    21952674.6924
  21102940.845   -21413153.516 8 -16657560.98947  21102940.678    21102949.4824
  23620763.801    -5056372.340 8  -3927228.70045  23620763.436    23620775.3734
  21645220.552   -20252827.056 8 -15753839.90247  21645220.196    21645229.4274
  23615155.605    -8257351.281 8  -6405960.98145  23615155.039    23615166.3094
 00  5  4  1  4 30.0000000  0  8 23 21 15 17 29 09 03 31
  21428648.656   -17453551.962 9 -13576476.63847  21428648.046    21428656.3574
  21373345.449   -21138966.290 9 -16173359.73447  21373344.901    21373353.6024
  23187130.499   -10216169.170 8  -7668824.22845  23187129.805    23187141.8904
  21964312.729   -18489085.464 8 -14395110.88146  21964312.033    21964322.0004
  21090200.660   -21480103.317 9 -16709729.54547  21090200.488    21090209.2404
  23615370.404    -5084714.724 8  -3949313.55945  23615369.980    23615381.8654
  21641990.915   -20269798.623 8 -15767064.45647  21641990.572    21641999.7974
  23601490.391    -8329162.008 8  -6461917.26345  23601489.729    23601501.0564
 00  5  4  1  5  0.0000000  0  8 23 21 15 17 29 09 03 31
  21435883.978   -17415530.010 9 -13546849.15047  21435883.377    21435891.6494
  21368532.764   -21164256.823 9 -16193066.59347  21368532.213    21368540.9244
  23169711.400   -10307706.307 8  -7740151.68845  23169710.674    23169722.7084
  21976021.407   -18427556.433 8 -14347166.23746  21976020.687    21976030.6334
  21077541.690   -21546626.230 9 -16761565.46347  21077541.512    21077550.2104
  23610067.218    -5112582.594 8  -3971028.65545  23610066.821    23610078.6134
  21638871.060   -20286193.714 9 -15779839.81647  21638870.672    21638879.8654
  23587906.174    -8400547.039 8  -6517541.82945  23587905.473    23587916.7354
 00  5  4  1  5 30.0000000  0  8 23 21 15 17 29 09 03 31
  21443142.379   -17377387.070 9 -13517127.38547  21443141.772    21443150.0094
  21363753.536   -21189371.444 9 -16212636.37247  21363753.002    21363761.7294
  23152297.974   -10399213.748 8  -7811456.03745  23152297.229    23152309.2334
  21987791.392   -18365705.094 8 -14298970.43046  21987790.669    21987800.5894
  21064964.223   -21612720.915 9 -16813067.69647  21064964.029    21064972.7324
  23604854.694    -5139973.900 8  -3992372.39545  23604854.379    23604866.0814
  21635860.843   -20302012.151 9 -15792165.83747  21635860.466    21635869.6644
  23574403.275    -8471504.338 8  -6572833.11045  23574402.671    23574413.8874
 00  5  4  1  6  0.0000000  0  8 23 21 15 17 29 09 03 31
  21450423.541   -17339124.484 9 -13487312.39147  21450422.911    21450431.1514
  21359007.814   -21214310.188 9 -16232069.10347  21359007.267    21359015.9844
  23134890.475   -10490690.116 8  -7882736.16345  23134889.729    23134901.7204
  21999622.640   -18303531.666 8 -14250523.65146  21999621.929    21999631.8804
  21052468.483   -21678385.880 9 -16864235.08047  21052468.300    21052476.9674
  23599733.253    -5166886.831 7  -4013343.39745  23599732.886    23599744.4924
  21632960.501   -20317253.672 9 -15804042.30947  21632960.113    21632969.2664
  23560982.147    -8542031.987 8  -6627789.57145  23560981.603    23560992.7804
 00  5  4  1  6 30.0000000  0  8 23 21 15 17 29 09 03 31
  21457727.487   -17300741.910 9 -13457403.90447  21457726.865    21457735.1284
  21354295.678   -21239072.457 9 -16251364.32747  21354295.139    21354303.7994
  23117489.368   -10582132.948 8  -7953990.16345  23117488.606    23117500.5674
  22011515.329   -18241035.245 8 -14201825.20646  22011514.616    22011524.6134
  21040055.085   -21743618.271 9 -16915065.39947  21040054.903    21040063.5314
  23594703.252    -5193318.190 7  -4033939.15445  23594702.968    23594714.4854
  21630170.250   -20331916.392 9 -15815467.77047  21630169.855    21630178.9964
  23547643.519    -8612126.460 8  -6682408.51845  23547642.926    23547654.0984
 00  5  4  1  7  0.0000000  0  8 23 21 15 17 29 09 03 31
  21465053.823   -17262241.837 9 -13427403.86047  21465053.183    21465061.4424
  21349616.658   -21263660.818 9 -16270524.03447  21349616.088    21349624.7254
  23100094.642   -10673542.447 8  -8025218.18545  23100093.908    23100105.7314
  22023469.182   -18178217.652 8 -14152876.49146  22023468.470    22023478.4524
  21027723.915   -21808418.657 9 -16965559.09547  21027723.720    21027732.3124
  23589764.992    -5219267.874 7  -4054159.54545  23589764.656    23589776.3164
  21627489.847   -20346001.845 9 -15826443.41747  21627489.451    21627498.5934
  23534387.404    -8681787.373 8  -6736689.61245  23534386.793    23534397.9274
 00  5  4  1  7 30.0000000  0  8 23 21 15 17 29 09 03 31
  21472402.618   -17223623.749 9 -13397311.85347  21472401.985    21472410.2454
  21344970.902   -21288074.255 9 -16289547.43347  21344970.335    21344978.9164
  23082706.761   -10764915.404 8  -8096417.72145  23082705.976    23082717.8254
  22035484.441   -18115077.269 8 -14103676.24646  22035483.722    22035493.7404
  21015475.572   -21872783.749 9 -17015713.59647  21015475.369    21015483.9234
  23584919.033    -5244732.336 7  -4074001.87645  23584918.761    23584930.4174
  21624919.602   -20359508.448 9 -15836968.01047  21624919.210    21624928.3174
  23521214.509    -8751011.025 8  -6790630.03145  23521213.902    23521224.9954
 00  5  4  1  8  0.0000000  0  8 23 21 15 17 29 09 03 31
  21479773.613   -17184889.146 9 -13367129.06147  21479772.972    21479781.2104
  21340358.276   -21312313.453 9 -16308435.06747  21340357.738    21340366.2944
  23065325.953   -10856251.205 8  -8167588.30245  23065325.208    23065337.0104
  22047560.961   -18051614.627 8 -14054224.90946  22047560.251    22047570.3124
  21003310.185   -21936712.791 9 -17065528.33047  21003309.981    21003318.4814
  23580165.634    -5269710.429 7  -4093465.23745  23580165.452    23580177.0824
  21622459.465   -20372436.428 9 -15847041.73047  21622459.073    21622468.1624
  23508125.085    -8819795.719 8  -6844228.37845  23508124.465    23508135.6344
 00  5  4  1  8 30.0000000  0  8 23 21 15 17 29 09 03 31
  21487166.550   -17146038.976 9 -13336856.21147  21487165.905    21487174.1934
  21335778.655   -21336379.457 9 -16327187.74147  21335778.098    21335786.6134
  23047952.521   -10947548.410 8  -8238728.79345  23047951.716    23047963.4664
  22059698.746   -17987830.333 8 -14004522.91046  22059698.059    22059708.1274
  20991227.984   -22000204.581 9 -17115002.34047  20991227.806    20991236.2804
  23575505.060    -5294200.359 7  -4112548.20045  23575504.868    23575516.7004
  21620109.416   -20384785.737 9 -15856664.53747  21620109.030    21620118.1194
  23495119.506    -8888139.729 8  -6897483.31345  23495118.868    23495130.1044
 00  5  4  1  9  0.0000000  0  8 23 21 15 17 29 09 03 31
  21494581.132   -17107074.982 9 -13306494.66747  21494580.502    21494588.7824
  21331231.697   -21360273.648 9 -16345806.53347  21331231.146    21331239.6494
  23030586.625   -11038806.454 8  -8309838.80045  23030585.808    23030597.3814
  22071897.618   -17923725.273 8 -13954570.97546  22071896.904    22071906.9184
  20979229.172   -22063258.398 9 -17164135.07447  20979228.982    20979237.4404
  23570937.821    -5318200.972 7  -4131249.83745  23570937.580    23570949.3484
  21617869.437   -20396556.789 9 -15865836.75147  21617869.041    21617878.1184
  23482198.098    -8956041.551 8  -6950393.70945  23482197.463    23482208.7704
 00  5  4  1  9 30.0000000  0  8 23 21 15 17 29 09 03 31
  21502017.425   -17067997.045 9 -13276044.33947  21502016.803    21502025.0784
  21326717.584   -21383995.288 9 -16364290.87247  21326717.051    21326725.5614
  23013228.611   -11130022.993 8  -8380916.44345  23013227.754    23013239.3574
  22084157.636   -17859298.624 8 -13904368.44646  22084156.916    22084166.9514
  20967314.113   -22125871.986 9 -17212924.78347  20967313.931    20967322.3434
  23566464.128    -5341709.605 7  -4149568.12945  23566463.777    23566475.6854
  21615739.732   -20407748.115 9 -15874557.23647  21615739.365    21615748.4634
  23469361.518    -9023498.170 8  -7002957.20145  23469360.899    23469372.1034
 00  5  4  1 10  0.0000000  0  8 23 21 15 17 29 09 03 31
  21509475.481   -17028804.782 9 -13245504.92147  21509474.851    21509483.1094
  21322236.422   -21407543.725 9 -16382640.24447  21322235.863    21322244.4034
  22995878.990   -11221195.265 8  -8451959.59345  22995878.195    22995889.6714
  22096479.023   -17794549.780 8 -13853914.86246  22096478.276    22096488.3154
  20955483.328   -22188042.784 9 -17261369.45847  20955483.141    20955491.5184
  23562084.683    -5364723.629 7  -4167501.03345  23562084.199    23562096.0304
  21613720.655   -20418358.598 9 -15882825.11347  21613720.273    21613729.3094
  23456610.190    -9090506.454 8  -7055171.34645  23456609.518    23456620.6204
 00  5  4  1 10 30.0000000  0  8 23 21 15 17 29 09 03 31
  21516954.602   -16989501.653 9 -13214879.12247  21516953.973    21516962.2484
  21317787.445   -21430922.770 9 -16400857.62347  21317786.893    21317795.4664
  22978537.525   -11312324.637 8  -8522969.32545  22978536.750    22978548.1484
  22108861.179   -17729481.468 8 -13803212.34046  22108860.444    22108870.4344
  20943736.543   -22249772.144 9 -17309470.16147  20943736.363    20943744.7084
  23557799.229    -5387243.595 7  -4185048.96745  23557798.865    23557810.5204
  21611811.615   -20428390.556 9 -15890642.19747  21611811.234    21611820.2624
  23443944.155    -9157066.547 8  -7107036.22345  23443943.495    23443954.5124
 00  5  4  1 11  0.0000000  0  8 23 21 15 17 29 09 03 31
  21524454.790   -16950087.959 9 -13184167.16647  21524454.180    21524462.4184
  21313370.986   -21454131.280 9 -16418942.12247  21313370.411    21313378.9514
  22961204.632   -11403408.603 8  -8593943.65145  22961203.850    22961215.2314
  22121304.263   -17664092.891 8 -13752260.26346  22121303.510    22121313.5034
  20932074.212   -22311057.674 9 -17357225.01747  20932074.027    20932082.3414
  23553608.373    -5409266.668 8  -4202209.67945  23553608.076    23553619.4494
  21610012.820   -20437843.056 9 -15898007.75447  21610012.430    21610021.4434
  23431363.960    -9223175.543 8  -7158549.60145  23431363.295    23431374.2824
 00  5  4  1 11 30.0000000  0  8 23 21 15 17 29 09 03 31
  21531976.313   -16910562.205 9 -13153367.88947  21531975.663    21531983.9164
  21308987.192   -21477167.974 9 -16436892.73547  21308986.596    21308995.1364
  22943881.163   -11494443.549 8  -8664879.81345  22943880.363    22943891.6414
  22133808.567   -17598382.312 8 -13701057.26646  22133807.853    22133817.9034
  20920496.992   -22371896.071 9 -17404631.46447  20920496.792    20920505.0714
  23549512.731    -5430789.322 7  -4218980.51545  23549512.382    23549523.7624
  21608324.719   -20446714.038 9 -15904920.18147  21608324.339    21608333.3534
  23418870.278    -9288829.590 8  -7209708.48245  23418869.654    23418880.5574
 00  5  4  1 12  0.0000000  0  8 23 21 15 17 29 09 03 31
  21539518.375   -16870928.491 9 -13122484.47847  21539517.742    21539525.9724
  21304635.297   -21500036.844 9 -16454712.57747  21304634.728    21304643.2754
  22926566.655   -11585431.258 8  -8735779.15145  22926565.819    22926577.0874
  22146373.493   -17532353.262 8 -13649606.13146  22146372.795    22146382.8594
  20909004.402   -22432289.354 9 -17451691.06447  20909004.238    20909012.5214
  23545511.996    -5451812.752 7  -4235362.27745  23545511.781    23545523.0744
  21606746.646   -20455006.703 9 -15911381.96947  21606746.281    21606755.2984
  23406462.944    -9354029.731 8  -7260513.66045  23406462.374    23406473.2674
 00  5  4  1 12 30.0000000  0  8 23 21 15 17 29 09 03 31
  21547081.594   -16831183.624 9 -13091514.46147  21547080.996    21547089.2414
  21300316.066   -21522734.411 9 -16472398.94147  21300315.518    21300324.0254
  22909262.238   -11676366.106 8  -8806637.31246  22909261.438    22909272.6054
  22158999.812   -17466001.909 8 -13597903.83346  22158999.114    22159009.1204
  20897597.573   -22492232.271 9 -17498399.73647  20897597.394    20897605.6874
  23541607.513    -5472331.361 8  -4251350.69545  23541607.244    23541618.4394
  21605279.441   -20462716.826 9 -15917389.82947  21605279.067    21605288.0944
  23394143.185    -9418770.144 8  -7310960.61845  23394142.632    23394153.4794
 00  5  4  1 13  0.0000000  0  8 23 21 15 17 29 09 03 31
  21554665.158   -16791331.573 9 -13060460.92747  21554664.546    21554672.8014
  21296028.807   -21545264.026 9 -16489954.44047  21296028.237    21296036.7254
  22891967.549   -11767249.686 8  -8877455.54345  22891966.782    22891977.7924
  22171686.795   -17399331.648 8 -13545953.04546  22171686.061    22171696.1074
  20886276.124   -22551726.574 9 -17544758.83947  20886275.932    20886284.1944
  23537798.780    -5492346.764 8  -4266947.01345  23537798.521    23537809.6044
  21603922.476   -20469847.642 9 -15922946.29047  21603922.116    21603931.1284
  23381910.647    -9483051.622 8  -7361049.93845  23381910.070    23381920.9644
 00  5  4  1 13 30.0000000  0  8 23 21 15 17 29 09 03 31
  21562269.237   -16751371.913 9 -13029323.52947  21562268.622    21562276.8794
  21291773.570   -21567625.236 9 -16507378.71347  21291772.992    21291781.4454
  22874683.062   -11858079.206 8  -8948231.61545  22874682.308    22874693.3404
  22184434.550   -17332341.580 8 -13493753.05546  22184433.816    22184443.9564
  20875040.487   -22610769.813 9 -17590766.45547  20875040.310    20875048.5444
  23534086.247    -5511856.127 8  -4282149.01745  23534086.001    23534096.9244
  21602676.006   -20476397.745 9 -15928050.23847  21602675.629    21602684.6234
  23369766.046    -9546871.206 8  -7410779.35545  23369765.518    23369776.3984
 00  5  4  1 14  0.0000000  0  8 23 21 15 17 29 09 03 31
  21569893.604   -16711305.682 9 -12998103.09647  21569892.974    21569901.2644
  21287550.337   -21589818.403 9 -16524672.05047  21287549.756    21287558.1864
  22857409.207   -11948853.174 8  -9018964.42346  22857408.456    22857419.4844
  22197243.089   -17265032.142 8 -13441304.21346  22197242.399    22197252.6094
  20863890.904   -22669360.881 9 -17636421.74247  20863890.729    20863898.9274
  23530470.317    -5530857.815 8  -4296955.46445  23530470.034    23530481.0134
  21601539.969   -20482367.603 9 -15932702.06047  21601539.595    21601548.5734
  23357709.780    -9610226.898 8  -7460147.29145  23357709.244    23357720.0814
 00  5  4  1 14 30.0000000  0  8 23 21 15 17 29 09 03 31
  21577538.171   -16671133.118 9 -12966799.80247  21577537.562    21577545.8084
  21283358.974   -21611843.913 9 -16541834.74647  21283358.398    21283366.8094
  22840146.247   -12039569.872 8  -9089652.60246  22840145.466    22840156.4594
  22210112.494   -17197403.209 8 -13388606.40246  22210111.809    22210122.0254
  20852827.655   -22727498.295 9 -17681723.52747  20852827.478    20852835.6414
  23526951.449    -5549349.689 8  -4311364.63845  23526951.151    23526962.0094
  21600514.380   -20487756.740 9 -15936901.36447  21600514.015    21600523.0044
  23345742.202    -9673116.388 8  -7509151.95545  23345741.620    23345752.4554
 00  5  4  1 15  0.0000000  0  8 23 21 15 17 29 09 03 31
  21585202.762   -16630855.614 9 -12935414.74647  21585202.126    21585210.3914
  21279199.370   -21633702.740 9 -16558867.56247  21279198.787    21279207.1694
  22822894.320   -12130228.414 8  -9160295.46246  22822893.580    22822904.5404
  22223042.558   -17129455.788 8 -13335660.44046  22223041.858    22223052.0634
  20841850.856   -22785181.155 9 -17726671.11747  20841850.697    20841858.8724
  23523529.662    -5567330.968 8  -4325375.94445  23523529.339    23523540.2764
  21599599.251   -20492565.672 9 -15940648.56847  21599598.869    21599607.8754
  23333863.638    -9735538.301 8  -7557792.26145  23333863.043    23333873.8504
 00  5  4  1 15 30.0000000  0  8 23 21 15 17 29 09 03 31
  21592887.277   -16590473.276 9 -12903947.99047  21592886.636    21592894.9184
  21275071.548   -21655394.304 9 -16575770.04247  21275070.955    21275079.3514
  22805654.041   -12220826.378 8  -9230891.13746  22805653.295    22805664.2574
  22236033.231   -17061189.205 8 -13282465.77046  22236032.595    22236042.8204
  20830960.930   -22842407.945 9 -17771263.33147  20830960.766    20830968.9044
  23520205.532    -5584799.414 8  -4338987.64145  23520205.201    23520216.0424
  21598794.649   -20496793.869 9 -15943943.25147  21598794.296    21598803.2784
  23322074.534    -9797489.795 8  -7606066.02545  23322073.935    23322084.6454
 00  5  4  1 16  0.0000000  0  8 23 21 15 17 29 09 03 31
  21600591.264   -16549988.598 9 -12872401.50047  21600590.632    21600598.8884
  21270975.021   -21676921.423 9 -16592544.38447  21270974.441    21270982.8404
  22788425.201   -12311363.635 8  -9301439.49646  22788424.462    22788435.5174
  22249084.370   -16992605.513 8 -13229024.00046  22249083.710    22249093.9634
  20820157.761   -22899178.765 9 -17815500.24547  20820157.575    20820165.6864
  23516978.982    -5601754.726 8  -4352199.48545  23516978.685    23516989.4934
  21598100.283   -20500442.909 9 -15946786.65047  21598099.877    21598108.8824
  23310375.113    -9858970.637 8  -7653973.05445  23310374.464    23310385.0954
 00  5  4  1 16 30.0000000  0  8 23 21 15 17 29 09 03 31
  21608314.834   -16509400.888 9 -12840774.72647  21608314.225    21608322.5124
  21266910.094   -21698282.499 9 -16609189.34247  21266909.515    21266917.9204
  22771208.476   -12401836.936 8  -9371938.02046  22771207.801    22771218.9354
  22262196.084   -16923703.291 8 -13175334.03346  22262195.452    22262205.7104
  20809441.816   -22955491.014 9 -17859379.83047  20809441.634    20809449.7164
  23513850.647    -5618193.896 8  -4365009.13745  23513850.270    23513861.1394
  21597516.381   -20503511.158 9 -15949177.49247  21597516.001    21597525.0084
  23298765.823    -9919977.298 8  -7701510.59845  23298765.211    23298775.7454
 00  5  4  1 17  0.0000000  0  8 23 21 15 17 29 09 03 31
  21616058.009   -16468710.540 9 -12809067.96747  21616057.385    21616065.6244
  21262876.656   -21719478.111 9 -16625705.36647  21262876.097    21262884.5174
  22754004.400   -12492244.605 8  -9442385.41646  22754003.692    22754014.8264
  22275368.340   -16854483.060 8 -13121396.26546  22275367.654    22275377.9764
  20798813.414   -23011343.345 9 -17902901.03647  20798813.231    20798821.2904
  23510820.827    -5634115.396 8  -4377415.41245  23510820.448    23510831.3444
  21597042.905   -20505999.150 9 -15951116.18647  21597042.529    21597051.5324
  23287247.130    -9980508.005 8  -7748677.27545  23287246.564    23287257.0044
 00  5  4  1 17 30.0000000  0  8 23 21 15 17 29 09 03 31
  21623820.409   -16427918.959 9 -12777282.33147  21623819.791    21623828.0024
  21258874.575   -21740509.140 9 -16642093.14747  21258874.018    21258882.4174
  22736812.970   -12582585.750 8  -9512780.99046  22736812.213    22736823.3344
  22288600.868   -16784945.857 8 -13067211.51146  22288600.183    22288610.5554
  20788272.605   -23066735.385 9 -17946063.58047  20788272.429    20788280.4534
  23507889.619    -5649518.643 8  -4389417.88045  23507889.287    23507900.1644
  21596679.748   -20507907.683 9 -15952603.35747  21596679.380    21596688.3504
  23275819.232   -10040561.570 8  -7795472.16345  23275818.706    23275829.1334
 00  5  4  1 18  0.0000000  0  8 23 21 15 17 29 09 03 31
  21631602.073   -16387026.148 9 -12745417.81047  21631601.444    21631609.6604
  21254903.845   -21761375.391 9 -16658352.52047  21254903.277    21254911.6634
  22719634.622   -12672857.950 8  -9583122.82046  22719633.915    22719645.0344
  22301893.867   -16715091.047 8 -13012779.26046  22301893.170    22301903.5504
  20777819.696   -23121665.393 9 -17988866.08947  20777819.525    20777827.5414
  23505057.570    -5664401.277 8  -4401014.66145  23505057.257    23505068.0074
  21596427.001   -20509235.797 9 -15953638.25447  21596426.635    21596435.5904
  23264482.741   -10100135.013 8  -7841892.92545  23264482.184    23264492.5944
 00  5  4  1 18 30.0000000  0  8 23 21 15 17 29 09 03 31
  21639402.464   -16346034.673 9 -12713476.41247  21639401.854    21639410.0774
  21250964.094   -21782078.950 9 -16674485.12647  21250963.504    21250971.8694
  22702469.553   -12763061.261 8  -9653410.98146  22702468.768    22702479.8354
  22315246.871   -16644920.845 8 -12958101.25846  22315246.166    22315256.5784
  20767454.595   -23176134.012 9 -18031309.08547  20767454.411    20767462.4404
  23502324.540    -5678763.497 8  -4412205.92945  23502324.180    23502334.9214
  21596284.277   -20509985.654 9 -15954222.56647  21596283.914    21596292.8874
  23253237.569   -10159228.456 8  -7887939.68546  23253237.040    23253247.3434
 00  5  4  1 19  0.0000000  0  8 23 21 15 17 29 09 03 31
  21647221.774   -16304943.716 9 -12681457.48647  21647221.181    21647229.4234
  21247055.362   -21802619.392 9 -16690490.62447  21247054.770    21247063.1134
  22685318.063   -12853192.398 8  -9723642.89646  22685317.292    22685328.3054
  22328660.107   -16574433.968 8 -12903176.48946  22328659.411    22328669.8734
  20757177.860   -23230138.227 9 -18073390.20647  20757177.675    20757185.6804
  23499691.006    -5692602.475 8  -4422989.46845  23499690.693    23499701.3244
  21596251.854   -20510155.927 9 -15954355.25247  21596251.516    21596260.4844
  23242084.436   -10217838.350 8  -7933609.65646  23242083.921    23242094.0494
 00  5  4  1 19 30.0000000  0  8 23 21 15 17 29 09 03 31
  21655059.836   -16263754.512 9 -12649362.01447  21655059.244    21655067.5264
  21243177.543   -21822997.310 9 -16706369.48147  21243176.975    21243185.2994
  22668180.476   -12943250.409 8  -9793817.83946  22668179.646    22668190.7284
  22342133.388   -16503631.570 8 -12848005.87546  22342132.723    22342143.2234
  20746989.525   -23283678.084 9 -18115109.49047  20746989.328    20746997.3074
  23497157.215    -5705917.294 8  -4433364.58145  23497156.907    23497167.5934
  21596329.555   -20509747.716 9 -15954037.17347  21596329.202    21596338.1484
  23231023.577   -10275963.477 8  -7978901.88446  23231023.038    23231033.1294
 00  5  4  1 20  0.0000000  0  8 23 21 15 17 29 09 03 31
  21662916.391   -16222468.160 9 -12617190.83247  21662915.766    21662924.0364
  21239330.417   -21843213.902 9 -16722122.62947  21239329.848    21239338.1864
  22651057.197   -13033233.793 8  -9863934.64046  22651056.340    22651067.2664
  22355666.622   -16432514.505 8 -12792590.05546  22355665.944    22355676.4174
  20736889.741   -23336752.446 9 -18156466.04947  20736889.550    20736897.5014
  23494723.315    -5718707.046 8  -4443330.56445  23494722.952    23494733.7774
  21596517.248   -20508761.459 9 -15953268.66247  21596516.882    21596525.8134
  23220055.176   -10333602.209 8  -8023815.11346  23220054.700    23220064.7294
 00  5  4  1 20 30.0000000  0  8 23 21 15 17 29 09 03 31
  21670791.569   -16181083.877 9 -12584943.35047  21670790.964    21670799.2344
  21235514.224   -21863267.959 9 -16737749.12747  21235513.680    21235522.0064
  22633948.700   -13123139.604 8  -9933990.99646  22633947.825    22633958.6194
  22369259.930   -16361081.842 8 -12736928.31146  22369259.253    22369269.6604
  20726878.962   -23389359.181 9 -18197458.22547  20726878.771    20726886.6854
  23492389.921    -5730968.788 8  -4452885.09545  23492389.617    23492400.4104
  21596815.080   -20507196.430 9 -15952049.17047  21596814.706    21596823.6294
  23209179.923   -10390751.523 8  -8068346.96646  23209179.390    23209189.5384
 00  5  4  1 21  0.0000000  0  8 23 21 15 17 29 09 03 31
  21678685.122   -16139603.183 9 -12552620.73747  21678684.499    21678692.7644
  21231728.782   -21883160.439 9 -16753249.71947  21231728.240    21231736.5464
  22616854.925   -13212966.947 8 -10003986.20846  22616854.088    22616864.8484
  22382913.073   -16289334.583 8 -12681021.42046  22382912.362    22382922.7534
  20716957.172   -23441498.276 9 -18238086.00547  20716956.969    20716964.8504
  23490157.185    -5742702.160 8  -4462027.91645  23490156.833    23490167.4704
  21597222.872   -20505053.543 9 -15950379.38847  21597222.484    21597231.4364
  23198397.991   -10447410.708 8  -8112496.89946  23198397.454    23198407.6354
 00  5  4  1 21 30.0000000  0  8 23 21 15 17 29 09 03 31
  21686596.876   -16098026.593 9 -12520223.39747  21686596.242    21686604.5114
  21227974.079   -21902891.502 9 -16768624.53547  21227973.530    21227981.8204
  22599776.525   -13302713.787 8 -10073918.66846  22599775.741    22599786.4824
  22396625.919   -16217272.986 8 -12624869.61246  22396625.209    22396635.7004
  20707124.620   -23493168.244 9 -18278348.23647  20707124.426    20707132.2954
  23488025.157    -5753905.725 8  -4470757.89845  23488024.869    23488035.3994
  21597740.570   -20502333.027 9 -15948259.50847  21597740.216    21597749.1294
  23187709.761   -10503577.484 8  -8156263.10646  23187709.143    23187719.4364
 00  5  4  1 22  0.0000000  0  8 23 21 15 17 29 09 03 31
  21694526.703   -16056354.911 9 -12487751.96347  21694526.072    21694534.3604
  21224249.841   -21922462.308 9 -16783874.47847  21224249.288    21224257.5754
  22582713.813   -13392378.546 8 -10143787.15046  22582712.983    22582723.8024
  22410398.504   -16144897.764 8 -12568473.41146  22410397.784    22410408.3344
  20697381.499   -23544368.317 9 -18318244.31547  20697381.331    20697389.1794
  23485994.315    -5764578.152 8  -4479074.00045  23485993.935    23486004.4824
  21598368.104   -20499035.512 9 -15945690.01747  21598367.741    21598376.6214
  23177115.454   -10559250.436 8  -8199644.52946  23177114.837    23177125.1754
 00  5  4  1 22 30.0000000  0  8 23 21 15 17 29 09 03 31
  21702474.432   -16014589.377 9 -12455207.39947  21702473.800    21702482.1094
  21220555.953   -21941873.665 9 -16799000.17047  21220555.405    21220563.6644
  22565666.900   -13481960.174 8 -10213590.88546  22565666.064    22565676.7324
  22424230.661   -16072209.968 8 -12511833.66346  22424229.909    22424240.4154
  20687727.854   -23595098.230 9 -18357774.03547  20687727.674    20687735.4844
  23484064.515    -5774718.798 8  -4486975.74145  23484064.121    23484074.7124
  21599105.254   -20495161.835 9 -15942671.57247  21599104.881    21599113.7574
  23166615.322   -10614428.307 8  -8242640.17946  23166614.697    23166625.1174
 00  5  4  1 23  0.0000000  0  8 23 21 15 17 29 09 03 31
  21710440.216   -15972728.913 9 -12422588.86647  21710439.595    21710447.9294
  21216892.676   -21961124.236 9 -16814000.57847  21216892.111    21216900.3614
  22548636.512   -13571455.240 8 -10283327.17046  22548635.664    22548646.1604
  22438122.516   -15999208.274 8 -12454949.29646  22438121.751    22438132.2244
  20678164.195   -23645355.309 9 -18396935.31347  20678164.015    20678171.8194
  23482236.372    -5784325.109 8  -4494461.09245  23482236.006    23482246.5614
  21599952.257   -20490710.812 9 -15939203.24347  21599951.895    21599960.7554
  23156210.089   -10669107.796 8  -8285247.45946  23156209.510    23156219.8764
 00  5  4  1 23 30.0000000  0  8 23 21 15 17 29 09 03 31
  21718423.888   -15930774.551 9 -12389897.16947  21718423.268    21718431.5534
  21213259.897   -21980214.604 9 -16828876.15547  21213259.326    21213267.5754
  22531622.764   -13660862.322 8 -10352994.88146  22531621.903    22531632.3624
  22452073.892   -15925893.428 8 -12397820.93046  22452073.183    22452083.6894
  20668690.574   -23695138.914 9 -18435727.65547  20668690.424    20668698.2174
  23480510.207    -5793395.728 8  -4501529.03845  23480509.832    23480520.4804
  21600908.991   -20485683.251 9 -15935285.67247  21600908.632    21600917.4694
  23145900.050   -10723287.246 8  -8327465.11446  23145899.427    23145909.7854
 00  5  4  1 24  0.0000000  0  8 23 21 15 17 29 09 03 31
  21726425.147   -15888727.640 9 -12357133.35247  21726424.520    21726432.8374
  21209657.276   -21999146.272 9 -16843628.06947  21209656.720    21209664.9574
  22514625.925   -13750180.126 8 -10422593.03046  22514625.160    22514635.5314
  22466084.574   -15852266.693 8 -12340449.53846  22466083.893    22466094.5064
  20659307.158   -23744448.819 9 -18474150.87647  20659306.990    20659314.7624
  23478886.011    -5801930.498 8  -4508179.44145  23478885.676    23478896.2914
  21601975.126   -20480080.508 9 -15930919.89747  21601974.764    21601983.6314
  23135685.333   -10776965.685 8  -8369292.36846  23135684.719    23135695.0954
 00  5  4  1 24 30.0000000  0  8 23 21 15 17 29 09 03 31
  21734443.966   -15846588.558 9 -12324297.71647  21734443.348    21734451.6364
  21206084.849   -22017919.190 9 -16858256.28747  21206084.283    21206092.5334
  22497646.559   -13839406.715 8 -10492120.09446  22497645.764    22497656.1144
  22480154.653   -15778328.293 8 -12282835.28546  22480154.013    22480164.6404
  20650014.023   -23793284.175 9 -18512204.31947  20650013.833    20650021.5954
  23477364.129    -5809927.962 8  -4514411.14545  23477363.799    23477374.3364
  21603150.738   -20473902.754 9 -15926106.06847  21603150.390    21603159.2734
  23125566.256   -10830141.328 8  -8410727.81946  23125565.634    23125576.0244
 00  5  4  1 25  0.0000000  0  8 23 21 15 17 29 09 03 31
  21742479.995   -15804358.791 9 -12291391.41747  21742479.375    21742487.6784
  21202542.399   -22036534.770 9 -16872761.90247  21202541.836    21202550.0704
  22480684.603   -13928541.385 8 -10561575.51446  22480683.836    22480694.2764
  22494283.844   -15704079.612 8 -12224979.25746  22494283.162    22494293.7604
  20640811.219   -23841644.841 9 -18549887.87347  20640811.054    20640818.8104
  23475944.548    -5817387.671 8  -4520223.83245  23475944.252    23475954.7424
  21604435.455   -20467151.509 9 -15920845.36247  21604435.081    21604444.0174
  23115542.971   -10882813.724 8  -8451771.13646  23115542.294    23115552.7384
 00  5  4  1 25 30.0000000  0  8 23 21 15 17 29 09 03 31
  21750533.283   -15762038.450 9 -12258414.53947  21750532.680    21750540.9964
  21199029.901   -22054993.106 9 -16887144.99647  21199029.337    21199037.5334
  22463740.768   -14017581.536 8 -10630957.31046  22463739.957    22463750.3574
  22508471.993   -15629520.658 8 -12166881.45546  22508471.280    22508481.8824
  20631699.094   -23889529.155 9 -18587200.24847  20631698.922    20631706.6394
  23474627.551    -5824307.937 8  -4525616.18045  23474627.274    23474637.7804
  21605829.298   -20459826.643 9 -15915137.68347  21605828.906    21605837.8714
  23105615.764   -10934980.334 8  -8492420.32646  23105615.116    23105625.6554
 00  5  4  1 26  0.0000000  0  8 23 21 15 17 29 09 03 31
  21758603.988   -15719626.790 9 -12225366.50147  21758603.362    21758611.6814
  21195547.501   -22073293.216 9 -16901404.79647  21195546.918    21195555.1014
  22446815.349   -14106524.417 8 -10700263.31546  22446814.514    22446824.8854
  22522719.269   -15554650.727 8 -12108541.33246  22522718.606    22522729.2384
  20622677.881   -23936935.484 9 -18624140.17047  20622677.708    20622685.4214
  23473413.646    -5830686.734 8  -4530586.60345  23473413.354    23473423.9244
  21607332.373   -20451927.912 9 -15908982.83247  21607332.005    21607340.9504
  23095785.436   -10986638.372 8  -8532673.22946  23095784.831    23095795.3654
 00  5  4  1 26 30.0000000  0  8 23 21 15 17 29 09 03 31
  21766691.574   -15677126.293 8 -12192249.24747  21766690.943    21766699.3124
  21192094.729   -22091437.356 9 -16915543.06247  21192094.178    21192102.3584
  22429908.393   -14195370.013 8 -10769493.50746  22429907.609    22429918.0494
  22537025.350   -15479472.204 8 -12049960.74846  22537024.682    22537035.3524
  20613747.512   -23983864.492 9 -18660708.15747  20613747.350    20613755.0544
  23472302.727    -5836524.595 8  -4535135.50845  23472302.374    23472313.0164
  21608944.233   -20443457.397 9 -15902382.43447  21608943.879    21608952.7964
  23086051.903   -11037788.096 8  -8572530.05946  23086051.240    23086061.7604
 00  5  4  1 27  0.0000000  0  8 23 21 15 17 29 09 03 31
  21774796.203   -15634536.240 9 -12159062.20947  21774795.582    21774803.9514
  21188671.857   -22109424.595 9 -16929559.06747  21188671.288    21188679.4714
  22413020.722   -14284115.316 8 -10838645.55746  22413019.929    22413030.3364
  22551390.190   -15403984.572 8 -11991139.31446  22551389.507    22551400.2234
  20604908.310   -24030314.602 9 -18696902.97347  20604908.129    20604915.8024
  23471295.158    -5841819.399 8  -4539261.26345  23471294.831    23471305.3514
  21610665.019   -20434414.600 9 -15895336.10247  21610664.638    21610673.6124
  23076415.593   -11088426.879 8  -8611988.74046  23076414.941    23076425.4394
 00  5  4  1 27 30.0000000  0  8 23 21 15 17 29 09 03 31
  21782917.708   -15591857.637 8 -12125806.16547  21782917.060    21782925.4194
  21185278.676   -22127255.543 9 -16943453.28447  21185278.117    21185286.3164
  22396152.520   -14372758.340 8 -10907717.91546  22396151.647    22396162.0274
  22565813.776   -15328188.409 8 -11932077.44846  22565813.083    22565823.8134
  20596160.388   -24076285.080 9 -18732724.04747  20596160.215    20596167.8674
  23470390.995    -5846570.590 8  -4542963.42745  23470390.647    23470401.0664
  21612494.456   -20424800.724 9 -15887844.77247  21612494.102    21612503.1044
  23066876.836   -11138553.263 8  -8651048.18246  23066876.263    23066886.5664
 00  5  4  1 28  0.0000000  0  8 23 21 15 17 29 09 03 31
  21791055.763   -15549091.856 9 -12092482.20547  21791055.156    21791063.5294
  21181914.988   -22144931.758 9 -16957226.93347  21181914.426    21181922.6294
  22379303.909   -14461298.202 8 -10976709.89346  22379303.041    22379313.3974
  22580295.785   -15252085.160 8 -11872776.31446  22580295.077    22580305.9204
  20587503.678   -24121776.111 9 -18768171.53047  20587503.488    20587511.1414
  23469590.340    -5850777.702 8  -4546241.65145  23469589.941    23469600.3614
  21614432.344   -20414617.007 9 -15879909.41147  21614431.980    21614441.0054
  23057435.730   -11188166.803 8  -8689707.99146  23057435.120    23057445.2934
 00  5  4  1 28 30.0000000  0  8 23 21 15 17 29 09 03 31
  21799210.748   -15506237.555 9 -12059089.26047  21799210.111    21799218.4104
  21178581.159   -22162451.138 9 -16970878.37947  21178580.604    21178588.7654
  22362475.499   -14549731.396 8 -11045618.75746  22362474.641    22362484.9844
  22594836.464   -15175673.663 8 -11813234.96546  22594835.741    22594846.6564
  20578938.738   -24166784.924 9 -18803243.26347  20578938.547    20578946.1804
  23468893.775    -5854437.733 8  -4549093.56545  23468893.423    23468903.8574
  21616478.901   -20403862.302 9 -15871529.13147  21616478.533    21616487.5894
  23048092.845   -11237263.770 8  -8727965.28446  23048092.228    23048102.3464
 00  5  4  1 29  0.0000000  0  8 23 21 15 17 29 09 03 31
  21807381.983   -15463297.390 8 -12025629.41447  21807381.334    21807389.6994
  21175276.591   -22179816.823 9 -16984410.05447  21175276.012    21175284.1814
  22345667.375   -14638058.180 8 -11114444.70546  22345666.547    22345676.8474
  22609435.324   -15098956.438 8 -11753455.41146  22609434.604    22609445.6074
  20570465.260   -24211313.036 9 -18837940.41847  20570465.093    20570472.7024
  23468301.001    -5857552.152 8  -4551520.30845  23468300.674    23468311.0614
  21618633.540   -20392539.662 9 -15862706.29247  21618633.172    21618642.2354
  23038848.150   -11285844.838 8  -8765820.58646  23038847.568    23038857.5934
 00  5  4  1 29 30.0000000  0  8 23 21 15 17 29 09 03 31
  21815569.978   -15420269.433 9 -11992101.15247  21815569.306    21815577.6124
  21172001.739   -22197026.154 9 -16997819.89647  21172001.178    21172009.3184
  22328880.308   -14726274.205 8 -11183184.35546  22328879.479    22328889.8074
  22624092.658   -15021931.822 8 -11693436.33346  22624091.957    22624102.9534
  20562083.877   -24255357.344 9 -18872260.58847  20562083.696    20562091.2794
  23467812.698    -5860117.413 8  -4553519.14545  23467812.451    23467822.9004
  21620896.570   -20380647.554 9 -15853439.71847  21620896.185    21620905.2424
  23029702.276   -11333906.412 8  -8803271.06546  23029701.679    23029711.7344
 00  5  4  1 30  0.0000000  0  8 23 21 15 17 29 09 03 31
  21823773.902   -15377157.557 8 -11958507.49747  21823773.236    21823781.5554
  21168756.006   -22214082.544 9 -17011110.55847  21168755.426    21168763.5604
  22312114.106   -14814380.768 8 -11251838.70446  22312113.335    22312123.6554
  22638807.896   -14944603.356 8 -11633180.45846  22638807.209    22638818.0804
  20553794.014   -24298920.400 9 -18906205.75347  20553793.845    20553801.3864
  23467428.619    -5862135.770 8  -4555091.84945  23467428.297    23467438.7884
  21623267.211   -20368189.671 9 -15843732.28147  21623266.824    21623275.9314
  23020655.027   -11381449.750 8  -8840317.74246  23020654.413    23020664.4164
 00  5  4  1 30 30.0000000  0  8 23 21 15 17 29 09 03 31
  21831994.536   -15333957.842 8 -11924845.40047  21831993.895    21832002.2214
  21165539.986   -22230982.622 9 -17024279.42047  21165539.402    21165547.5454
  22295369.916   -14902371.456 8 -11320402.75246  22295369.147    22295379.4714
  22653581.707   -14866967.209 8 -11572684.85446  22653580.962    22653591.8444
  20545596.828   -24341996.692 9 -18939771.62647  20545596.650    20545604.1714
  23467149.599    -5863601.842 8  -4556234.20945  23467149.290    23467159.7594
  21625746.191   -20355162.528 9 -15833581.26547  21625745.828    21625754.9154
  23011707.420   -11428469.322 8  -8876956.28446  23011706.867    23011716.8144
 00  5  4  1 31  0.0000000  0  8 23 21 15 17 29 09 03 31
  21840230.846   -15290675.952 8 -11891119.26347  21840230.193    21840238.4804
  21162352.671   -22247731.800 9 -17037330.69447  21162352.109    21162360.2794
  22278647.199   -14990249.398 8 -11388878.95546  22278646.435    22278656.7244
  22668412.822   -14789029.374 8 -11511954.17146  22668412.074    22668423.0824
  20537491.307   -24384591.240 9 -18972962.11147  20537491.121    20537498.6344
  23466974.754    -5864520.230 8  -4556949.78745  23466974.462    23466984.8724
  21628332.337   -20341572.394 9 -15822991.55547  21628331.977    21628341.0634
  23002858.775   -11474968.852 8  -8913189.62046  23002858.223    23002868.1144
 00  5  4  1 31 30.0000000  0  8 23 21 15 17 29 09 03 31
  21848483.258   -15247309.157 8 -11857326.97147  21848482.630    21848490.9364
  21159194.709   -22264327.127 9 -17050262.08747  21159194.145    21159202.2954
  22261946.979   -15078009.604 8 -11457263.41946  22261946.145    22261956.2934
  22683301.807   -14710787.070 8 -11450986.25346  22683301.107    22683312.1854
  20529478.200   -24426700.023 9 -19005774.08047  20529478.018    20529485.5234
  23466904.990    -5864886.789 8  -4557235.36745  23466904.630    23466915.0924
  21631026.086   -20327416.776 9 -15811961.21547  21631025.713    21631034.7694
  22994110.079   -11520943.167 8  -8949013.66346  22994109.469    22994119.3344
 00  5  4  1 32  0.0000000  0  8 23 21 15 17 29 09 03 31
  21856751.505   -15203859.074 9 -11823469.78247  21856750.906    21856759.2114
  21156065.785   -22280769.819 9 -17063074.54047  21156065.201    21156073.3384
  22245269.272   -15165651.193 8 -11525555.48146  22245268.441    22245278.4764
  22698248.589   -14632242.149 8 -11389782.52146  22698247.850    22698258.9444
  20521557.449   -24468323.573 9 -19038207.94447  20521557.252    20521564.7774
  23466940.144    -5864701.942 8  -4557091.26645  23466939.796    23466950.1544
  21633827.108   -20312697.488 9 -15800491.63847  21633826.724    21633835.7664
  22985461.236   -11566392.449 8  -8984428.62446  22985460.607    22985470.5104
 00  5  4  1 32 30.0000000  0  8 23 21 15 17 29 09 03 31
  21865035.791   -15160325.134 8 -11789547.25547  21865035.151    21865043.4574
  21152965.928   -22297059.600 9 -17075767.84147  21152965.347    21152973.4404
  22228614.698   -15253171.174 8 -11593752.74746  22228613.901    22228623.8814
  22713252.989   -14553394.435 8 -11328342.82346  22713252.183    22713263.2394
  20513729.339   -24509460.256 9 -19070262.43547  20513729.141    20513736.6454
  23467080.587    -5863963.841 8  -4556516.05445  23467080.179    23467090.5384
  21636735.363   -20297414.512 9 -15788582.83047  21636734.970    21636744.0024
  22976912.823   -11611314.125 8  -9019432.46146  22976912.165    22976922.0764
 00  5  4  1 33  0.0000000  0  8 23 21 15 17 29 09 03 31
  21873335.744   -15116708.720 8 -11755560.45047  21873335.105    21873343.4134
  21149894.936   -22313197.519 9 -17088342.80847  21149894.363    21149902.4604
  22211983.438   -15340568.528 8 -11661854.46046  22211982.635    22211992.6484
  22728314.634   -14474245.395 8 -11266668.34046  22728313.835    22728324.7944
  20505993.812   -24550110.483 9 -19101937.86947  20505993.616    20506001.0824
  23467326.266    -5862672.533 8  -4555509.76645  23467325.908    23467336.1464
  21639750.524   -20281569.744 9 -15776236.26347  21639750.153    21639759.1934
  22968464.844   -11655708.020 8  -9054025.03446  22968464.214    22968474.0654
 00  5  4  1 33 30.0000000  0  8 23 21 15 17 29 09 03 31
  21881651.351   -15073009.799 8 -11721509.34947  21881650.729    21881659.0524
  21146852.898   -22329183.280 9 -17100799.20347  21146852.329    21146860.4084
  22195375.950   -15427840.823 8 -11729858.72746  22195375.181    22195385.0864
  22743433.523   -14394795.079 8 -11204759.10946  22743432.760    22743443.8054
  20498351.088   -24590273.049 9 -19133233.30147  20498350.897    20498358.3354
  23467677.431    -5860827.036 8  -4554071.65845  23467677.035    23467687.3014
  21642872.502   -20265163.468 9 -15763452.14847  21642872.122    21642881.2154
  22960117.670   -11699572.266 8  -9088204.89746  22960117.102    22960126.8664
 00  5  4  1 34  0.0000000  0  8 23 21 15 17 29 09 03 31
  21889982.619   -15029228.904 8 -11687394.37247  21889981.991    21889990.3014
  21143839.754   -22345017.412 9 -17113137.45547  21143839.175    21143847.2654
  22178792.638   -15514986.203 8 -11797764.10546  22178791.902    22178801.7564
  22758609.529   -14315044.293 8 -11142615.75146  22758608.803    22758619.9594
  20490801.267   -24629947.493 9 -19164148.39147  20490801.064    20490808.4914
  23468134.286    -5858426.487 8  -4552201.04645  23468133.869    23468144.0724
  21646101.124   -20248196.910 8 -15750231.46247  21646100.756    21646109.8394
  22951871.618   -11742905.443 8  -9121970.92846  22951871.000    22951880.7434
 00  5  4  1 34 30.0000000  0  8 23 21 15 17 29 09 03 31
  21898329.374   -14985366.569 8 -11653215.93147  21898328.713    21898337.0134
  21140855.358   -22360700.291 9 -17125357.84647  21140854.801    21140862.8464
  22162233.799   -15602002.724 8 -11865569.08846  22162233.076    22162242.9534
  22773842.710   -14234993.893 8 -11080238.91546  22773841.977    22773853.1714
  20483344.354   -24669133.460 9 -19194682.84147  20483344.146    20483351.5824
  23468696.692    -5855470.158 8  -4549897.35945  23468696.300    23468706.6114
  21649436.139   -20230671.172 8 -15736575.04847  21649435.777    21649444.8534
  22943726.771   -11785706.588 8  -9155322.38846  22943726.169    22943735.9114
 00  5  4  1 35  0.0000000  0  8 23 21 15 17 29 09 03 31
  21906691.505   -14941423.206 8 -11618974.36147  21906690.853    21906699.1784
  21137899.740   -22376232.111 9 -17137460.52747  21137899.177    21137907.2314
  22145699.916   -15688888.436 8 -11933272.11746  22145699.182    22145709.0874
  22789132.860   -14154644.442 8 -11017629.05946  22789132.102    22789143.2244
  20475980.488   -24707830.520 9 -19224836.33047  20475980.294    20475987.7344
  23469364.945    -5851957.658 8  -4547160.29445  23469364.627    23469374.9174
  21652877.397   -20212587.291 9 -15722483.71947  21652877.025    21652886.1164
  22935683.401   -11827974.067 8  -9188258.00046  22935682.798    22935692.6394
 00  5  4  1 35 30.0000000  0  8 23 21 15 17 29 09 03 31
  21915068.967   -14897399.456 8 -11584670.14247  21915068.314    21915076.6304
  21134972.674   -22391613.781 9 -17149446.20747  21134972.123    21134980.1654
  22129191.317   -15775641.465 8 -12000871.76546  22129190.561    22129200.4314
  22804479.633   -14073996.982 8 -10954786.97345  22804478.937    22804490.0124
  20468709.736   -24746038.339 9 -19254608.58547  20468709.537    20468716.9514
  23470139.244    -5847888.499 8  -4543989.44745  23470138.960    23470149.2364
  21656424.592   -20193946.650 9 -15707958.54947  21656424.220    21656433.2974
  22927741.791   -11869707.013 8  -9220777.09646  22927741.165    22927751.1124
 00  5  4  1 36  0.0000000  0  8 23 21 15 17 29 09 03 31
  21923461.630   -14853295.470 8 -11550303.41047  21923460.994    21923469.3364
  21132074.312   -22406844.815 9 -17161314.51347  21132073.760    21132081.7904
  22112708.486   -15862259.330 8 -12068366.09146  22112707.691    22112717.4764
  22819883.034   -13993051.695 8 -10891712.81545  22819882.384    22819893.4294
  20461532.255   -24783755.957 9 -19283998.87047  20461532.066    20461539.4624
  23471019.726    -5843261.629 8  -4540384.03445  23471019.411    23471029.6104
  21660077.662   -20174749.723 9 -15692999.91147  21660077.280    21660086.3614
  22919902.254   -11910903.696 8  -9252878.32946  22919901.652    22919911.6134
 00  5  4  1 36 30.0000000  0  8 23 21 15 17 29 09 03 31
  21931869.478   -14809112.158 8 -11515874.85047  21931868.823    21931877.1534
  21129204.414   -22421926.082 9 -17173066.11747  21129203.857    21129211.8904
  22096251.570   -15948740.580 8 -12135753.97646  22096250.724    22096260.4734
  22835343.044   -13911809.965 8 -10828407.66746  22835342.292    22835353.2914
  20454448.034   -24820983.558 9 -19313007.32747  20454447.841    20454455.2234
  23472006.331    -5838077.037 8  -4536344.02045  23472005.928    23472016.1414
  21663836.265   -20154998.207 9 -15677609.13447  21663835.898    21663844.9554
  22912164.912   -11951563.424 8  -9284561.15746  22912164.289    22912174.2694
 00  5  4  1 37  0.0000000  0  8 23 21 15 17 29 09 03 31
  21940292.121   -14764850.724 8 -11481385.42347  21940291.462    21940299.8544
  21126362.777   -22436858.876 9 -17184702.02947  21126362.214    21126370.2484
  22079820.867   -16035084.025 8 -12203034.48146  22079819.969    22079829.7534
  22850859.114   -13830273.124 8 -10764872.56146  22850858.350    22850869.4164
  20447457.010   -24857721.501 9 -19341634.22747  20447456.820    20447464.1524
  23473099.098    -5832334.683 8  -4531869.41445  23473098.692    23473108.9004
  21667700.068   -20134693.964 9 -15661787.64847  21667699.674    21667708.7164
  22904529.886   -11991685.719 8  -9315825.20546  22904529.254    22904539.1914
 00  5  4  1 37 30.0000000  0  8 23 21 15 17 29 09 03 31
  21948729.947   -14720509.558 8 -11446833.86447  21948729.311    21948737.6604
  21123549.749   -22451641.459 9 -17196220.89847  21123549.191    21123557.1774
  22063417.107   -16121285.574 8 -12270204.41446  22063416.255    22063426.0774
  22866431.460   -13748440.227 8 -10701106.77746  22866430.679    22866441.8754
  20440559.626   -24893967.374 9 -19369877.70147  20440559.425    20440566.7384
  23474298.335    -5826032.250 8  -4526958.37045  23474298.002    23474308.1464
  21671669.152   -20113836.418 9 -15645535.02947  21671668.766    21671677.7684
  22896997.629   -12031267.923 8  -9346668.39446  22896996.979    22897006.9054
 00  5  4  1 38  0.0000000  0  8 23 21 15 17 29 09 03 31
  21957182.729   -14676089.931 8 -11412221.16947  21957182.089    21957190.4554
  21120765.132   -22466274.832 9 -17207623.49747  21120764.539    21120772.4984
  22047040.693   -16207343.979 8 -12337262.80646  22047039.872    22047049.6804
  22882059.874   -13666312.746 8 -10637111.43045  22882059.110    22882070.3294
  20433755.706   -24929721.753 9 -19397738.18647  20433755.526    20433762.8364
  23475604.087    -5819170.127 8  -4521611.20045  23475603.758    23475613.9594
  21675743.080   -20092427.675 9 -15628852.89547  21675742.696    21675751.7114
  22889568.205   -12070309.420 8  -9377090.26846  22889567.612    22889577.5094
 00  5  4  1 38 30.0000000  0  8 23 21 15 17 29 09 03 31
  21965650.300   -14631592.671 8 -11377547.97147  21965649.657    21965658.0044
  21118008.725   -22480759.627 9 -17218910.32647  21118008.137    21118016.0654
  22030691.696   -16293257.919 8 -12404208.62946  22030690.860    22030700.6204
  22897744.033   -13583891.973 8 -10572887.54545  22897743.342    22897754.5014
  20427045.346   -24964984.600 9 -19425215.66647  20427045.151    20427052.4714
  23477016.210    -5811748.306 8  -4515827.91445  23477015.960    23477026.2184
  21679921.645   -20070469.095 9 -15611742.32947  21679921.303    21679930.2974
  22882241.864   -12108809.525 8  -9407090.27946  22882241.254    22882251.0844
 00  5  4  1 39  0.0000000  0  8 23 21 15 17 29 09 03 31
  21974132.684   -14587017.341 8 -11342813.94747  21974132.015    21974140.3684
  21115280.716   -22495095.286 9 -17230080.94147  21115280.136    21115288.0754
  22014370.756   -16379024.454 8 -12471039.61746  22014369.989    22014379.6234
  22913484.067   -13501177.894 8 -10508435.11746  22913483.385    22913494.5894
  20420428.719   -24999755.087 9 -19452309.48447  20420428.522    20420435.8174
  23478535.228    -5803765.697 8  -4509607.63345  23478534.969    23478545.1604
  21684204.816   -20047961.161 9 -15594203.69447  21684204.448    21684213.4314
  22875018.904   -12146766.256 8  -9436666.88746  22875018.284    22875028.1014
 00  5  4  1 39 30.0000000  0  8 23 21 15 17 29 09 03 31
  21982629.678   -14542365.154 8 -11308020.03747  21982629.022    21982637.3764
  21112580.808   -22509283.095 9 -17241136.34647  21112580.235    21112588.2074
  21998078.164   -16464642.337 8 -12537754.74546  21998077.408    21998086.9974
  22929279.687   -13418172.088 8 -10443755.37646  22929278.920    22929290.2344
  20413905.739   -25034033.337 9 -19479019.74447  20413905.537    20413912.8094
  23480160.995    -5795222.323 8  -4502950.38545  23480160.713    23480170.8024
  21688592.057   -20024905.874 8 -15576238.54847  21688591.700    21688600.6914
  22867899.341   -12184179.565 8  -9465820.06646  22867898.723    22867908.4524
 00  5  4  1 40  0.0000000  0  8 23 21 15 17 29 09 03 31
  21991141.406   -14497635.994 8 -11273166.14547  21991140.730    21991149.0634
  21109908.981   -22523323.416 9 -17252076.83047  21109908.405    21109916.3854
  21981814.363   -16550108.734 8 -12604351.85746  21981813.617    21981823.1644
  22945130.602   -13334874.950 8 -10378848.64145  22945129.877    22945141.2754
  20407476.531   -25067818.747 9 -19505345.97347  20407476.338    20407483.6104
  23481893.578    -5786117.454 8  -4495855.62945  23481893.283    23481903.4264
  21693083.340   -20001304.203 9 -15557847.65847  21693082.971    21693091.9824
  22860883.458   -12221047.709 8  -9494548.42946  22860882.941    22860892.5954
 00  5  4  1 40 30.0000000  0  8 23 21 15 17 29 09 03 31
  21999667.631   -14452830.300 8 -11238252.61647  21999666.968    21999675.3024
  21107265.350   -22537215.714 9 -17262901.96047  21107264.795    21107272.7644
  21965579.753   -16635421.706 8 -12670829.37846  21965578.976    21965588.5504
  22961036.823   -13251287.317 8 -10313715.53245  22961036.095    22961047.6434
  20401141.244   -25101110.715 9 -19531287.69547  20401141.044    20401148.3104
  23483733.043    -5776450.845 8  -4488323.15045  23483732.730    23483742.8904
  21697678.271   -19977157.488 9 -15539032.04847  21697677.900    21697686.9374
  22853971.598   -12257369.697 8  -9522851.22546  22853971.005    22853980.7294
 00  5  4  1 41  0.0000000  0  8 23 21 15 17 29 09 03 31
  22008208.450   -14407948.010 8 -11203279.40147  22008207.785    22008216.0824
  21104649.903   -22550959.843 9 -17273611.64347  21104649.335    21104657.2894
  21949374.817   -16720578.797 8 -12737185.45446  21949374.084    21949383.6164
  22976998.304   -13167409.594 8 -10248356.37745  22976997.635    22977009.1214
  20394899.867   -25133909.082 9 -19556844.79947  20394899.665    20394906.9214
  23485679.505    -5766221.675 8  -4480352.32245  23485679.213    23485689.4634
  21702376.816   -19952466.508 8 -15519792.34147  21702376.437    21702385.5074
  22847163.802   -12293144.233 8  -9550727.43946  22847163.218    22847172.9324
 00  5  4  1 41 30.0000000  0  8 23 21 15 17 29 09 03 31
  22016763.435   -14362991.361 8 -11168248.24547  22016762.792    22016771.0604
  21102062.185   -22564558.125 9 -17284207.67247  21102061.627    21102069.5954
  21933199.601   -16805579.650 8 -12803419.79246  21933198.873    21933208.2474
  22993014.484   -13083244.465 8 -10182773.24545  22993013.828    22993025.2434
  20388752.131   -25166215.169 9 -19582018.31047  20388751.931    20388759.1984
  23487732.727    -5755431.515 8  -4471944.35045  23487732.422    23487742.6844
  21707178.339   -19927234.538 8 -15500131.09047  21707177.973    21707186.9984
  22840460.154   -12328372.066 8  -9578177.65946  22840459.559    22840469.2174
 00  5  4  1 42  0.0000000  0  8 23 21 15 17 29 09 03 31
  22025333.050   -14317957.840 8 -11133157.18547  22025332.400    22025340.6574
  21099502.763   -22578007.891 9 -17294687.97447  21099502.199    21099510.1684
  21917055.172   -16890419.327 8 -12869528.51246  21917054.399    21917063.7154
  23009085.670   -12998789.771 8 -10116964.49845  23009085.022    23009096.5884
  20382698.683   -25198025.764 9 -19606805.72047  20382698.512    20382705.7754
  23489893.410    -5744076.965 8  -4463096.58645  23489892.996    23489903.2694
  21712083.108   -19901459.806 8 -15480046.89747  21712082.738    21712091.7794
  22833861.267   -12363049.364 8  -9605198.87846  22833860.658    22833870.3054
 00  5  4  1 42 30.0000000  0  8 23 21 15 17 29 09 03 31
  22033916.756   -14272849.800 8 -11098008.05747  22033916.087    22033924.4194
  21096971.144   -22591311.427 9 -17305054.33447  21096970.581    21096978.5434
  21900941.266   -16975098.064 8 -12935511.81546  21900940.475    21900949.8394
  23025211.403   -12914048.562 8 -10050932.50845  23025210.738    23025222.3794
  20376739.166   -25229342.948 9 -19631208.65947  20376738.987    20376746.2414
  23492161.017    -5732159.947 8  -4453810.56945  23492160.706    23492170.9454
  21717090.439   -19875146.207 8 -15459542.81847  21717090.071    21717099.0974
  22827366.931   -12397177.022 8  -9631791.82246  22827366.333    22827375.9784
 00  5  4  1 43  0.0000000  0  8 23 21 15 17 29 09 03 31
  22042514.702   -14227667.245 8 -11062800.87147  22042514.075    22042522.3844
  21094467.346   -22604468.799 9 -17315306.79747  21094466.785    21094474.7114
  21884858.533   -17059612.978 8 -13001367.46646  21884857.739    21884867.0484
  23041391.745   -12829021.318 8  -9984677.63545  23041391.017    23041402.6724
  20370873.688   -25260166.062 9 -19655226.60447  20370873.488    20370880.7084
  23494535.914    -5719679.820 8  -4444085.74245  23494535.601    23494545.7914
  21722200.121   -19848294.526 8 -15438619.45347  21722199.754    21722208.8374
  22820977.431   -12430754.130 8  -9657955.75446  22820976.796    22820986.4174
 00  5  4  1 43 30.0000000  0  8 23 21 15 17 29 09 03 31
  22051126.737   -14182410.750 8 -11027536.07947  22051126.093    22051134.4714
  21091991.320   -22617480.523 9 -17325445.76847  21091990.749    21091998.6514
  21868807.262   -17143962.350 8 -13067094.12446  21868806.460    21868815.7944
  23057626.170   -12743709.164 8  -9918200.73045  23057625.428    23057637.1094
  20365102.177   -25290495.287 9 -19678859.70547  20365101.983    20365109.1764
  23497017.901    -5706636.748 8  -4433922.25945  23497017.573    23497027.7044
  21727411.891   -19820906.560 8 -15417278.20347  21727411.496    21727420.6194
  22814692.797   -12463780.011 8  -9683690.15946  22814692.187    22814701.7404
 00  5  4  1 44  0.0000000  0  8 23 21 15 17 29 09 03 31
  22059752.953   -14137079.741 8 -10992213.21547  22059752.301    22059760.6384
  21089543.197   -22630345.560 9 -17335470.43947  21089542.613    21089550.4834
  21852788.014   -17228143.290 8 -13132689.54346  21852787.220    21852796.5304
  23073914.759   -12658112.472 8  -9851502.11445  23073914.061    23073925.7464
  20359424.823   -25320329.720 9 -19702107.25547  20359424.634    20359431.8124
  23499607.137    -5693029.855 8  -4423319.43845  23499606.821    23499616.9574
  21732725.600   -19792983.084 9 -15395519.66947  21732725.197    21732734.3234
  22808513.392   -12496252.794 8  -9708993.58946  22808512.786    22808522.3334
 00  5  4  1 44 30.0000000  0  8 23 21 15 17 29 09 03 31
  22068393.174   -14091674.936 8 -10956832.84947  22068392.540    22068400.8894
  21087122.739   -22643065.010 9 -17345381.65747  21087122.139    21087129.9984
  21836801.159   -17312154.085 8 -13198152.35446  21836800.388    21836809.7404
  23090257.316   -12572232.278 8  -9784582.58445  23090256.628    23090268.2114
  20353841.560   -25349669.610 9 -19724969.44247  20353841.389    20353848.5464
  23502303.664    -5678859.230 8  -4412277.35545  23502303.404    23502313.4844
  21738140.823   -19764525.973 8 -15373345.31047  21738140.409    21738149.5514
  22802439.334   -12528172.107 8  -9733865.74146  22802438.740    22802448.2844
 00  5  4  1 45  0.0000000  0  8 23 21 15 17 29 09 03 31
  22077047.311   -14046196.967 8 -10921395.48247  22077046.679    22077055.0694
  21084729.928   -22655638.909 9 -17355179.46647  21084729.356    21084737.2154
  21820847.110   -17395992.843 8 -13263481.12646  21820846.303    21820855.6354
  23106653.588   -12486069.751 8  -9717443.05845  23106652.906    23106664.5794
  20348352.426   -25378515.032 9 -19747446.33447  20348352.249    20348359.3824
  23505107.479    -5664124.998 7  -4400796.09345  23505107.174    23505117.2744
  21743657.276   -19735536.822 9 -15350756.38247  21743656.879    21743665.9984
  22796470.649   -12559537.484 8  -9758306.24246  22796470.032    22796479.6034
 00  5  4  1 45 30.0000000  0  8 23 21 15 17 29 09 03 31
  22085715.680   -14000644.515 8 -10885900.07147  22085715.028    22085723.4164
  21082365.130   -22668065.954 9 -17364862.83547  21082364.543    21082372.3944
  21804926.449   -17479655.790 8 -13328672.89546  21804925.634    21804934.9494
  23123103.678   -12399624.098 8  -9650082.92045  23123102.979    23123114.6884
  20342957.699   -25406864.207 9 -19769536.53847  20342957.514    20342964.6494
  23508018.774    -5648825.221 7  -4388874.17245  23508018.508    23508028.6234
  21749275.048   -19706015.398 9 -15327752.69047  21749274.650    21749283.7494
  22790607.854   -12590346.443 8  -9782313.18546  22790607.250    22790616.8354
 00  5  4  1 46  0.0000000  0  8 23 21 15 17 29 09 03 31
  22094397.679   -13955020.189 8 -10850348.65747  22094397.027    22094405.4324
  21080027.759   -22680348.713 9 -17374433.78647  21080027.171    21080035.0214
  21789039.259   -17563143.141 8 -13393727.85346  21789038.443    21789047.7144
  23139607.028   -12312898.828 8  -9582504.89445  23139606.334    23139618.1444
  20337656.997   -25434719.522 9 -19791241.91847  20337656.793    20337663.9194
  23511037.364    -5632962.445 8  -4376513.54745  23511037.038    23511047.2544
  21754993.311   -19675965.890 8 -15304337.50947  21754992.902    21755002.0114
  22784850.672   -12620600.520 8  -9805887.75646  22784850.087    22784859.6134
 00  5  4  1 46 30.0000000  0  8 23 21 15 17 29 09 03 31
  22103093.484   -13909323.237 8 -10814740.65947  22103092.857    22103101.2944
  21077717.970   -22692486.512 9 -17383891.77147  21077717.400    21077725.2394
  21773186.082   -17646451.532 8 -13458643.34146  21773185.288    21773194.5734
  23156163.664   -12225893.871 8  -9514708.92145  23156162.972    23156174.7104
  20332450.408   -25462079.991 9 -19812561.70147  20332450.208    20332457.3424
  23514163.334    -5616535.564 8  -4363713.34945  23514163.073    23514173.1264
  21760811.881   -19645389.104 8 -15280511.45847  21760811.484    21760820.6154
  22779199.387   -12650298.186 8  -9829028.74546  22779198.819    22779208.2454
 00  5  4  1 47  0.0000000  0  8 23 21 15 17 29 09 03 31
  22111803.086   -13863553.964 8 -10779076.30747  22111802.458    22111810.9134
  21075435.717   -22704479.577 9 -17393236.98647  21075435.160    21075443.0074
  21757367.358   -17729578.819 8 -13523417.71746  21757366.569    21757375.8734
  23172773.278   -12138610.093 8  -9446695.67945  23172772.593    23172784.3784
  20327337.986   -25488945.483 9 -19833495.79547  20327337.787    20327344.9144
  23517396.733    -5599544.227 8  -4350473.31945  23517396.425    23517406.3904
  21766730.592   -19614286.361 8 -15256275.58047  21766730.186    21766739.2984
  22773654.125   -12679438.603 8  -9851735.52946  22773653.547    22773662.9404
 00  5  4  1 47 30.0000000  0  8 23 21 15 17 29 09 03 31
  22120526.502   -13817712.195 8 -10743355.46447  22120525.869    22120534.2924
  21073181.058   -22716327.788 9 -17402469.32847  21073180.491    21073188.3344
  21741583.633   -17812522.468 8 -13588049.01446  21741582.846    21741592.0434
  23189435.807   -12051047.942 8  -9378465.53845  23189435.098    23189447.0094
  20322319.882   -25515315.530 9 -19854043.82447  20322319.691    20322326.8144
  23520737.475    -5581988.469 8  -4336793.47345  23520737.083    23520747.1644
  21772749.172   -19582658.672 8 -15231630.64447  21772748.730    21772757.9064
  22768215.091   -12708020.491 8  -9874007.08346  22768214.503    22768223.9704
 00  5  4  1 48  0.0000000  0  8 23 21 15 17 29 09 03 31
  22129263.785   -13771797.607 8 -10707577.88047  22129263.150    22129271.5744
  21070954.167   -22728030.278 9 -17411588.12547  21070953.572    21070961.4224
  21725835.336   -17895279.694 8 -13652535.03946  21725834.558    21725843.7454
  23206151.253   -11963207.909 8  -9310018.85245  23206150.576    23206162.4994
  20317396.174   -25541189.688 9 -19874205.44947  20317395.970    20317403.0544
  23524185.598    -5563867.485 7  -4322673.19845  23524185.295    23524195.3884
  21778867.267   -19550507.413 8 -15206577.74147  21778866.864    21778876.0954
  22762882.578   -12736042.825 8  -9895842.63446  22762881.995    22762891.5034
 00  5  4  1 48 30.0000000  0  8 23 21 15 17 29 09 03 31
  22138014.552   -13725811.915 8 -10671744.89447  22138013.922    22138022.3754
  21068754.565   -22739589.067 9 -17420594.94447  21068753.975    21068761.8054
  21710122.756   -17977849.723 8 -13716875.21446  21710121.956    21710131.0364
  23222919.237   -11875092.440 8  -9241357.54545  23222918.558    23222930.3964
  20312566.537   -25566569.459 9 -19893981.83447  20312566.323    20312573.3954
  23527740.971    -5545183.077 7  -4308113.88345  23527740.804    23527750.8884
  21785084.477   -19517835.641 8 -15181119.23947  21785084.100    21785093.3554
  22757656.517   -12763506.045 8  -9917242.49546  22757655.922    22757665.4244
 00  5  4  1 49  0.0000000  0  8 23 21 15 17 29 09 03 31
  22146778.979   -13679754.765 8 -10635856.22447  22146778.344    22146786.7924
  21066582.368   -22751003.758 9 -17429489.48447  21066581.779    21066589.6004
  21694446.185   -18060229.868 8 -13781067.41447  21694445.408    21694454.6014
  23239739.411   -11786701.891 8  -9172481.90145  23239738.793    23239750.6444
  20307831.079   -25591454.255 9 -19913372.52647  20307830.871    20307837.9094
  23531403.846    -5525934.308 7  -4293114.81745  23531403.618    23531413.7514
  21791400.578   -19484644.278 8 -15155255.86747  21791400.197    21791409.4764
  22752536.982   -12790408.988 8  -9938205.78546  22752536.387    22752545.9914
 00  5  4  1 49 30.0000000  0  8 23 21 15 17 29 09 03 31
  22155557.043   -13633625.744 8 -10599911.55247  22155556.407    22155564.8964
  21064437.754   -22762273.643 9 -17438271.18647  21064437.174    21064444.9914
  21678806.333   -18142417.382 8 -13845109.54247  21678805.555    21678814.6724
  23256611.874   -11698036.556 8  -9103392.12545  23256611.233    23256623.2294
  20303189.909   -25615843.433 9 -19932377.02147  20303189.714    20303196.7224
  23535174.116    -5506120.891 7  -4277675.75545  23535173.908    23535184.0914
  21797815.408   -19450934.312 8 -15128988.38947  21797815.027    21797824.2824
  22747524.308   -12816750.451 8  -9958731.54946  22747523.737    22747533.3484
 00  5  4  1 50  0.0000000  0  8 23 21 15 17 29 09 03 31
  22164348.240   -13587427.972 8 -10563913.31447  22164347.591    22164356.1304
  21062320.022   -22773402.220 9 -17446942.77547  21062319.430    21062327.2354
  21663203.118   -18224412.626 8 -13909001.86447  21663202.327    21663211.3764
  23273535.928   -11609100.341 8  -9034091.29145  23273535.237    23273547.3454
  20298642.498   -25639739.995 9 -19950997.66347  20298642.292    20298649.3054
  23539051.342    -5485745.858 7  -4261799.05645  23539051.153    23539061.2414
  21804327.969   -19416710.490 8 -15102320.49947  21804327.578    21804336.8574
  22742618.073   -12842532.749 8  -9978821.60646  22742617.493    22742627.1014
 00  5  4  1 50 30.0000000  0  8 23 21 15 17 29 09 03 31
  22173153.110   -13541158.202 8 -10527858.96747  22173152.436    22173160.9494
  21060229.908   -22784385.683 9 -17455501.29547  21060229.337    21060237.1234
  21647637.532   -18306209.904 8 -13972739.93047  21647636.733    21647645.7454
  23290512.007   -11519890.953 8  -8964577.58545  23290511.384    23290523.4154
  20294189.457   -25663140.609 9 -19969231.84947  20294189.265    20294196.2464
  23543036.211    -5464805.672 7  -4245481.97945  23543036.025    23543045.9704
  21810938.628   -19381971.263 8 -15075251.00047  21810938.232    21810947.4724
  22737819.057   -12867751.825 8  -9998472.79146  22737818.506    22737827.9734
 00  5  4  1 51  0.0000000  0  8 23 21 15 17 29 09 03 31
  22181971.148   -13494819.010 8 -10491750.53646  22181970.491    22181979.0444
  21058166.960   -22795226.360 9 -17463948.55147  21058166.395    21058174.2094
  21632109.617   -18387809.386 8 -14036323.87647  21632108.833    21632117.8324
  23307539.379   -11430411.779 8  -8894853.65245  23307538.756    23307550.7104
  20289830.342   -25686047.672 9 -19987081.45347  20289830.153    20289837.1164
  23547127.940    -5443302.837 7  -4228726.46745  23547127.713    23547137.8004
  21817646.695   -19346720.506 8 -15047782.90547  21817646.268    21817655.4774
  22733126.816   -12892409.407 8 -10017686.44946  22733126.254    22733135.7174
 00  5  4  1 51 30.0000000  0  8 23 21 15 17 29 09 03 31
  22190802.617   -13448409.298 8 -10455587.14647  22190801.957    22190810.5354
  21056131.371   -22805923.341 9 -17472283.83747  21056130.794    21056138.6214
  21616620.014   -18469207.485 8 -14099750.91447  21616619.246    21616628.2024
  23324618.279   -11340662.629 8  -8824919.34645  23324617.543    23324629.4714
  20285565.333   -25708460.122 9 -20004545.64247  20285565.136    20285572.1054
  23551327.027    -5421236.469 7  -4211531.86145  23551326.826    23551336.9144
  21824451.909   -19310958.820 8 -15019916.67747  21824451.517    21824460.7134
  22728541.732   -12916503.828 8 -10036461.27246  22728541.119    22728550.6714
 00  5  4  1 52  0.0000000  0  8 23 21 15 17 29 09 03 31
  22199647.896   -13401927.257 8 -10419367.39446  22199647.234    22199655.7864
  21054123.461   -22816474.854 9 -17480505.77047  21054122.894    21054130.6944
  21601169.502   -18550400.297 8 -14163017.99747  21601168.702    21601177.5974
  23341748.597   -11250642.646 8  -8754774.00745  23341747.774    23341759.8664
  20281394.839   -25730376.025 9 -20021622.91447  20281394.653    20281401.5924
  23555633.571    -5398604.829 7  -4193896.78545  23555633.274    23555643.5704
  21831354.425   -19274686.093 8 -14991652.23147  21831354.018    21831363.1994
  22724064.328   -12940032.425 8 -10054795.18646  22724063.689    22724073.2384
 00  5  4  1 52 30.0000000  0  8 23 21 15 17 29 09 03 31
  22208505.817   -13355378.659 8 -10383095.78346  22208505.172    22208513.7194
  21052142.124   -22826886.433 9 -17488618.66947  21052141.586    21052149.3894
  21585757.366   -18631390.958 8 -14226127.55847  21585756.592    21585765.5114
  23358929.183   -11160358.163 8  -8684422.56545  23358928.410    23358940.5394
  20277317.710   -25751801.222 9 -20038317.82147  20277317.535    20277324.4664
  23560046.675    -5375413.656 8  -4175825.70445  23560046.429    23560056.6664
  21838352.739   -19237909.738 8 -14962995.35947  21838352.343    21838361.5134
  22719693.539   -12963000.548 8 -10072692.38646  22719692.894    22719702.5024
 00  5  4  1 53  0.0000000  0  8 23 21 15 17 29 09 03 31
  22217377.193   -13308758.966 8 -10346768.77346  22217376.540    22217385.1984
  21050188.329   -22837153.622 9 -17496619.05147  21050187.778    21050195.5724
  21570385.125   -18712172.356 8 -14289074.07047  21570384.344    21570393.2674
  23376160.750   -11069805.659 8  -8613862.28445  23376159.981    23376172.1044
  20273334.812   -25772731.210 9 -20054626.84348  20273334.633    20273341.5594
  23564567.201    -5351658.610 8  -4157315.24445  23564567.010    23564577.0824
  21845447.509   -19200626.850 8 -14933943.78147  21845447.092    21845456.2564
  22715430.442   -12985403.090 8 -10090148.85546  22715429.785    22715439.4054
 00  5  4  1 53 30.0000000  0  8 23 21 15 17 29 09 03 31
  22226262.037   -13262068.461 8 -10310386.58646  22226261.429    22226270.0894
  21048261.908   -22847276.872 9 -17504507.27947  21048261.352    21048269.1654
  21555053.129   -18792742.435 8 -14351855.92447  21555052.318    21555061.2704
  23393443.207   -10978986.307 8  -8543094.06945  23393442.447    23393454.5904
  20269446.113   -25793166.306 9 -20070550.25148  20269445.945    20269452.8274
  23569194.860    -5327339.981 7  -4138365.62745  23569194.576    23569204.6684
  21852638.188   -19162839.497 8 -14904499.11847  21852637.803    21852646.9944
  22711275.030   -13007239.652 8 -10107164.29946  22711274.362    22711284.0304
 00  5  4  1 54  0.0000000  0  8 23 21 15 17 29 09 03 31
  22235160.053   -13215309.546 8 -10273951.08246  22235159.419    22235168.0034
  21046362.471   -22857258.483 9 -17512285.13147  21046361.897    21046369.6944
  21539761.326   -18873100.979 8 -14414472.94947  21539760.534    21539769.4154
  23410775.800   -10887903.479 8  -8472120.51645  23410775.028    23410787.1004
  20265651.096   -25813108.975 9 -20086089.93848  20265650.912    20265657.8064
  23573929.340    -5302460.062 7  -4118978.63845  23573929.048    23573939.0874
  21859924.166   -19124551.523 8 -14874664.35447  21859923.750    21859932.9534
  22707227.004   -13028511.769 8 -10123739.91546  22707226.364    22707236.0774
 00  5  4  1 54 30.0000000  0  8 23 21 15 17 29 09 03 31
  22244071.070   -13168481.670 8 -10237461.85946  22244070.410    22244079.0414
  21044490.240   -22867097.113 9 -17519951.56747  21044489.653    21044497.4594
  21524510.485   -18953244.900 8 -14476922.72947  21524509.672    21524518.5284
  23428158.444   -10796557.543 8  -8400941.95345  23428157.674    23428169.7084
  20261949.920   -25832558.580 9 -20101245.42448  20261949.724    20261956.6364
  23578770.617    -5277018.781 7  -4099154.23245  23578770.327    23578780.3864
  21867305.109   -19085764.281 8 -14844440.54847  21867304.710    21867313.9664
  22703286.597   -13049218.575 8 -10139875.04046  22703285.982    22703295.7114
 00  5  4  1 55  0.0000000  0  8 23 21 15 17 29 09 03 31
  22252995.789   -13121582.170 8 -10200916.81346  22252995.152    22253003.7134
  21042645.617   -22876790.597 9 -17527504.90747  21042645.030    21042652.8274
  21509301.347   -19033169.302 8 -14539201.46547  21509300.531    21509309.4104
  23445591.408   -10704946.964 8  -8329557.16845  23445590.625    23445602.6264
  20258342.984   -25851512.834 9 -20116014.93148  20258342.801    20258349.7044
  23583719.124    -5251013.804 7  -4078890.59845  23583718.812    23583728.8564
  21874781.177   -19046477.125 8 -14813827.20647  21874780.804    21874790.0844
  22699454.401   -13069357.091 8 -10155567.35646  22699453.775    22699463.3754
 00  5  4  1 55 30.0000000  0  8 23 21 15 17 29 09 03 31
  22261933.312   -13074615.346 8 -10164319.29646  22261932.655    22261941.2044
  21040827.782   -22886343.205 9 -17534948.46247  21040827.199    21040834.9914
  21494133.540   -19112875.948 8 -14601310.48447  21494132.712    21494141.6984
  23463073.745   -10613076.828 7  -8257970.14745  23463072.982    23463084.9954
  20254829.479   -25869976.220 9 -20130401.93548  20254829.284    20254836.1694
  23588774.012    -5224449.362 7  -4058191.00945  23588773.722    23588783.9114
  21882351.330   -19006695.920 8 -14782828.88047  21882350.954    21882360.2064
  22695729.592   -13088930.834 8 -10170819.58346  22695728.973    22695738.5074
 00  5  4  1 56  0.0000000  0  8 23 21 15 17 29 09 03 31
  22270883.582   -13027581.340 8 -10127669.44246  22270882.918    22270891.4754
  21039036.661   -22895755.307 9 -17542282.53847  21039036.069    21039043.8794
  21479007.755   -19192362.638 8 -14663248.14347  21479006.933    21479015.7884
  23480605.233   -10520948.398 7  -8186181.87145  23480604.535    23480616.5704
  20251409.381   -25887948.870 9 -20144406.55548  20251409.181    20251416.0254
  23593935.250    -5197326.194 7  -4037056.05845  23593934.999    23593945.3024
  21890015.117   -18966422.595 8 -14751447.09847  21890014.708    21890023.9924
  22692112.308   -13107939.573 8 -10185631.55246  22692111.668    22692121.2184
 00  5  4  1 56 30.0000000  0  8 23 21 15 17 29 09 03 31
  22279847.251   -12980477.039 8 -10090964.80646  22279846.593    22279855.1674
  21037272.961   -22905023.488 9 -17549504.46447  21037272.359    21037280.1524
  21463924.807   -19271623.813 8 -14725010.04547  21463924.014    21463932.8954
  23498186.396   -10428559.364 7  -8114190.50545  23498185.675    23498197.7964
  20248083.265   -25905427.685 9 -20158026.37048  20248083.054    20248089.8554
  23599203.365    -5169641.360 7  -4015483.44445  23599203.121    23599213.5854
  21897772.772   -18925655.892 8 -14719680.84547  21897772.378    21897781.6604
  22688603.201   -13126379.862 8 -10200000.56846  22688602.547    22688612.0694
 00  5  4  1 57  0.0000000  0  8 23 21 15 17 29 09 03 31
  22288824.096   -12933303.759 8 -10054206.41846  22288823.458    22288831.9584
  21035536.422   -22914149.034 9 -17556615.24047  21035535.822    21035543.5804
  21448884.987   -19350658.411 8 -14786595.38647  21448884.147    21448893.0704
  23515816.606   -10335912.182 7  -8041997.99045  23515815.899    23515828.1264
  20244850.707   -25922414.642 9 -20171262.92248  20244850.502    20244857.3064
  23604578.018    -5141396.661 7  -3993474.57545  23604577.741    23604588.3474
  21905623.698   -18884399.029 8 -14687532.65547  21905623.283    21905632.5774
  22685202.088   -13144252.691 8 -10213927.40446  22685201.432    22685210.9784
 00  5  4  1 57 30.0000000  0  8 23 21 15 17 29 09 03 31
  22297813.889   -12886062.201 8 -10017394.81546  22297813.225    22297821.6944
  21033826.993   -22923132.019 9 -17563614.92647  21033826.395    21033834.1434
  21433888.647   -19429464.470 8 -14848002.64847  21433887.828    21433896.7504
  23533495.647   -10243008.472 7  -7969605.57845  23533494.910    23533507.2064
  20241711.622   -25938910.341 9 -20184116.67348  20241711.425    20241718.2214
  23610059.234    -5112592.798 7  -3971030.00345  23610058.976    23610069.5194
  21913567.369   -18842654.861 8 -14655004.74747  21913566.943    21913576.1884
  22681908.887   -13161558.262 8 -10227412.22546  22681908.292    22681917.8224
 00  5  4  1 58  0.0000000  0  8 23 21 15 17 29 09 03 31
  22306816.440   -12838753.277 8  -9980530.72446  22306815.773    22306824.3234
  21032144.461   -22931973.666 9 -17570504.47347  21032143.860    21032151.6284
  21418936.006   -19508040.596 8 -14909230.73147  21418935.220    21418944.0714
  23551223.064   -10149850.327 7  -7897014.91345  23551222.387    23551234.7024
  20238665.762   -25954916.124 9 -20196588.66848  20238665.563    20238672.3814
  23615646.489    -5083231.151 7  -3948150.78845  23615646.298    23615656.8244
  21921603.341   -18800425.562 8 -14622098.81247  21921602.930    21921612.1684
  22678723.599   -13178297.053 8 -10240455.40946  22678722.987    22678732.4684
 00  5  4  1 58 30.0000000  0  8 23 21 15 17 29 09 03 31
  22315832.016   -12791376.299 8  -9943613.60346  22315831.361    22315839.8794
  21030488.937   -22940673.151 9 -17577283.25747  21030488.346    21030496.1294
  21404027.826   -19586383.458 8 -14970277.03447  21404027.001    21404035.9334
  23568998.809   -10056438.155 7  -7824226.28645  23568998.062    23569010.5134
  20235713.265   -25970431.429 9 -20208678.48148  20235713.058    20235719.8784
  23621340.119    -5053311.601 8  -3924836.82845  23621339.847    23621350.3054
  21929731.328   -18757712.769 8 -14588816.13747  21929730.873    21929740.1734
  22675646.324   -13194468.185 8 -10253056.26146  22675645.737    22675655.1044
 00  5  4  1 59  0.0000000  0  8 23 21 15 17 29 09 03 31
  22324860.594   -12743930.617 8  -9906642.94046  22324859.921    22324868.4744
  21028860.593   -22949229.986 9 -17583950.86847  21028860.003    21028867.7714
  21389164.573   -19664490.176 8 -15031139.31747  21389163.810    21389172.6554
  23586822.927    -9962772.322 7  -7751240.00345  23586822.172    23586834.6414
  20232854.112   -25985455.970 9 -20220385.86748  20232853.917    20232860.7394
  23627139.886    -5022834.213 8  -3901088.19245  23627139.601    23627149.8694
  21937951.044   -18714517.810 8 -14555157.75247  21937950.623    21937959.9354
  22672677.276   -13210070.709 8 -10265214.04546  22672676.643    22672685.9664
 00  5  4  1 59 30.0000000  0  8 23 21 15 17 29 09 03 31
  22333902.079   -12696417.077 8  -9869619.40646  22333901.452    22333910.0194
  21027259.368   -22957644.433 9 -17590507.53647  21027258.762    21027266.5194
  21374346.588   -19742359.123 8 -15091816.31947  21374345.789    21374354.6284
  23604694.968    -9868854.660 7  -7678057.49845  23604694.140    23604706.6634
  20230088.160   -25999991.044 9 -20231711.86548  20230087.972    20230094.7864
  23633045.493    -4991800.042 8  -3876905.70345  23633045.313    23633055.3794
  21946262.004   -18670843.304 8 -14521125.69147  21946261.589    21946270.9184
  22669816.157   -13225105.668 8 -10276929.56146  22669815.534    22669824.8764
 00  5  4  2  0  0.0000000  0  8 23 21 15 17 29 09 03 31
  22342956.474   -12648836.068 8  -9832543.29846  22342955.853    22342964.3924
  21025684.973   -22965917.642 9 -17596954.14747  21025684.382    21025692.1364
  21359574.157   -19819988.396 8 -15152306.56247  21359573.375    21359582.1414
  23622614.544    -9774686.837 7  -7604680.06645  23622613.715    23622626.2664
  20227415.210   -26014037.352 9 -20242657.00148  20227415.012    20227421.8124
  23639056.939    -4960210.203 8  -3852290.22045  23639056.711    23639066.6564
  21954663.710   -18626692.163 8 -14486722.22047  21954663.303    21954672.6654
  22667063.014   -13239573.087 8 -10288202.84946  22667062.359    22667071.7754
 00  5  4  2  0 30.0000000  0  8 23 21 15 17 29 09 03 31
  22352024.056   -12601185.611 8  -9795413.07646  22352023.436    22352031.9514
  21024137.885   -22974047.448 9 -17603289.02747  21024137.293    21024145.0164
  21344848.256   -19897373.345 8 -15212606.41347  21344847.490    21344856.2544
  23640582.053    -9680267.912 7  -7531106.96845  23640581.246    23640593.7954
  20224835.524   -26027593.532 9 -20253220.22348  20224835.338    20224842.0914
  23645174.340    -4928063.250 8  -3827240.62145  23645174.037    23645183.9884
  21963156.128   -18582064.263 8 -14451947.25847  21963155.724    21963165.0854
  22664418.262   -13253470.792 8 -10299032.19646  22664417.630    22664427.1514
 00  5  4  2  1  0.0000000  0  8 23 21 15 17 29 09 03 31
  22361104.236   -12553468.947 8  -9758231.25846  22361103.610    22361112.0734
  21022617.437   -22982037.192 9 -17609514.76647  21022616.855    21022624.5724
  21330168.625   -19974514.804 8 -15272716.51047  21330167.832    21330176.6324
  23658596.420    -9585602.288 7  -7457341.62245  23658595.595    23658608.1504
  20222348.463   -26040662.872 9 -20263404.08148  20222348.290    20222355.0414
  23651396.949    -4895363.003 8  -3801759.88845  23651396.699    23651406.5374
  21971738.242   -18536965.014 8 -14416805.01047  21971737.833    21971747.1634
  22661881.312   -13266802.114 8 -10309420.21146  22661880.716    22661890.2214
 00  5  4  2  1 30.0000000  0  8 23 21 15 17 29 09 03 31
  22370197.483   -12505683.977 8  -9720996.21646  22370196.825    22370205.2824
  21021124.155   -22989884.306 9 -17615629.36147  21021123.569    21021131.2854
  21315536.170   -20051408.315 8 -15332633.39447  21315535.372    21315544.1764
  23676657.874    -9490689.144 7  -7383383.42745  23676657.071    23676669.5844
  20219954.311   -26053244.030 9 -20273207.53848  20219954.137    20219960.8674
  23657725.225    -4862108.050 8  -3775846.90045  23657725.018    23657734.7474
  21980410.051   -18491394.343 8 -14381295.42046  21980409.649    21980418.9804
  22659452.655   -13279564.685 8 -10319365.03946  22659452.068    22659461.5504
 00  5  4  2  2  0.0000000  0  8 23 21 15 17 29 09 03 31
  22379303.611   -12457830.821 8  -9683708.05546  22379302.931    22379311.4404
  21019658.007   -22997588.789 9 -17621632.82747  21019657.394    21019665.1104
  21300951.330   -20128051.766 9 -15392355.44147  21300950.559    21300959.2574
  23694766.186    -9395529.666 7  -7309233.27745  23694765.415    23694777.9554
  20217652.946   -26065337.573 9 -20282631.03848  20217652.760    20217659.4844
  23664158.887    -4828299.032 8  -3749502.16945  23664158.574    23664168.3384
  21989171.063   -18445354.632 8 -14345420.35146  21989170.684    21989180.0524
  22657132.357   -13291758.034 8 -10328866.32146  22657131.774    22657141.2344
 00  5  4  2  2 30.0000000  0  8 23 21 15 17 29 09 03 31
  22388422.471   -12409910.561 8  -9646367.59846  22388421.828    22388430.4224
  21018218.796   -23005151.663 9 -17627525.95247  21018218.210    21018225.9254
  21286414.345   -20204443.675 9 -15451881.45947  21286413.563    21286422.2994
  23712920.911    -9300126.074 7  -7234892.89745  23712920.206    23712932.8134
  20215444.115   -26076944.766 9 -20291675.56548  20215443.940    20215450.6564
  23670697.546    -4793937.868 8  -3722727.17945  23670697.297    23670707.0284
  21998020.873   -18398848.723 8 -14309182.01046  21998020.478    21998029.8504
  22654920.053   -13303383.822 8 -10337925.36546  22654919.487    22654928.8504
 00  5  4  2  3  0.0000000  0  8 23 21 15 17 29 09 03 31
  22397554.148   -12361923.199 8  -9608974.85246  22397553.496    22397562.1494
  21016806.507   -23012572.983 9 -17633308.77147  21016805.948    21016813.6784
  21271925.685   -20280581.661 9 -15511209.62147  21271924.893    21271933.6074
  23731121.840    -9204479.876 8  -7160363.48045  23731121.207    23731133.7334
  20213327.694   -26088066.583 9 -20300341.87048  20213327.515    20213334.2214
  23677341.253    -4759025.386 8  -3695522.61745  23677341.088    23677350.5644
  22006958.906   -18351879.135 8 -14272582.36246  22006958.520    22006967.9324
  22652815.644   -13314442.166 8 -10346542.20746  22652815.102    22652824.4544
 00  5  4  2  3 30.0000000  0  8 23 21 15 17 29 09 03 31
  22406698.816   -12313867.438 8  -9571528.80646  22406698.175    22406706.8384
  21015421.492   -23019851.247 9 -17638980.11747  21015420.927    21015428.6344
  21257486.141   -20356461.988 9 -15570337.03447  21257485.349    21257493.9004
  23749369.016    -9108590.966 8  -7085644.92245  23749368.374    23749380.7894
  20211303.836   -26098701.920 9 -20308629.10248  20211303.646    20211310.3504
  23684089.954    -4723560.845 8  -3667887.87845  23684089.646    23684099.1464
  22015985.013   -18304446.635 8 -14235622.00047  22015984.661    22015994.1134
  22650819.519   -13324931.561 8 -10354715.73346  22650818.925    22650828.3214
 00  5  4  2  4  0.0000000  0  8 23 21 15 17 29 09 03 31
  22415856.383   -12265744.238 8  -9534030.22346  22415855.716    22415864.3784
  21014063.522   -23026987.288 9 -17644540.65447  21014062.947    21014070.6634
  21243095.806   -20432083.082 9 -15629262.44247  21243095.002    21243103.5424
  23767661.953    -9012461.361 7  -7010738.81745  23767661.280    23767673.7484
  20209372.232   -26108852.367 9 -20316538.49748  20209372.043    20209378.7594
  23690943.240    -4687545.879 8  -3639824.23045  23690942.952    23690952.5144
  22025098.674   -18256554.245 8 -14198303.29347  22025098.292    22025107.7764
  22648931.560   -13334852.751 8 -10362446.50646  22648930.941    22648940.3104
 00  5  4  2  4 30.0000000  0  8 23 21 15 17 29 09 03 31
  22425026.778   -12217553.519 8  -9496479.01146  22425026.108    22425034.7824
  21012732.571   -23033981.291 9 -17649990.50447  21012731.988    21012739.6994
  21228755.220   -20507442.666 9 -15687984.07147  21228754.429    21228762.9924
  23786000.444    -8916092.424 7  -6935646.22645  23785999.785    23786012.1184
  20207532.807   -26118518.337 9 -20324070.37648  20207532.616    20207539.3214
  23697901.178    -4650981.367 8  -3611332.36845  23697900.915    23697910.5854
  22034299.405   -18208204.203 8 -14160627.96646  22034299.022    22034308.4924
  22647151.725   -13344205.890 8 -10369734.63046  22647151.073    22647160.3884
 00  5  4  2  5  0.0000000  0  8 23 21 15 17 29 09 03 31
  22434210.333   -12169293.510 8  -9458873.80546  22434209.650    22434218.3514
  21011429.038   -23040831.503 9 -17655328.31947  21011428.451    21011436.1554
  21214465.291   -20582536.387 9 -15746498.55647  21214464.512    21214472.9754
  23804384.624    -8819483.516 7  -6860366.64645  23804383.898    23804396.3724
  20205785.770   -26127698.959 9 -20331224.06548  20205785.576    20205792.2904
  23704963.783    -4613866.670 7  -3582411.79045  23704963.535    23704973.2894
  22043587.084   -18159397.420 8 -14122596.74246  22043586.682    22043596.1564
  22645480.273   -13352989.252 8 -10376578.78146  22645479.641    22645488.9264
 00  5  4  2  5 30.0000000  0  8 23 21 15 17 29 09 03 31
  22443406.508   -12120967.088 8  -9421216.85146  22443405.834    22443414.5204
  21010152.268   -23047540.858 9 -17660556.37647  21010151.675    21010159.3694
  21200225.889   -20657364.455 9 -15804806.03847  21200225.080    21200233.4734
  23822813.593    -8722638.773 7  -6784903.30445  23822812.840    23822825.3724
  20204130.470   -26136397.431 9 -20338002.05248  20204130.262    20204136.9694
  23712130.430    -4576205.196 7  -3553065.17645  23712130.224    23712140.0184
  22052960.698   -18110138.593 8 -14084213.28046  22052960.353    22052969.8244
  22643916.674   -13361205.869 8 -10382981.30146  22643916.074    22643925.2874
 00  5  4  2  6  0.0000000  0  8 23 21 15 17 29 09 03 31
  22452615.584   -12072573.339 8  -9383507.43546  22452614.918    22452623.5314
  21008902.561   -23054107.920 9 -17665673.54547  21008901.990    21008909.6754
  21186037.599   -20731923.942 9 -15862904.23047  21186036.772    21186045.2124
  23841287.300    -8625558.492 7  -6709256.42845  23841286.531    23841299.2764
  20202566.956   -26144613.563 9 -20344404.18748  20202566.744    20202573.4214
  23719401.178    -4537996.811 7  -3523292.38845  23719400.981    23719410.8694
  22062420.082   -18060429.295 8 -14045478.80046  22062419.725    22062429.1894
  22642460.986   -13368855.442 8 -10388941.97246  22642460.361    22642469.6184
 00  5  4  2  6 30.0000000  0  8 23 21 15 17 29 09 03 31
  22461837.416   -12024112.478 8  -9345745.72246  22461836.694    22461845.2934
  21007679.842   -23060533.346 9 -17670680.35047  21007679.266    21007686.9134
  21171900.875   -20806212.366 9 -15920791.22347  21171900.069    21171908.4834
  23859805.594    -8528244.222 7  -6633427.22045  23859804.881    23859817.7594
  20201095.081   -26152348.163 9 -20350431.10648  20201094.873    20201101.5394
  23726775.879    -4499242.626 7  -3493094.29145  23726775.625    23726785.5234
  22071964.754   -18010271.922 8 -14006395.17046  22071964.417    22071973.8244
  22641113.142   -13375938.204 8 -10394460.97046  22641112.524    22641121.8024
 00  5  4  2  7  0.0000000  0  8 23 21 15 17 29 09 03 31
  22471072.014   -11975584.219 8  -9307931.48746  22471071.301    22471079.9354
  21006484.182   -23066816.537 9 -17675576.32447  21006483.604    21006491.2504
  21157816.189   -20880227.378 9 -15978465.16947  21157815.390    21157823.7674
  23878368.096    -8430697.157 7  -6557416.61745  23878367.370    23878380.3384
  20199714.700   -26159601.772 9 -20356083.22648  20199714.499    20199721.1634
  23734254.191    -4459943.527 7  -3462471.59445  23734253.988    23734263.8464
  22081594.312   -17959668.421 8 -13966963.91246  22081593.940    22081603.4224
  22639873.256   -13382454.012 8 -10399538.20746  22639872.622    22639881.8234
 00  5  4  2  7 30.0000000  0  8 23 21 15 17 29 09 03 31
  22480319.372   -11926988.832 8  -9270064.95446  22480318.669    22480327.3064
  21005315.665   -23072957.126 9 -17680361.17647  21005315.083    21005322.7184
  21143784.020   -20953966.576 9 -16035924.21547  21143783.213    21143791.5244
  23896974.681    -8332918.974 7  -6481225.91745  23896974.069    23896987.1034
  20198425.709   -26166375.350 9 -20361361.29748  20198425.511    20198432.1384
  23741836.039    -4420100.793 8  -3431425.28045  23741835.789    23741845.7024
  22091308.179   -17908621.758 8 -13927187.33146  22091307.806    22091317.3154
  22638741.113   -13388403.691 8 -10404174.28746  22638740.456    22638749.6034
 00  5  4  2  8  0.0000000  0  8 23 21 15 17 29 09 03 31
  22489579.632   -11878325.846 8  -9232145.75246  22489578.939    22489587.6394
  21004174.231   -23078955.345 9 -17685035.09347  21004173.643    21004181.2604
  21129804.870   -21027427.102 9 -16093166.10247  21129804.021    21129812.4204
  23915625.227    -8234910.402 7  -6404855.69245  23915624.538    23915637.4884
  20197227.991   -26172669.297 9 -20366265.62848  20197227.780    20197234.4074
  23749521.273    -4379714.848 8  -3399955.68945  23749520.979    23749530.8884
  22101106.032   -17857133.835 8 -13887066.91746  22101105.653    22101115.1544
  22637716.752   -13393786.692 8 -10408368.80246  22637716.125    22637725.2424
 00  5  4  2  8 30.0000000  0  8 23 21 15 17 29 09 03 31
  22498852.675   -11829595.596 8  -9194174.11346  22498851.999    22498860.7204
  21003059.874   -23084811.124 9 -17689598.01447  21003059.285    21003066.9124
  21115879.000   -21100607.166 9 -16150189.46347  21115878.212    21115886.6304
  23934319.192    -8136673.370 7  -6328307.41345  23934318.545    23934331.3974
  20196121.294   -26178484.878 9 -20370797.20948  20196121.076    20196127.6914
  23757309.394    -4338787.525 8  -3368064.24045  23757309.048    23757319.1144
  22110987.319   -17805207.687 8 -13846605.02546  22110986.942    22110996.4184
  22636800.044   -13398603.898 8 -10412122.44246  22636799.410    22636808.5374
 00  5  4  2  9  0.0000000  0  8 23 21 15 17 29 09 03 31
  22508138.634   -11780797.359 8  -9156149.51546  22508137.960    22508146.7114
  21001972.720   -23090524.021 9 -17694049.60247  21001972.127    21001979.7584
  21102007.220   -21173503.625 9 -16206991.84447  21102006.465    21102014.8014
  23953056.582    -8038208.456 7  -6251581.58045  23953055.935    23953068.6574
  20195105.602   -26183822.114 9 -20374956.05448  20195105.390    20195112.0064
  23765200.628    -4297318.783 8  -3335750.91645  23765200.254    23765210.3124
  22120951.705   -17752844.690 8 -13805802.73346  22120951.304    22120960.8064
  22635991.038   -13402854.981 8 -10415434.95646  22635990.430    22635999.5784
 00  5  4  2  9 30.0000000  0  8 23 21 15 17 29 09 03 31
  22517437.512   -11731931.346 8  -9118072.10246  22517436.853    22517445.6504
  21000912.720   -23096094.383 9 -17698390.12247  21000912.121    21000919.7474
  21088189.800   -21246114.490 9 -16263571.67147  21088188.991    21088197.3754
  23971836.846    -7939517.195 7  -6174679.37645  23971836.114    23971848.9374
  20194180.765   -26188681.909 9 -20378742.86548  20194180.560    20194187.1784
  23773194.691    -4255310.083 8  -3303016.82245  23773194.270    23773204.2044
  22130998.649   -17700047.553 8 -13764662.14946  22130998.269    22131007.8194
  22635289.683   -13406540.677 8 -10418306.89746  22635289.075    22635298.2634
 00  5  4  2 10  0.0000000  0  8 23 21 15 17 29 09 03 31
  22526749.143   -11682998.606 8  -9079942.67946  22526748.487    22526757.2374
  20999879.684   -23101522.990 9 -17702620.17447  20999879.076    20999886.6884
  21074426.942   -21318438.262 9 -16319927.80147  21074426.138    21074434.5284
  23990659.831    -7840602.101 7  -6097602.78045  23990658.872    23990672.1564
  20193346.435   -26193066.299 9 -20382159.23048  20193346.227    20193352.8194
  23781290.966    -4212763.720 8  -3269863.78345  23781290.595    23781300.4344
  22141127.529   -17646819.885 8 -13723186.09046  22141127.186    22141136.7634
  22634695.662   -13409662.325 8 -10420739.32746  22634695.037    22634704.2004
 00  5  4  2 10 30.0000000  0  8 23 21 15 17 29 09 03 31
  22536073.667   -11633997.736 8  -9041760.17246  22536073.011    22536081.8084
  20998874.008   -23106807.817 9 -17706738.18547  20998873.393    20998880.9884
  21060719.582   -21390470.902 9 -16376057.08047  21060718.778    21060727.1144
  24009525.398    -7741462.923 7  -6020351.57145  24009524.381    24009537.5984
  20192602.720   -26196974.341 9 -20385204.41448  20192602.522    20192609.1024
  23789489.606    -4169679.242 8  -3236291.41245  23789489.269    23789499.1404
  22151338.245   -17593162.316 8 -13681375.03546  22151337.908    22151347.5214
  22634209.156   -13412218.598 8 -10422731.20746  22634208.534    22634217.7074
 00  5  4  2 11  0.0000000  0  8 23 21 15 17 29 09 03 31
  22545411.083   -11584929.220 8  -9003524.96646  22545410.457    22545419.2724
  20997895.469   -23111949.778 9 -17710744.88047  20997894.860    20997902.4684
  21047067.875   -21462210.673 9 -16431958.15147  21047067.059    21047075.3824
  24028433.402    -7642101.899 7  -5942927.46445  24028432.463    24028445.3404
  20191949.345   -26200407.644 9 -20387879.68048  20191949.145    20191955.7144
  23797790.432    -4126058.385 8  -3202301.10245  23797790.112    23797799.7564
  22161630.114   -17539078.128 8 -13639231.56946  22161629.733    22161639.4384
  22633829.944   -13414211.031 8 -10424283.74246  22633829.296    22633838.5364
 00  5  4  2 11 30.0000000  0  8 23 21 15 17 29 09 03 31
  22554761.442   -11535793.023 8  -8965237.00746  22554760.814    22554769.5604
  20996944.247   -23116948.269 9 -17714639.77147  20996943.668    20996951.2744
  21033472.392   -21533655.100 9 -16487629.07347  21033471.591    21033479.9474
  24047383.205    -7542520.333 7  -5865331.50645  24047382.373    24047395.1894
  20191386.195   -26203366.912 9 -20390185.56348  20191386.005    20191392.5384
  23806193.131    -4081902.266 8  -3167893.70045  23806192.776    23806202.3014
  22172002.757   -17484569.866 8 -13596757.64646  22172002.392    22172012.1024
  22633558.065   -13415639.764 8 -10425397.02246  22633557.404    22633566.6544
 00  5  4  2 12  0.0000000  0  8 23 21 15 17 29 09 03 31
  22564124.604   -11486589.283 8  -8926896.41946  22564123.952    22564132.6904
  20996020.312   -23121803.429 9 -17718422.98347  20996019.708    20996027.3074
  21019933.608   -21604801.733 9 -16543067.95947  21019932.794    21019941.0934
  24066374.705    -7442719.833 7  -5787564.94045  24066373.956    24066386.7214
  20190913.020   -26205853.284 9 -20392122.96248  20190912.822    20190919.3434
  23814697.324    -4037212.180 8  -3133070.23245  23814696.958    23814706.5754
  22182455.602   -17429639.999 8 -13553955.19346  22182455.216    22182464.9064
  22633393.305   -13416505.640 8 -10426071.70946  22633392.668    22633401.8724
 00  5  4  2 12 30.0000000  0  8 23 21 15 17 29 09 03 31
  22573500.689   -11437317.320 8  -8888502.67946  22573500.031    22573508.8014
  20995123.699   -23126515.100 9 -17722094.38547  20995123.089    20995130.6924
  21006451.964   -21675647.761 9 -16598272.60547  21006451.197    21006459.4604
  24085407.713    -7342701.208 7  -5709628.42845  24085407.060    24085419.5754
  20190529.772   -26207867.122 9 -20393692.15348  20190529.567    20190536.0794
  23823302.914    -3991988.779 8  -3097831.16045  23823302.561    23823312.2564
  22192988.310   -17374290.611 8 -13510825.83046  22192987.924    22192997.5704
  22633335.555   -13416808.829 8 -10426307.94646  22633334.918    22633344.1874
 00  5  4  2 13  0.0000000  0  8 23 21 15 17 29 09 03 31
  22582889.771   -11387977.159 8  -8850055.79546  22582889.121    22582897.9064
  20994254.313   -23131083.409 9 -17725654.08447  20994253.721    20994261.3184
  20993028.013   -21746191.034 9 -16653241.34747  20993027.249    20993035.5194
  24104481.839    -7242466.255 7  -5631523.35345  24104481.175    24104493.8684
  20190236.215   -26209409.611 9 -20394894.06748  20190236.011    20190242.5094
  23832009.822    -3946233.376 8  -3062177.56645  23832009.523    23832019.1464
  22203600.255   -17318524.547 8 -13467371.80646  22203599.847    22203609.4814
  22633384.801   -13416550.117 8 -10426106.34246  22633384.134    22633393.3664
 00  5  4  2 13 30.0000000  0  8 23 21 15 17 29 09 03 31
  22592291.929   -11338568.432 8  -8811555.47346  22592291.273    22592300.0094
  20993412.409   -23135507.589 9 -17729101.47347  20993411.833    20993419.3844
  20979662.176   -21816428.792 9 -16707972.01647  20979661.373    20979669.6364
  24123596.927    -7142016.145 7  -5553250.61745  24123596.292    24123608.9684
  20190032.263   -26210481.182 9 -20395729.02548  20190032.072    20190038.5634
  23840817.783    -3899947.139 8  -3026110.33745  23840817.426    23840827.1794
  22214291.087   -17262344.061 8 -13423594.84346  22214290.706    22214300.2874
  22633540.922   -13415729.555 8 -10425466.92546  22633540.266    22633549.4894
 00  5  4  2 14  0.0000000  0  8 23 21 15 17 29 09 03 31
  22601706.965   -11289091.964 8  -8773002.38646  22601706.324    22601715.0644
  20992597.806   -23139788.304 9 -17732437.07347  20992597.217    20992604.7734
  20966354.779   -21886359.457 9 -16762463.39747  20966353.965    20966362.2134
  24142752.475    -7041353.111 7  -5474811.94645  24142751.870    24142764.5034
  20189917.578   -26211083.682 9 -20396198.47748  20189917.391    20189923.8774
  23849726.366    -3853132.299 8  -2989631.19245  23849725.999    23849735.6454
  22225060.123   -17205752.558 8 -13379497.61146  22225059.741    22225069.3394
  22633803.613   -13414348.781 8 -10424390.99346  22633802.974    22633812.1844
 00  5  4  2 14 30.0000000  0  8 23 21 15 17 29 09 03 31
  22611135.054   -11239547.235 8  -8734396.09446  22611134.377    22611143.0594
  20991810.551   -23143925.366 9 -17735660.72547  20991809.952    20991817.5114
  20953106.390   -21955980.110 9 -16816713.20947  20953105.587    20953113.7674
  24161948.455    -6940478.200 7  -5396208.20745  24161947.832    24161960.4754
  20189892.012   -26211217.827 9 -20396302.97748  20189891.819    20189898.3074
  23858735.357    -3805789.715 8  -2952740.84345  23858735.041    23858744.6364
  22235906.998   -17148751.992 8 -13335081.62546  22235906.572    22235916.2014
  22634172.986   -13412407.612 8 -10422878.39246  22634172.379    22634181.5374
 00  5  4  2 15  0.0000000  0  8 23 21 15 17 29 09 03 31
  22620576.129   -11189934.159 8  -8695736.54146  22620575.422    22620584.0934
  20991050.737   -23147918.001 9 -17738771.84147  20991050.148    20991057.7114
  20939917.388   -22025288.391 9 -16870719.60047  20939916.608    20939924.7874
  24181184.550    -6839392.946 7  -5317440.54845  24181183.814    24181196.4654
  20189955.455   -26210884.327 9 -20396043.08048  20189955.265    20189961.7364
  23867844.443    -3757920.802 8  -2915440.36545  23867844.156    23867853.7124
  22246831.146   -17091345.144 8 -13290349.05746  22246830.760    22246840.3944
  22634648.963   -13409906.572 8 -10420929.52346  22634648.359    22634657.4334
 00  5  4  2 15 30.0000000  0  8 23 21 15 17 29 09 03 31
  22630030.253   -11140252.254 8  -8657023.36446  22630029.586    22630038.2594
  20990318.495   -23151765.785 9 -17741770.09147  20990317.905    20990325.4784
  20926788.428   -22094281.427 9 -16924480.35247  20926787.636    20926795.8054
  24200460.313    -6738098.128 7  -5238509.59545  24200459.541    24200472.3564
  20190107.731   -26210083.917 9 -20395419.36148  20190107.559    20190114.0204
  23877053.572    -3709526.311 8  -2877730.33045  23877053.280    23877062.8264
  22257832.214   -17033534.315 8 -13245301.70346  22257831.803    22257841.5234
  22635231.328   -13406846.253 8 -10418544.86746  22635230.726    22635239.7984
 00  5  4  2 16  0.0000000  0  9 23 21 15 25 17 29 09 03 31
  22639497.215   -11090502.980 8  -8618257.68046  22639496.573    22639505.2224
  20989613.489   -23155470.416 9 -17744656.78947  20989612.903    20989620.4764
  20913719.626   -22162958.339 9 -16977994.77247  20913718.814    20913726.9154
  24666886.194    -6487097.889 7  -5033435.84245  24666885.772    24666904.0444
  24219775.300    -6636596.910 7  -5159417.84245  24219774.549    24219787.5114
  20190348.416   -26208818.973 9 -20394433.66848  20190348.223    20190354.6884
  23886362.141    -3660609.157 8  -2839613.05645  23886361.746    23886371.4274
  22268909.371   -16975323.468 8 -13199942.64446  22268909.005    22268918.7314
  22635919.737   -13403228.774 8 -10415726.05446  22635919.119    22635928.1684
 00  5  4  2 16 30.0000000  0  9 23 21 15 25 17 29 09 03 31
  22648976.859   -11040686.693 8  -8579439.77546  22648976.270    22648984.9084
  20988935.653   -23159032.344 9 -17747432.28647  20988935.093    20988942.6474
  20900711.358   -22231317.135 9 -17031261.30647  20900710.569    20900718.6984
  24648271.302    -6584916.930 7  -5109657.81945  24648270.878    24648289.1844
  24239129.206    -6534891.283 7  -5080166.76545  24239128.620    24239141.5354
  20190677.193   -26207091.111 9 -20393087.25848  20190677.005    20190683.4704
  23895769.857    -3611171.121 8  -2801089.85245  23895769.443    23895779.0964
  22280062.124   -16916715.777 8 -13154274.35746  22280061.734    22280071.4694
  22636713.881   -13399055.604 8 -10412474.22246  22636713.250    22636722.3024
 00  5  4  2 17  0.0000000  0  9 23 21 15 25 17 29 09 03 31
  22658469.858   -10990800.552 8  -8540567.45446  22658469.238    22658477.9104
  20988285.562   -23162448.352 9 -17750094.08247  20988284.993    20988292.5544
  20887764.608   -22299352.696 9 -17084275.97947  20887763.812    20887771.8974
  24629642.936    -6682807.694 7  -5185935.68645  24629642.524    24629660.5094
  24258522.372    -6432979.967 7  -5000755.43945  24258521.874    24258534.7664
  20191094.367   -26204898.595 9 -20391378.78648  20191094.196    20191100.6714
  23905276.904    -3561210.928 8  -2762159.79745  23905276.571    23905286.2324
  22291290.420   -16857710.933 8 -13108296.61246  22291290.031    22291299.7834
  22637614.095   -13394324.846 8 -10408787.92946  22637613.476    22637622.5194
 00  5  4  2 17 30.0000000  0  9 23 21 15 25 17 29 09 03 31
  22667976.090   -10940844.660 8  -8501640.77746  22667975.497    22667984.2654
  20987663.293   -23165718.411 9 -17752642.15247  20987662.724    20987670.2794
  20874879.703   -22367062.823 9 -17137037.04947  20874878.902    20874886.9894
  24611001.315    -6780768.076 7  -5262267.81545  24611000.710    24611018.6694
  24277954.409    -6330864.755 7  -4921185.24045  24277953.882    24277966.6924
  20191599.747   -26202242.675 9 -20389309.21248  20191599.567    20191606.0394
  23914882.968    -3510730.346 8  -2722824.23745  23914882.581    23914892.1844
  22302593.717   -16798312.034 8 -13062011.80846  22302593.316    22302603.0474
  22638620.348   -13389037.282 8 -10404667.76146  22638619.729    22638628.7244
 00  5  4  2 18  0.0000000  0  9 23 21 15 25 17 29 09 03 31
  22677495.829   -10890817.903 8  -8462658.88546  22677495.296    22677503.9754
  20987068.949   -23168841.506 9 -17755075.70747  20987068.385    20987075.9564
  20862057.423   -22434444.026 9 -17189541.81047  20862056.649    20862064.7844
  24592346.878    -6878794.530 7  -5338651.45845  24592346.534    24592364.1714
  24297425.098    -6228546.061 7  -4841456.43845  24297424.603    24297437.3614
  20192193.289   -26199123.449 9 -20386878.62448  20192193.106    20192199.5874
  23924588.041    -3459729.769 8  -2683083.50845  23924587.713    23924597.2444
  22313971.656   -16738520.776 8 -13015421.28346  22313971.289    22313980.9794
  22639732.483   -13383192.740 8 -10400113.58046  22639731.850    22639740.8624
 00  5  4  2 18 30.0000000  0  9 23 21 15 25 17 29 09 03 31
  22687028.690   -10840722.658 8  -8423623.61646  22687028.107    22687036.7824
  20986502.147   -23171819.858 9 -17757396.46747  20986501.567    20986509.1394
  20849297.752   -22501496.427 9 -17241790.36847  20849296.942    20849305.0614
  24573679.975    -6976887.302 7  -5415086.78345  24573679.657    24573697.1044
  24316933.735    -6126027.909 7  -4761572.24545  24316933.297    24316945.9924
  20192874.299   -26195544.715 9 -20384089.97248  20192874.114    20192880.5744
  23934391.257    -3408213.322 8  -2642940.78245  23934390.936    23934400.5364
  22325423.293   -16678342.102 8 -12968528.87546  22325422.921    22325432.6724
  22640949.916   -13376794.673 8 -10395128.09346  22640949.317    22640958.3884
 00  5  4  2 19  0.0000000  0  9 23 21 15 25 17 29 09 03 31
  22696574.752   -10790557.754 8  -8384534.08246  22696574.139    22696582.7764
  20985963.148   -23174652.242 9 -17759603.49247  20985962.570    20985970.1354
  20836601.235   -22568216.619 9 -17293780.06347  20836600.452    20836608.5504
  24555001.164    -7075042.463 7  -5491570.73045  24555000.778    24555018.1324
  24336480.150    -6023310.812 7  -4681533.02745  24336479.666    24336492.5394
  20193642.837   -26191506.022 9 -20380942.91148  20193642.642    20193649.1044
  23944292.739    -3356181.135 8  -2602396.19445  23944292.411    23944301.9734
  22336948.340   -16617777.725 8 -12921335.92846  22336948.003    22336957.7874
  22642272.801   -13369842.754 8 -10389711.03346  22642272.221    22642281.2714
 00  5  4  2 19 30.0000000  0  9 23 21 15 25 17 29 09 03 31
  22706134.262   -10740322.564 8  -8345389.77646  22706133.631    22706142.2354
  20985452.079   -23177337.804 9 -17761696.10947  20985451.494    20985459.0634
  20823968.566   -22634601.510 9 -17345508.47747  20823967.797    20823975.8944
  24536310.950    -7173256.878 7  -5568100.82845  24536310.647    24536327.9094
  24356064.217    -5920395.696 7  -4601339.51345  24356063.787    24356076.7724
  20194498.683   -26187008.399 9 -20377438.23948  20194498.480    20194504.9374
  23954291.972    -3303634.418 7  -2561450.65445  23954291.719    23954301.1994
  22348546.436   -16556829.989 8 -12873844.25746  22348546.054    22348555.8384
  22643700.994   -13362337.591 8 -10383862.86446  22643700.403    22643709.4824
 00  5  4  2 20  0.0000000  0  9 23 21 15 25 17 29 09 03 31
  22715707.045   -10690017.422 8  -8306190.95846  22715706.424    22715714.9514
  20984968.846   -23179877.020 9 -17763674.68447  20984968.279    20984975.8524
  20811399.965   -22700649.429 9 -17396974.31047  20811399.208    20811407.2534
  24517609.831    -7271528.969 7  -5644675.89145  24517609.403    24517626.6624
  24375685.583    -5817284.910 7  -4520993.52045  24375685.084    24375698.1934
  20195441.535   -26182053.554 9 -20373577.28548  20195441.347    20195447.8014
  23964388.687    -3250575.558 8  -2520106.04745  23964388.419    23964397.8764
  22360216.750   -16495502.200 8 -12826056.44546  22360216.394    22360226.1734
  22645234.189   -13354280.547 8 -10377584.65746  22645233.611    22645242.6954
 00  5  4  2 20 30.0000000  0  9 23 21 15 25 17 29 09 03 31
  22725292.966   -10639642.870 8  -8266938.06046  22725292.377    22725300.8994
  20984513.412   -23182270.320 9 -17765539.55647  20984512.814    20984520.3874
  20798895.904   -22766358.681 9 -17448176.24147  20798895.114    20798903.1084
  24498898.037    -7369856.900 7  -5721294.46345  24498897.557    24498914.9244
  24395343.864    -5713980.473 7  -4440496.63445  24395343.286    24395356.4964
  20196471.098   -26176642.878 9 -20369361.13748  20196470.894    20196477.3634
  23974582.571    -3197006.345 8  -2478363.77145  23974582.282    23974591.7124
  22371958.816   -16433797.585 8 -12777975.00546  22371958.455    22371968.2274
  22646872.165   -13345672.974 8 -10370877.46446  22646871.607    22646880.6984
 00  5  4  2 21  0.0000000  0  9 23 21 15 25 17 29 09 03 31
  22734892.320   -10589198.193 8  -8227630.52546  22734891.732    22734900.2064
  20984085.857   -23184516.841 9 -17767290.06247  20984085.280    20984092.8454
  20786456.882   -22831725.894 9 -17499111.65947  20786456.076    20786464.0794
  24480176.250    -7468237.771 7  -5797954.28744  24480175.897    24480192.6604
  24415038.719    -5610483.460 7  -4359849.66745  24415038.151    24415051.4024
  20197587.247   -26170777.223 9 -20364790.46648  20197587.052    20197593.5274
  23984873.296    -3142927.904 7  -2436224.69545  23984872.988    23984882.3724
  22383772.189   -16371718.158 8 -12729601.51646  22383771.797    22383781.5854
  22648614.785   -13336515.469 8 -10363741.75746  22648614.181    22648623.3314
 00  5  4  2 21 30.0000000  0  9 23 21 15 25 17 29 09 03 31
  22744505.000   -10538683.513 8  -8188268.42946  22744504.377    22744512.8214
  20983686.100   -23186617.363 9 -17768926.80447  20983685.527    20983693.0894
  20774083.291   -22896749.113 9 -17549779.02547  20774082.492    20774090.4674
  24461444.851    -7566669.446 7  -5874653.71944  24461444.605    24461461.2564
  24434769.980    -5506795.725 7  -4279054.06545  24434769.192    24434782.6964
  20198789.779   -26164457.786 9 -20359866.18948  20198789.579    20198796.0504
  23995260.584    -3088342.114 7  -2393690.25745  23995260.297    23995269.6334
  22395656.215   -16309267.177 8 -12680938.49946  22395655.850    22395665.6694
  22650461.796   -13326809.230 8 -10356178.45846  22650461.182    22650470.3924
 00  5  4  2 22  0.0000000  0  9 23 21 15 25 17 29 09 03 31
  22754130.964   -10488098.309 8  -8148851.38146  22754130.383    22754138.8234
  20983314.441   -23188570.358 9 -17770448.59247  20983313.864    20983321.4224
  20761775.716   -22961425.468 9 -17600176.11147  20761774.933    20761782.9214
  24442704.373    -7665148.767 7  -5951390.32344  24442703.950    24442720.6734
  24454536.915    -5402918.479 7  -4198110.83145  24454536.217    24454549.9144
  20200078.428   -26157685.681 9 -20354589.18748  20200078.237    20200084.6984
  24005744.186    -3033250.083 7  -2350761.34645  24005743.899    24005753.3384
  22407610.501   -16246447.129 8 -12631987.90746  22407610.144    22407619.9824
  22652413.094   -13316554.765 8 -10348187.97746  22652412.491    22652421.7764
 00  5  4  2 22 30.0000000  0  9 23 21 15 25 17 29 09 03 31
  22763770.624   -10437441.478 8  -8109378.52046  22763770.030    22763778.4814
  20982971.060   -23190374.795 9 -17771854.61547  20982970.472    20982978.0384
  20749534.752   -23025751.688 9 -17650300.36147  20749533.977    20749541.9824
  24423955.514    -7763672.423 7  -6028161.51644  24423954.990    24423971.5594
  24474339.933    -5298852.209 7  -4117020.35244  24474339.517    24474353.2164
  20201453.254   -26150460.926 9 -20348959.46948  20201453.055    20201459.4944
  24016323.936    -2977652.550 7  -2307438.58945  24016323.656    24016333.1494
  22419634.780   -16183259.852 8 -12582751.15946  22419634.340    22419644.2044
  22654468.764   -13305752.170 8 -10339770.37346  22654468.198    22654477.4874
 00  5  4  2 23  0.0000000  0  9 23 21 15 25 17 29 09 03 31
  22773423.615   -10386714.537 8  -8069851.03846  22773423.037    22773431.5374
  20982655.643   -23192032.135 9 -17773146.02547  20982655.060    20982662.5814
  20737360.633   -23089726.795 9 -17700151.02147  20737359.854    20737367.8794
  24405198.354    -7862239.595 7  -6104966.58845  24405197.674    24405214.3864
  24494178.598    -5194600.249 7  -4035785.14944  24494177.952    24494191.6684
  20202913.659   -26142786.290 9 -20342979.19448  20202913.464    20202919.8844
  24026999.299    -2921552.916 7  -2263724.55545  24026998.875    24027008.5734
  22431728.042   -16119709.516 8 -12533231.51046  22431727.618    22431737.4794
  22656628.254   -13294404.241 8 -10330927.82846  22656627.653    22656636.9724
 00  5  4  2 23 30.0000000  0  8 23 21 15 25 29 09 03 31
  22783090.099   -10335916.584 8  -8030268.20746  22783089.575    22783098.0374
  20982368.441   -23193541.117 9 -17774321.83047  20982367.879    20982375.4114
  20725253.920   -23153347.842 9 -17749725.78847  20725253.116    20725261.1564
  24386433.626    -7960847.032 7  -6181803.02245  24386433.134    24386449.4174
  20204459.544   -26134662.580 9 -20336648.99048  20204459.344    20204465.7384
  24037769.945    -2864952.326 7  -2219620.16945  24037769.668    24037779.1854
  22443890.016   -16055798.416 8 -12483430.74146  22443889.618    22443899.4414
  22658891.400   -13282511.518 8 -10321660.76546  22658890.736    22658900.1394
 00  5  4  2 24  0.0000000  0  8 23 21 15 25 29 09 03 31
  22792770.326   -10285047.062 8  -7990629.61046  22792769.724    22792778.1814
  20982109.519   -23194901.551 9 -17775381.88547  20982108.958    20982116.4944
  20713214.979   -23216612.279 9 -17799022.68347  20713214.180    20713222.1954
  24367661.664    -8059491.939 7  -6258668.64545  24367661.330    24367677.2964
  20206090.691   -26126090.584 9 -20329969.46648  20206090.495    20206096.8884
  24048635.793    -2807851.743 7  -2175126.17245  24048635.546    24048645.1684
  22456120.227   -15991528.581 8 -12433350.44046  22456119.822    22456129.6664
  22661258.035   -13270074.479 8 -10311969.56446  22661257.388    22661266.7764
 00  5  4  2 24 30.0000000  0  8 23 21 15 25 29 09 03 31
  22802464.006   -10234106.477 8  -7950935.65146  22802463.383    22802471.8764
  20981878.809   -23196113.635 9 -17776326.34647  20981878.258    20981885.8204
  20701244.333   -23279518.178 9 -17848040.19847  20701243.538    20701251.5274
  24348882.935    -8158172.582 7  -6335562.10145  24348882.670    24348898.4704
  20207806.742   -26117072.230 9 -20322942.13348  20207806.557    20207812.9744
  24059596.352    -2750253.785 7  -2130244.60445  24059596.038    24059605.5744
  22468418.006   -15926903.568 8 -12382993.38446  22468417.598    22468427.4914
  22663727.967   -13257095.011 8 -10301855.68746  22663727.328    22663736.6814
 00  5  4  2 25  0.0000000  0  8 23 21 15 25 29 09 03 31
  22812171.544   -10183092.556 8  -7911184.54346  22812170.942    22812179.4924
  20981676.853   -23197174.892 9 -17777153.27747  20981676.288    20981683.8624
  20689342.778   -23342060.931 9 -17896774.74847  20689341.987    20689349.9664
  24330098.347    -8256884.258 7  -6412479.71845  24330098.154    24330113.6944
  20209607.986   -26107606.539 9 -20315566.23148  20209607.790    20209614.2064
  24070651.548    -2692157.846 7  -2084974.97145  24070651.345    24070660.8994
  22480783.343   -15861924.084 8 -12332360.11346  22480782.948    22480792.7804
  22666301.262   -13243572.199 8 -10291318.43046  22666300.636    22666309.9644
 00  5  4  2 25 30.0000000  0  8 23 21 15 25 29 09 03 31
  22821892.194   -10132010.054 8  -7871379.98246  22821891.583    22821900.1464
  20981502.639   -23198090.295 9 -17777866.55447  20981502.078    20981509.6274
  20677509.862   -23404243.098 9 -17945228.32247  20677509.068    20677516.9914
  24311307.330    -8355629.564 7  -6489423.53945  24311307.133    24311322.7234
  20211493.148   -26097699.821 9 -20307846.66348  20211492.965    20211499.3544
  24081800.273    -2633570.857 7  -2039322.71845  24081800.017    24081809.5664
  22493214.545   -15796598.115 8 -12281456.84546  22493214.122    22493223.9824
  22668976.824   -13229512.054 8 -10280362.46946  22668976.214    22668985.4984
 00  5  4  2 26  0.0000000  0  8 23 21 15 25 29 09 03 31
  22831626.679   -10080854.635 8  -7831518.62146  22831626.044    22831634.6954
  20981357.011   -23198855.532 9 -17778462.82847  20981356.439    20981363.9884
  20665746.774   -23466058.361 9 -17993396.00547  20665745.972    20665753.8944
  24292511.188    -8454401.820 8  -6566388.39745  24292511.025    24292526.4944
  20213462.745   -26087349.262 9 -20299781.25848  20213462.551    20213468.9324
  24093042.744    -2574490.594 7  -1993286.12045  24093042.554    24093052.2264
  22505711.855   -15730924.295 8 -12230282.53446  22505711.460    22505721.3444
  22671755.229   -13214911.743 8 -10268985.60146  22671754.581    22671763.8324
 00  5  4  2 26 30.0000000  0  8 23 21 15 25 29 09 03 31
  22841375.068   -10029626.303 8  -7791600.43046  22841374.446    22841383.1124
  20981240.116   -23199469.873 9 -17778941.50847  20981239.540    20981247.0624
  20654053.980   -23527503.955 9 -18041275.62247  20654053.176    20654061.1414
  24273710.497    -8553198.618 8  -6643372.38745  24273710.291    24273725.6144
  20215516.544   -26076556.290 9 -20291371.10448  20215516.369    20215522.7194
  24104378.992    -2514918.798 7  -1946866.50245  24104378.766    24104388.3784
  22518274.850   -15664905.647 8 -12178839.51546  22518274.483    22518284.3474
  22674636.079   -13199772.562 8 -10257188.83046  22674635.456    22674644.7184
 00  5  4  2 27  0.0000000  0  8 23 21 15 25 29 09 03 31
  22851137.130    -9978326.297 8  -7751626.39546  22851136.527    22851145.2434
  20981151.587   -23199934.952 9 -17779303.88947  20981151.022    20981158.5444
  20642431.682   -23588579.258 9 -18088866.70547  20642430.873    20642438.8154
  24254905.286    -8652018.755 8  -6720374.56545  24254904.990    24254920.2384
  20217654.004   -26065323.864 9 -20282618.52548  20217653.829    20217660.1514
  24115808.139    -2454858.870 7  -1900066.51645  24115807.823    24115817.4354
  22530902.689   -15598546.383 8 -12127131.08646  22530902.301    22530912.1484
  22677618.923   -13184097.613 8 -10244974.57746  22677618.302    22677627.5764
 00  5  4  2 27 30.0000000  0  8 23 21 15 25 29 09 03 31
  22860913.103    -9926953.069 8  -7711595.30446  22860912.530    22860921.2564
  20981091.783   -23200249.264 9 -17779548.78747  20981091.203    20981098.7104
  20630880.495   -23649280.773 9 -18136166.53047  20630879.699    20630887.6274
  24236096.183    -8750858.966 8  -6797392.39745  24236095.931    24236111.0014
  20219875.088   -26053651.808 9 -20273523.38348  20219874.882    20219881.2114
  24127329.861    -2394311.405 7  -1852886.62745  24127329.558    24127339.2794
  22543595.011   -15531848.201 8 -12075158.56446  22543594.624    22543604.4744
  22680703.758   -13167886.461 8 -10232342.51546  22680703.126    22680712.4804
 00  5  4  2 28  0.0000000  0  8 23 21 15 25 29 09 03 31
  22870702.947    -9875507.254 8  -7671507.63046  22870702.342    22870711.0264
  20981060.482   -23200413.385 9 -17779676.64447  20981059.905    20981067.4514
  20619400.838   -23709606.573 9 -18183173.58547  20619400.057    20619407.9764
  24217283.658    -8849717.136 7  -6874424.23645  24217283.375    24217298.4544
  20222179.404   -26041542.317 9 -20264087.37848  20222179.207    20222185.5394
  24138943.955    -2333278.732 7  -1805328.67745  24138943.637    24138953.4264
  22556351.091   -15464814.740 8 -12022924.77746  22556350.703    22556360.5964
  22683890.328   -13151141.047 8 -10219294.14946  22683889.709    22683899.0284
 00  5  4  2 28 30.0000000  0  8 23 21 15 25 29 09 03 31
  22880506.697    -9823988.120 8  -7631362.84246  22880506.116    22880514.7474
  20981058.043   -23200426.100 9 -17779686.52347  20981057.466    20981065.0464
  20607993.220   -23769553.765 9 -18229885.63347  20607992.444    20608000.3144
  24198468.308    -8948590.114 7  -6951467.59345  24198467.970    24198483.0764
  20224566.854   -26028996.098 9 -20254311.07348  20224566.644    20224572.9704
  24150649.907    -2271762.355 7  -1757393.82445  24150649.674    24150659.5754
  22569170.470   -15397448.523 8 -11970431.70546  22569170.119    22569180.0454
  22687178.371   -13133862.491 8 -10205830.34046  22687177.754    22687186.9804
 00  5  4  2 29  0.0000000  0  8 23 21 15 25 29 09 03 31
  22890324.673    -9772394.327 8  -7591159.87146  22890324.038    22890332.7164
  20981084.713   -23200285.718 9 -17779577.10547  20981084.138    20981091.7144
  20596658.292   -23829118.948 9 -18276300.01247  20596657.521    20596665.3544
  24179650.845    -9047474.277 7  -7028519.68845  24179650.567    24179665.6024
  20227037.321   -26016013.699 9 -20244194.88948  20227037.114    20227043.4204
  24162447.760    -2209763.115 7  -1709082.76145  24162447.627    24162457.4534
  22582052.879   -15329751.114 8 -11917680.56646  22582052.530    22582062.4844
  22690567.711   -13116051.049 8 -10191951.30446  22690567.137    22690576.3514
 00  5  4  2 29 30.0000000  0  8 23 21 15 25 29 09 03 31
  22900156.192    -9720728.884 8  -7550901.07046  22900155.602    22900164.3044
  20981139.906   -23199995.602 9 -17779351.01847  20981139.320    20981146.9024
  20585395.941   -23888302.898 9 -18322417.33047  20585395.157    20585402.9874
  24160831.147    -9146370.566 7  -7105581.25145  24160830.796    24160845.6734
  20229589.919   -26002599.490 9 -20233742.24248  20229589.717    20229596.0084
  24174336.487    -2147286.316 7  -1660399.63745  24174336.325    24174346.2714
  22594997.106   -15261728.860 8 -11864676.30346  22594996.759    22595006.7844
  22694057.738   -13097711.205 8 -10177660.52546  22694057.161    22694066.3134
 00  5  4  2 30  0.0000000  0  8 23 21 15 25 29 09 03 31
  22910002.361    -9668987.015 8  -7510582.71246  22910001.786    22910010.4464
  20981224.541   -23199550.878 9 -17779004.44347  20981223.951    20981231.4974
  20574207.378   -23947099.040 9 -18368232.44647  20574206.593    20574214.3864
  24142010.603    -9245271.633 7  -7182646.56245  24142010.215    24142024.9854
  20232225.299   -25988750.425 9 -20222950.73148  20232225.092    20232231.3824
  24186316.745    -2084328.923 7  -1611341.96845  24186316.591    24186326.5414
  22608003.492   -15193380.214 8 -11811417.69046  22608003.135    22608013.1744
  22697648.853   -13078839.791 8 -10162955.53246  22697648.305    22697657.4534
 00  5  4  2 30 30.0000000  0  8 23 21 15 25 29 09 03 31
  22919862.264    -9617173.039 8  -7470208.16846  22919861.650    22919870.3374
  20981337.696   -23198955.845 9 -17778540.75847  20981337.123    20981344.6724
  20563092.220   -24005509.468 9 -18413747.00847  20563091.408    20563099.2134
  24123188.657    -9344179.490 7  -7259717.17245  24123188.315    24123202.9084
  20234942.270   -25974472.356 9 -20211824.93548  20234942.061    20234948.3634
  24198387.391    -2020897.540 7  -1561914.83245  24198387.345    24198397.0444
  22621070.660   -15124712.488 8 -11757910.45946  22621070.309    22621080.3114
  22701340.093   -13059442.602 8 -10147840.85446  22701339.500    22701348.6214
 00  5  4  2 31  0.0000000  0  8 23 21 15 25 29 09 03 31
  22929736.512    -9565283.205 8  -7429774.52646  22929735.904    22929744.6154
  20981480.287   -23198206.546 9 -17777956.85947  20981479.704    20981487.2494
  20552051.591   -24063528.089 9 -18458956.26747  20552050.791    20552058.6224
  24104366.589    -9443088.161 7  -7336788.45045  24104366.285    24104380.6904
  20237741.249   -25959763.385 9 -20200363.37648  20237741.053    20237747.3644
  24210548.576    -1956990.741 7  -1512117.26045  24210548.466    24210558.2144
  22634198.652   -15055725.051 8 -11704154.08346  22634198.290    22634208.2854
  22705131.670   -13039517.644 8 -10132314.92646  22705131.045    22705140.1434
 00  5  4  2 31 30.0000000  0  8 23 21 15 25 29 09 03 31
  22939624.552    -9513321.055 8  -7389284.52046  22939623.909    22939632.6444
  20981651.535   -23197306.455 9 -17777255.45547  20981650.955    20981658.4864
  20541085.278   -24121156.188 9 -18503861.21747  20541084.473    20541092.2734
  24085544.241    -9541998.834 8  -7413861.30145  24085543.906    24085558.0284
  20240621.328   -25944628.291 9 -20188569.77348  20240621.130    20240627.4314
  24222799.129    -1892614.045 8  -1461953.54245  24222798.845    24222808.6724
  22647386.219   -14986424.260 8 -11650153.54246  22647385.831    22647395.8284
  22709022.685   -13019070.242 8 -10116381.88746  22709022.081    22709031.1544
 00  5  4  2 32  0.0000000  0  8 23 21 15 25 29 09 03 31
  22949527.182    -9461282.636 8  -7348735.08246  22949526.543    22949535.2504
  20981852.327   -23196251.286 9 -17776433.20847  20981851.736    20981859.2404
  20530194.432   -24178387.916 9 -18548457.31447  20530193.633    20530201.3924
  24066722.734    -9640905.447 8  -7490930.99745  24066722.336    24066736.2214
  20243582.901   -25929065.218 9 -20176442.68148  20243582.699    20243588.9644
  24235139.358    -1827765.948 8  -1411422.50745  24235139.022    24235148.7294
  22660633.532   -14916809.671 8 -11595908.48746  22660633.120    22660643.1374
  22713013.500   -12998098.148 8 -10100040.01346  22713012.948    22713022.0304
 00  5  4  2 32 30.0000000  0  8 23 21 15 25 29 09 03 31
  22959444.121    -9409168.801 8  -7308126.89746  22959443.469    22959452.2124
  20982082.489   -23195041.693 9 -17775490.63547  20982081.897    20982089.4114
  20519379.204   -24235222.102 9 -18592743.63547  20519378.390    20519386.1244
  24047902.256    -9739806.321 8  -7567996.22945  24047901.804    24047915.5904
  20246625.473   -25913076.250 9 -20163983.72048  20246625.283    20246631.5464
  24247568.723    -1762449.507 8  -1360526.52145  24247568.448    24247577.8504
  22673939.689   -14846885.230 8 -11541421.98146  22673939.308    22673949.3924
  22717103.734   -12976603.854 8 -10083291.21846  22717103.157    22717112.3064
 00  5  4  2 33  0.0000000  0  9 23 21 15 25 29 09 11 03 31
  22969374.572    -9356983.804 8  -7267463.24946  22969373.913    22969382.6794
  20982341.280   -23193681.653 9 -17774430.83047  20982340.698    20982348.1674
  20508639.263   -24291660.541 9 -18636721.58247  20508638.475    20508646.1864
  24029082.460    -9838703.226 8  -7645058.37645  24029082.064    24029095.6904
  20249747.835   -25896667.821 9 -20151197.90748  20249747.651    20249753.9314
  24260085.962    -1696671.027 8  -1309270.51145  24260085.612    24260095.1164
  24613241.467    -5380614.491 7  -4170579.19245  24613240.948    24613251.3234
  22687303.453   -14776658.168 8 -11486699.68846  22687303.086    22687313.2444
  22721292.199   -12954593.355 8 -10066140.19446  22721291.617    22721300.7674
 00  5  4  2 33 30.0000000  0  9 23 21 15 25 29 09 11 03 31
  22979319.797    -9304721.438 8  -7226739.31146  22979319.129    22979327.8074
  20982629.784   -23192165.275 9 -17773249.21147  20982629.208    20982636.6984
  20497976.132   -24347695.284 9 -18680384.97747  20497975.377    20497983.0734
  24010265.062    -9937587.726 8  -7722110.88845  24010264.660    24010278.1534
  20252950.940   -25879835.253 9 -20138081.59548  20252950.754    20252957.0314
  24272691.834    -1630426.688 8  -1257651.47945  24272691.505    24272701.0324
  24593697.558    -5483318.180 7  -4250607.97644  24593697.188    24593707.5444
  22700725.304   -14706125.982 8 -11431739.62446  22700724.915    22700735.1554
  22725579.596   -12932062.539 8 -10048583.73746  22725579.039    22725588.2304
 00  5  4  2 34  0.0000000  0  9 23 21 15 25 29 09 11 03 31
  22989279.751    -9252381.510 8  -7185954.90946  22989279.103    22989287.7424
  20982948.140   -23190492.225 9 -17771945.49247  20982947.558    20982955.0594
  20487390.335   -24403323.900 9 -18723731.88347  20487389.555    20487397.2584
  23991450.389   -10036457.553 8  -7799151.92545  23991450.056    23991463.4654
  20256234.488   -25862580.030 9 -20124635.93348  20256234.301    20256240.5684
  24285385.907    -1563718.863 8  -1205671.29045  24285385.517    24285394.9814
  24574163.344    -5585970.199 7  -4330596.52644  24574163.081    24574173.3194
  22714204.836   -14635291.424 8 -11376543.94446  22714204.384    22714214.6284
  22729965.756   -12909013.040 8 -10030623.08446  22729965.193    22729974.4084
 00  5  4  2 34 30.0000000  0  9 23 21 15 25 29 09 11 03 31
  22999254.298    -9199964.900 8  -7145110.78746  22999253.658    22999262.3224
  20983296.114   -23188663.345 9 -17770520.37447  20983295.527    20983303.0314
  20476882.034   -24458545.079 9 -18766761.31747  20476881.260    20476888.9474
  23972638.788   -10135310.877 7  -7876180.13545  23972638.478    23972651.9234
  20259597.929   -25844905.020 9 -20110863.17648  20259597.742    20259604.0064
  24298167.628    -1496550.353 8  -1153332.13745  24298167.249    24298176.7404
  24554639.255    -5688569.635 7  -4410544.06544  24554638.788    24554649.1564
  22727740.976   -14564158.721 8 -11321115.94646  22727740.533    22727750.8334
  22734450.189   -12885447.298 8 -10012260.18346  22734449.618    22734458.7894
 00  5  4  2 35  0.0000000  0  9 23 21 15 25 29 09 11 03 31
  23009243.552    -9147470.671 8  -7104206.18946  23009242.923    23009251.6784
  20983674.071   -23186677.033 9 -17768972.56947  20983673.505    20983681.0184
  20466451.856   -24513355.720 9 -18809470.85447  20466451.091    20466458.7664
  23953831.099   -10234144.262 8  -7953192.78745  23953830.798    23953844.1324
  20263041.161   -25826810.609 9 -20096763.60948  20263040.979    20263047.2094
  24311036.724    -1428922.525 8  -1100635.06545  24311036.460    24311045.8484
  24535125.752    -5791113.529 7  -4490448.29645  24535125.256    24535135.6924
  22741333.470   -14492729.870 8 -11265457.19446  22741333.072    22741343.4034
  22739032.650   -12861366.214 8  -9993495.71546  22739032.056    22739041.2574
 00  5  4  2 35 30.0000000  0  9 23 21 15 25 29 09 11 03 31
  23019247.325    -9094900.482 8  -7063242.37246  23019246.697    23019255.4024
  20984081.641   -23184535.126 9 -17767303.51647  20984081.063    20984088.5614
  20456099.802   -24567755.927 9 -18851860.57347  20456099.017    20456106.7144
  23935027.281   -10332957.649 8  -8030189.86645  23935026.956    23935040.2034
  20266563.516   -25808300.438 9 -20082340.06848  20266563.320    20266569.5474
  24323992.455    -1360839.627 8  -1047583.41045  24323992.101    24324001.5064
  24515622.775    -5893601.907 7  -4570309.29745  24515622.368    24515632.8084
  22754981.431   -14421009.804 8 -11209571.50846  22754981.014    22754991.3814
  22743712.544   -12836773.277 8  -9974332.39546  22743711.966    22743721.1134
 00  5  4  2 36  0.0000000  0  9 23 21 15 25 29 09 11 03 31
  23029266.036    -9042252.240 8  -7022217.73246  23029265.401    23029273.9304
  20984519.191   -23182235.622 9 -17765511.66247  20984518.610    20984526.1144
  20445826.635   -24621741.470 9 -18893927.17847  20445825.839    20445833.5174
  23916228.190   -10431746.564 8  -8107167.88245  23916227.870    23916241.0744
  20270165.013   -25789374.351 9 -20067592.43748  20270164.807    20270171.0304
  24337034.679    -1292302.067 8   -994177.47145  24337034.312    24337043.7214
  24496131.099    -5996031.120 7  -4650124.16645  24496130.622    24496141.1364
  22768684.486   -14348999.980 8 -11153460.03146  22768684.058    22768694.4664
  22748489.847   -12811668.524 8  -9954770.25446  22748489.239    22748498.3944
 00  5  4  2 36 30.0000000  0  9 23 21 15 25 29 09 11 03 31
  23039299.374    -8989526.420 8  -6981132.66646  23039298.716    23039307.2554
  20984986.740   -23179778.394 9 -17763596.92047  20984986.176    20984993.6544
  20435632.811   -24675310.262 9 -18935669.05047  20435632.026    20435639.6894
  23897434.107   -10530508.787 7  -8184125.09345  23897433.761    23897446.9974
  20273845.238   -25770034.501 9 -20052522.40048  20273845.059    20273851.2554
  24350162.945    -1223312.533 8   -940419.36345  24350162.613    24350172.0174
  24476651.032    -6098399.603 8  -4729891.71345  24476650.597    24476660.9574
  22782441.916   -14276704.056 8 -11097125.64646  22782441.494    22782451.9804
  22753364.081   -12786054.158 8  -9934811.02346  22753363.494    22753372.6664
 00  5  4  2 37  0.0000000  0  9 23 21 15 25 29 09 11 03 31
  23049347.537    -8936722.762 8  -6939986.93346  23049346.879    23049355.3584
  20985484.242   -23177163.913 9 -17761559.62847  20985483.672    20985491.1504
  20425518.607   -24728460.518 9 -18977084.76947  20425517.828    20425525.4514
  23878645.403   -10629242.095 7  -8261059.76245  23878645.128    23878658.3664
  20277603.884   -25750282.484 9 -20037131.19248  20277603.677    20277609.8874
  24363376.796    -1153873.150 7   -886310.74345  24363376.425    24363385.8444
  24457182.784    -6200705.683 7  -4809610.63245  24457182.325    24457192.7924
  22796253.238   -14204125.159 8 -11040570.75046  22796252.813    22796263.3554
  22758334.902   -12759932.333 8  -9914456.36446  22758334.343    22758343.4624
 00  5  4  2 37 30.0000000  0  9 23 21 15 25 29 09 11 03 31
  23059410.726    -8883840.564 8  -6898780.00646  23059410.063    23059418.4784
  20986012.065   -23174390.133 9 -17759398.21247  20986011.507    20986018.9604
  20415484.571   -24781189.383 9 -19018172.14247  20415483.795    20415491.4384
  23859862.896   -10727943.225 7  -8337969.37245  23859862.591    23859875.7784
  20281440.726   -25730119.503 9 -20021419.75648  20281440.521    20281446.7414
  24376675.941    -1083985.537 7   -831852.82945  24376675.648    24376685.0104
  24437726.922    -6302946.804 7  -4889278.92445  24437726.344    24437736.8294
  22810117.969   -14131265.688 8 -10983797.22346  22810117.554    22810128.0824
  22763402.083   -12733304.067 8  -9893707.08446  22763401.525    22763410.7084
 00  5  4  2 38  0.0000000  0  9 23 21 15 25 29 09 11 03 31
  23069488.740    -8830880.410 8  -6857512.31546  23069488.086    23069496.4824
  20986569.930   -23171458.312 9 -17757113.65347  20986569.380    20986576.8324
  20405531.036   -24833495.339 9 -19058929.97747  20405530.266    20405537.8804
  23841086.801   -10826610.717 8  -8414852.78345  23841086.579    23841099.6014
  20285355.375   -25709547.778 9 -20005389.81948  20285355.181    20285361.3934
  24390059.742    -1013652.916 7   -777048.15945  24390059.424    24390068.9214
  24418283.682    -6405121.684 7  -4968895.58745  24418283.025    24418293.4564
  22824035.406   -14058129.419 8 -10926808.01846  22824035.029    22824045.5104
  22768565.209   -12706171.804 8  -9872565.07846  22768564.630    22768573.8504
 00  5  4  2 38 30.0000000  0  9 23 21 15 25 29 09 11 03 31
  23079581.851    -8777840.345 8  -6816182.38046  23079581.189    23079589.6924
  20987158.348   -23168366.036 9 -17754704.06047  20987157.813    20987165.2374
  20395658.787   -24885374.367 9 -19099355.14647  20395658.000    20395665.5624
  23822318.091   -10925239.819 8  -8491706.28645  23822317.863    23822330.7294
  20289347.802   -25688567.327 9 -19989041.39348  20289347.607    20289353.8214
  24403528.148     -942875.569 7   -721896.94945  24403527.879    24403537.3214
  24398853.729    -6507226.439 7  -5048457.61145  24398852.946    24398863.3294
  22838005.303   -13984717.682 8 -10869604.15346  22838004.899    22838015.3934
  22773824.188   -12678535.662 8  -9851030.45046  22773823.590    22773832.8374
 00  5  4  2 39  0.0000000  0  9 23 21 15 25 29 09 11 03 31
  23089689.676    -8724723.036 8  -6774792.24946  23089689.071    23089697.5634
  20987776.802   -23165115.957 9 -17752171.50547  20987776.245    20987783.6524
  20385867.520   -24936827.532 9 -19139448.47347  20385866.728    20385874.2864
  23803556.481   -11023831.265 8  -8568530.45945  23803556.321    23803568.9984
  20293417.164   -25667182.620 9 -19972377.96448  20293416.960    20293423.1654
  24417080.243     -871658.956 7   -666403.45345  24417079.976    24417089.3574
  24379436.785    -6609262.317 7  -5127965.95245  24379436.078    24379446.5764
  22852026.385   -13911036.695 8 -10812190.48146  22852025.991    22852036.5374
  22779178.193   -12650400.527 8  -9829106.97946  22779177.574    22779186.7874
 00  5  4  2 39 30.0000000  0  9 23 21 15 25 29 09 11 03 31
  23099812.973    -8671524.481 8  -6733338.81546  23099812.363    23099820.9324
  20988426.145   -23161703.525 9 -17749512.44147  20988425.585    20988432.9944
  20376158.523   -24987848.505 9 -19179205.02347  20376157.740    20376165.2884
  23784803.263   -11122378.520 8  -8645320.19745  23784803.134    23784815.5774
  20297563.794   -25645391.712 9 -19955398.01248  20297563.589    20297569.7934
  24430716.219     -800001.448 7   -610566.39445  24430715.977    24430725.3424
  24360034.052    -6711223.314 7  -5207415.94245  24360033.240    24360044.0824
  22866098.866   -13837085.514 8 -10754566.26046  22866098.459    22866109.0964
  22784627.492   -12621764.476 8  -9806793.18546  22784626.901    22784636.0584
 00  5  4  2 40  0.0000000  0  9 23 21 15 25 29 09 11 03 31
  23109951.308    -8618247.048 8  -6691823.91346  23109950.635    23109959.2234
  20989105.894   -23158131.335 9 -17746728.89247  20989105.325    20989112.7414
  20366531.638   -25038437.745 9 -19218625.15847  20366530.844    20366538.4104
  23766058.527   -11220881.554 8  -8722075.47745  23766058.331    23766070.6754
  20301786.975   -25623198.505 9 -19938104.58848  20301786.786    20301793.0024
  24444435.096     -727907.967 7   -554389.61745  24444434.771    24444444.2744
  24340645.429    -6813110.053 7  -5286808.03945  24340644.584    24340655.2524
  22880221.716   -13762869.891 8 -10696736.00046  22880221.282    22880231.8994
  22790171.327   -12592631.847 8  -9784092.45446  22790170.683    22790179.8184
 00  5  4  2 40 30.0000000  0  9 23 21 15 25 29 09 11 03 31
  23120104.985    -8564888.879 8  -6650246.09746  23120104.325    23120112.9364
  20989816.313   -23154397.784 9 -17743819.60847  20989815.763    20989823.1864
  20356987.643   -25088591.628 9 -19257706.06147  20356986.851    20356994.3814
  23747322.975   -11319336.375 8  -8798793.19345  23747322.771    23747334.9034
  20306086.635   -25600603.583 9 -19920498.14448  20306086.469    20306092.6554
  24458236.726     -655379.350 8   -497873.76245  24458236.435    24458245.8854
  24321271.582    -6914919.141 7  -5366139.62345  24321270.835    24321281.4634
  22894394.537   -13688391.545 8 -10638701.00246  22894394.121    22894404.7164
  22795809.426   -12563003.226 8  -9761005.25046  22795808.820    22795817.9994
 00  5  4  2 41  0.0000000  0  9 23 21 15 25 29 09 11 03 31
  23130273.786    -8511451.512 8  -6608606.57346  23130273.125    23130281.7814
  20990557.324   -23150503.633 9 -17740785.18147  20990556.780    20990564.2114
  20347526.622   -25138309.290 9 -19296447.04947  20347525.841    20347533.3614
  23728596.750   -11417742.169 8  -8875472.71445  23728596.486    23728608.4914
  20310462.180   -25577609.943 9 -19902581.00548  20310461.990    20310468.1614
  24472120.619     -582419.212 8   -441021.65545  24472120.243    24472129.6484
  24301912.857    -7016649.859 7  -5445410.17545  24301912.247    24301922.6704
  22908616.426   -13613655.073 8 -10580464.86946  22908616.005    22908626.6384
  22801541.379   -12532881.734 8  -9737533.97946  22801540.772    22801549.8894
 00  5  4  2 41 30.0000000  0  9 23 21 15 25 29 09 11 03 31
  23140458.203    -8457932.030 8  -6566903.05446  23140457.504    23140466.1614
  20991329.461   -23146445.894 9 -17737623.28647  20991328.895    20991336.3114
  20338149.493   -25187586.247 9 -19334844.63447  20338148.723    20338156.2464
  23709880.777   -11516093.830 8  -8952110.04445  23709880.482    23709892.4514
  20314913.733   -25554216.721 9 -19884352.49748  20314913.548    20314919.7274
  24486086.673     -509027.423 8   -383833.18145  24486086.335    24486095.6204
  24282569.897    -7118297.705 7  -5524616.16945  24282569.207    24282579.7094
  22922887.394   -13538660.917 8 -10522027.94346  22922887.005    22922897.6124
  22807367.285   -12502266.841 8  -9713678.25046  22807366.629    22807375.6684
 00  5  4  2 42  0.0000000  0  9 23 21 15 25 29 09 11 03 31
  23150657.914    -8404331.866 8  -6525136.68645  23150657.284    23150665.7884
  20992132.472   -23142226.111 9 -17734335.12247  20992131.919    20992139.2894
  20328856.344   -25236421.945 9 -19372898.38147  20328855.556    20328863.0344
  23691175.291   -11614390.135 8  -9028704.26845  23691175.111    23691186.8584
  20319440.680   -25530427.402 9 -19865815.34548  20319440.494    20319446.6784
  24500133.987     -435207.996 7   -326311.49145  24500133.600    24500142.9904
  24263242.744    -7219862.293 8  -5603757.30645  24263242.197    24263252.4194
  22937206.521   -13463413.796 8 -10463393.89346  22937206.152    22937216.7324
  22813286.273   -12471162.514 8  -9689441.13746  22813285.591    22813294.5974
 00  5  4  2 42 30.0000000  0  9 23 21 15 25 29 09 11 03 31
  23160873.072    -8350651.125 8  -6483307.50545  23160872.452    23160880.7864
  20992966.327   -23137843.942 9 -17730920.42447  20992965.772    20992973.1874
  20319647.520   -25284814.406 9 -19410606.73647  20319646.731    20319654.2174
  23672480.762   -11712628.873 8  -9105253.61145  23672480.614    23672492.3184
  20324042.617   -25506243.861 9 -19846971.00948  20324042.448    20324048.6434
  24514262.198     -360963.507 7   -268458.58044  24514261.740    24514271.1874
  24243931.720    -7321341.919 8  -5682832.23445  24243931.176    24243941.4004
  22951573.101   -13387917.229 8 -10404565.47146  22951572.717    22951583.4334
  22819297.967   -12439570.738 8  -9664824.20046  22819297.339    22819306.3004
 00  5  4  2 43  0.0000000  0  8 23 21 15 25 29 11 03 31
  23171104.513    -8296884.934 8  -6441411.72645  23171103.868    23171112.0734
  20993832.024   -23133294.615 9 -17727375.47947  20993831.463    20993838.8644
  20310524.283   -25332757.161 9 -19447964.68347  20310523.487    20310530.9724
  23653798.544   -11810803.230 8  -9181752.80645  23653798.387    23653810.1084
  20328720.120   -25481663.313 9 -19827817.32348  20328719.940    20328726.1414
  24224638.067    -7422730.230 8  -5761835.99845  24224637.553    24224647.7934
  22965987.459   -13312169.886 8 -10345541.64746  22965987.048    22965997.7454
  22825402.955   -12407489.116 8  -9639825.57046  22825402.342    22825411.2594
 00  5  4  2 43 30.0000000  0  8 23 21 15 25 29 11 03 31
  23181350.820    -8243039.609 8  -6399454.32145  23181350.166    23181358.5424
  20994728.429   -23128583.922 9 -17723704.78947  20994727.882    20994735.2274
  20301485.793   -25380254.464 9 -19484975.51448  20301485.005    20301492.4954
  23635127.950   -11908916.796 8  -9258204.62145  23635127.742    23635139.4994
  20333471.565   -25456694.138 9 -19808360.80848  20333471.391    20333477.5904
  24205361.007    -7524031.393 8  -5840771.85545  24205360.568    24205370.7164
  22980447.660   -13236181.348 8 -10286329.87846  22980447.257    22980457.9644
  22831599.561   -12374925.949 8  -9614451.70346  22831598.953    22831607.8864
 00  5  4  2 44  0.0000000  0  8 23 21 15 25 29 11 03 31
  23191612.869    -8189111.310 8  -6357432.26445  23191612.231    23191620.8564
  20995656.257   -23123708.239 9 -17719905.52847  20995655.690    20995663.0274
  20292533.145   -25427300.749 9 -19521634.90148  20292532.352    20292539.8284
  23616470.007   -12006963.649 8  -9334604.46145  23616469.899    23616481.4924
  20338297.375   -25431334.261 9 -19788599.84348  20338297.210    20338303.3824
  24186101.629    -7625239.781 8  -5919635.43445  24186101.190    24186111.3004
  22994953.786   -13159951.220 8 -10226929.86046  22994953.385    22994964.2194
  22837888.068   -12341879.832 8  -9588701.52246  22837887.459    22837896.3964
 00  5  4  2 44 30.0000000  0  8 23 21 15 25 29 11 03 31
  23201890.805    -8135099.912 8  -6315345.44145  23201890.216    23201898.8624
  20996615.513   -23118666.981 9 -17715977.25347  20996614.966    20996622.2754
  20283666.738   -25473893.861 9 -19557941.16948  20283665.960    20283673.4204
  23597825.427   -12104941.151 8  -9410950.27545  23597825.246    23597836.7304
  20343197.172   -25405585.608 9 -19768535.93248  20343196.998    20343203.1594
  24166860.313    -7726353.559 8  -5998425.31545  24166859.961    24166869.8284
  23009505.332   -13083482.624 8 -10167344.02846  23009504.961    23009515.8284
  22844267.993   -12308353.012 8  -9562576.75646  22844267.403    22844276.3414
 00  5  4  2 45  0.0000000  0  8 23 21 15 25 29 11 03 31
  23212184.424    -8081006.725 8  -6273194.87145  23212183.830    23212192.4034
  20997606.181   -23113460.984 9 -17711920.61347  20997605.630    20997612.9254
  20274886.618   -25520033.411 9 -19593894.02148  20274885.849    20274893.2944
  23579193.993   -12202848.725 8  -9487241.59845  23579193.724    23579205.2494
  20348170.266   -25379451.748 9 -19748171.86148  20348170.085    20348176.2414
  24147637.132    -7827372.196 8  -6077141.04245  24147636.709    24147646.5714
  23024101.291   -13006780.464 8 -10107576.19746  23024100.947    23024111.9034
  22850738.667   -12274349.454 8  -9536080.51346  22850738.083    22850747.0514
 00  5  4  2 45 30.0000000  0  8 23 21 15 25 29 11 03 31
  23222494.050    -8026829.370 8  -6230978.72046  23222493.453    23222501.9454
  20998628.577   -23108088.254 9 -17707734.05647  20998628.012    20998635.3084
  20266193.673   -25565715.014 9 -19629490.02748  20266192.897    20266200.3344
  23560576.831   -12300681.145 8  -9563474.36245  23560576.603    23560588.0604
  20353216.803   -25352932.074 9 -19727507.16248  20353216.621    20353222.7564
  24128432.845    -7928291.202 7  -6155779.12845  24128432.324    24128442.0214
  23038741.579   -12929845.506 8 -10047626.96146  23038741.232    23038752.1944
  22857300.124   -12239868.742 8  -9509212.47646  22857299.561    22857308.5374
 00  5  4  2 46  0.0000000  0  8 23 21 15 25 29 11 03 31
  23232819.399    -7972568.946 8  -6188697.84445  23232818.804    23232827.3484
  20999682.589   -23102549.209 9 -17703417.88447  20999682.033    20999689.3214
  20257588.014   -25610937.835 9 -19664728.54148  20257587.244    20257594.6474
  23541974.210   -12398437.084 8  -9639647.53645  23541973.961    23541985.4574
  20358336.174   -25326029.595 9 -19706544.17248  20358335.977    20358342.1364
  24109247.518    -8029110.026 7  -6234339.14945  24109246.985    24109256.7854
  23053425.387   -12852682.256 8  -9987499.82746  23053425.026    23053435.9644
  22863951.754   -12204914.256 8  -9481975.25346  22863951.186    22863960.2064
 00  5  4  2 46 30.0000000  0  8 23 21 15 25 29 11 03 31
  23243161.131    -7918222.391 8  -6146349.85145  23243160.545    23243169.1064
  21000768.796   -23096841.060 9 -17698969.95647  21000768.231    21000775.5034
  20249070.586   -25655697.142 9 -19699605.87448  20249069.811    20249077.2014
  23523387.082   -12496111.430 8  -9715757.12345  23523386.898    23523398.2934
  20363528.516   -25298743.474 9 -19685282.23648  20363528.323    20363534.4574
  24090082.278    -8129823.656 7  -6312817.21245  24090081.834    24090091.3664
  23068152.487   -12775291.091 8  -9927195.09846  23068152.081    23068163.0424
  22870693.596   -12169485.484 8  -9454368.45246  22870693.059    22870702.1624
 00  5  4  2 47  0.0000000  0  8 23 21 15 25 29 11 03 31
  23253519.048    -7863791.276 8  -6103935.96746  23253518.484    23253527.0404
  21001886.970   -23090965.072 9 -17694391.23847  21001886.397    21001893.6484
  20240641.368   -25699992.834 9 -19734121.95048  20240640.566    20240647.9574
  23504815.698   -12593703.312 8  -9791802.44245  23504815.555    23504826.8394
  20368793.263   -25271077.105 9 -19663724.00348  20368793.078    20368799.2034
  24070937.083    -8230431.647 7  -6391212.97845  24070936.677    24070946.0314
  23082922.030   -12697676.928 8  -9866716.60546  23082921.636    23082932.5934
  22877525.064   -12133586.260 8  -9426395.06046  22877524.480    22877533.5804
 00  5  4  2 47 30.0000000  0  8 23 21 15 25 29 11 03 31
  23263893.037    -7809276.005 8  -6061456.49146  23263892.373    23263900.9344
  21003037.028   -23084921.262 9 -17689681.74347  21003036.470    21003043.7164
  20232300.610   -25743823.422 9 -19768275.60248  20232299.820    20232307.2064
  23486260.365   -12691211.102 8  -9867782.24945  23486260.172    23486271.4404
  20374129.865   -25243033.032 9 -19641871.45748  20374129.683    20374135.7804
  24051812.167    -8330932.849 7  -6469525.49445  24051811.657    24051821.2624
  23097733.320   -12619843.538 8  -9806067.29546  23097732.882    23097743.8424
  22884445.481   -12097219.372 8  -9398057.25246  22884444.889    22884454.0104
 00  5  4  2 48  0.0000000  0  8 23 21 15 25 29 11 03 31
  23274283.317    -7754674.700 8  -6018909.98846  23274282.699    23274291.1924
  21004219.424   -23078707.570 9 -17684839.88547  21004218.862    21004226.1364
  20224049.109   -25787185.213 9 -19802063.96848  20224048.323    20224055.6934
  23467721.833   -12788630.419 8  -9943693.10945  23467721.645    23467732.7624
  20379538.262   -25214611.600 9 -19619724.86748  20379538.059    20379544.1574
  24032708.233    -8431323.483 7  -6547751.84445  24032707.734    24032717.2424
  23112585.963   -12541792.557 8  -9745248.44346  23112585.560    23112596.5624
  22891454.723   -12060385.390 8  -9369355.47846  22891454.126    22891463.3574
 00  5  4  2 48 30.0000000  0  8 23 21 15 25 29 11 03 31
  23284689.689    -7699988.695 8  -5976297.48346  23284689.086    23284697.5824
  21005433.870   -23072325.409 9 -17679866.74647  21005433.321    21005440.5984
  20215886.839   -25830077.898 9 -19835486.79348  20215886.053    20215893.4144
  23449200.517   -12885960.092 8 -10019534.13445  23449200.257    23449211.2494
  20385017.862   -25185816.036 9 -19597286.73948  20385017.676    20385023.7754
  24013625.569    -8531602.952 7  -6625891.58445  24013625.163    24013634.7354
  23127479.068   -12463528.920 8  -9684263.88246  23127478.659    23127489.7494
  22898552.054   -12023088.426 8  -9340292.94046  22898551.492    22898560.7754
 00  5  4  2 49  0.0000000  0  8 23 21 15 25 29 11 03 31
  23295112.463    -7645216.771 8  -5933618.02646  23295111.870    23295120.2564
  21006680.643   -23065773.464 9 -17674761.31247  21006680.088    21006687.3554
  20207814.433   -25872498.554 9 -19868541.80248  20207813.642    20207820.9694
  23430696.736   -12983196.965 8 -10095302.82745  23430696.467    23430707.3774
  20390568.417   -25156647.466 9 -19574557.95948  20390568.233    20390574.3574
  23994564.721    -8631768.277 8  -6703942.38445  23994564.219    23994573.7814
  23142412.283   -12385054.617 8  -9623115.17246  23142411.871    23142422.9914
  22905737.280   -11985329.897 8  -9310870.72646  22905736.718    22905746.0684
 00  5  4  2 49 30.0000000  0  8 23 21 15 25 29 11 03 31
  23305551.906    -7590357.222 8  -5890870.29346  23305551.283    23305559.6644
  21007960.119   -23059049.710 9 -17669522.00547  21007959.562    21007966.8044
  20199832.468   -25914443.785 9 -19901226.35448  20199831.678    20199839.0004
  23412211.407   -13080336.820 8 -10170995.91645  23412211.174    23412221.9994
  20396189.908   -25127106.041 9 -19551538.64748  20396189.712    20396195.8614
  23975526.245    -8731816.010 8  -6781901.55945  23975525.779    23975535.2264
  23157385.218   -12306371.685 8  -9561803.90246  23157384.796    23157395.9234
  22913010.231   -11947110.306 8  -9281089.24746  22913009.643    22913019.0234
 00  5  4  2 50  0.0000000  0  8 23 21 15 25 29 11 03 31
  23316007.897    -7535410.204 8  -5848054.40146  23316007.244    23316015.7284
  21009272.431   -23052153.621 9 -17664148.40047  21009271.874    21009279.0794
  20191941.380   -25955911.699 9 -19933538.97348  20191940.600    20191947.8984
  23393745.055   -13177377.389 8 -10246611.64946  23393744.728    23393755.5504
  20401881.990   -25097193.942 9 -19528230.50048  20401881.791    20401887.9334
  23956510.488    -8831744.101 8  -6859767.50545  23956510.053    23956519.5294
  23172397.267   -12227483.311 8  -9500332.52646  23172396.843    23172407.8954
  22920370.487   -11908431.938 8  -9250950.28446  22920369.898    22920379.3114
 00  5  4  2 50 30.0000000  0  8 23 21 15 25 29 11 03 31
  23326480.024    -7480378.544 8  -5805172.55446  23326479.394    23326487.9354
  21010616.978   -23045087.699 9 -17658642.47047  21010616.413    21010623.6334
  20184140.884   -25996903.470 9 -19965480.56948  20184140.091    20184147.3884
  23375297.390   -13274319.314 8 -10322150.51246  23375297.099    23375307.7944
  20407643.638   -25066916.191 9 -19504637.42748  20407643.442    20407649.5554
  23937517.254    -8931553.564 8  -6937541.03745  23937516.822    23937526.3514
  23187447.195   -12148395.681 8  -9438705.89046  23187446.804    23187457.7984
  22927817.017   -11869300.469 8  -9220458.24446  22927816.433    22927825.8164
 00  5  4  2 51  0.0000000  0  8 23 21 15 25 29 11 03 31
  23336969.330    -7425257.100 8  -5762220.74446  23336968.702    23336977.2324
  21011994.815   -23037847.077 9 -17653000.40747  21011994.259    21012001.4584
  20176432.236   -26037412.526 9 -19997046.02848  20176431.447    20176438.7264
  23356869.995   -13371154.852 8 -10397606.48146  23356869.696    23356880.3574
  20413475.479   -25036269.499 9 -19480756.86748  20413475.275    20413481.3844
  23918548.011    -9031237.239 8  -7015216.53745  23918547.644    23918557.0914
  23202535.383   -12069107.126 8  -9376922.69945  23202535.009    23202545.9624
  22935350.186   -11829713.322 8  -9189611.12846  22935349.588    22935358.9854
 00  5  4  2 51 30.0000000  0  8 23 21 15 25 29 11 03 31
  23347475.233    -7370048.052 8  -5719200.68346  23347474.600    23347483.1914
  21013405.459   -23030433.745 9 -17647223.76247  21013404.922    21013412.1284
  20168815.343   -26077439.266 9 -20028235.65748  20168814.570    20168821.8214
  23338462.809   -13467884.264 8 -10472979.75546  23338462.540    23338473.0734
  20419376.613   -25005258.567 9 -19456592.47948  20419376.420    20419382.5434
  23899602.644    -9130795.580 8  -7092794.41445  23899602.320    23899611.7204
  23217660.671   -11989623.552 8  -9314987.54145  23217660.288    23217671.2914
  22942969.153   -11789675.399 8  -9158412.75646  22942968.553    22942977.9804
 00  5  4  2 52  0.0000000  0  8 23 21 15 25 29 11 03 31
  23357997.807    -7314751.044 8  -5676112.10346  23357997.235    23358005.8134
  21014849.205   -23022846.717 9 -17641311.77347  21014848.673    21014855.8594
  20161290.708   -26116981.462 9 -20059047.72048  20161289.949    20161297.1654
  23320076.393   -13564504.476 8 -10548267.93946  23320076.117    23320086.5104
  20425346.783   -24973885.036 9 -19432145.55948  20425346.597    20425352.7074
  23880681.542    -9230226.451 8  -7170272.91845  23880681.089    23880690.5154
  23232822.492   -11909947.760 8  -9252902.61345  23232822.141    23232833.1464
  22950673.441   -11749188.997 8  -9126864.91346  22950672.850    22950682.2854
 00  5  4  2 52 30.0000000  0  8 23 21 15 25 29 11 03 31
  23368537.117    -7259366.125 8  -5632954.99746  23368536.548    23368545.1464
  21016326.015   -23015086.134 9 -17635264.54847  21016325.451    21016332.6604
  20153858.553   -26156037.531 9 -20089480.98848  20153857.765    20153864.9754
  23301711.213   -13661013.339 8 -10623469.37146  23301710.892    23301721.2684
  20431385.564   -24942151.019 9 -19407417.73948  20431385.386    20431391.4854
  23861785.106    -9329527.706 8  -7247650.43145  23861784.611    23861794.0734
  23248020.293   -11830083.310 8  -9190670.68045  23248019.910    23248030.9034
  22958462.641   -11708256.630 8  -9094969.57846  22958462.038    22958471.4914
 00  5  4  2 53  0.0000000  0  8 23 21 15 25 29 11 03 31
  23379093.779    -7203890.108 8  -5589726.91146  23379093.180    23379101.7784
  21017836.449   -23007148.747 9 -17629079.55447  21017835.885    21017843.0644
  20146519.835   -26194602.689 9 -20119531.72548  20146519.045    20146526.2424
  23283368.174   -13757405.546 8 -10698579.88446  23283367.860    23283378.1994
  20437493.165   -24910055.376 9 -19382408.12848  20437492.978    20437499.0734
  23842914.338    -9428694.443 8  -7324923.15645  23842913.794    23842923.2594
  23263253.932   -11750030.604 8  -9128292.06345  23263253.535    23263264.5574
  22966336.779   -11666877.763 8  -9062726.32346  22966336.196    22966345.6424
 00  5  4  2 53 30.0000000  0  8 23 21 15 25 29 11 03 31
  23389666.977    -7148327.788 8  -5546431.55146  23389666.381    23389674.8464
  21019379.677   -22999038.940 9 -17622760.20647  21019379.117    21019386.2754
  20139273.884   -26232680.201 9 -20149202.47748  20139273.091    20139280.2874
  23265046.823   -13853683.512 8 -10773601.39846  23265046.514    23265056.7464
  20443668.180   -24877605.175 9 -19357122.24248  20443668.013    20443674.1064
  23824068.594    -9527729.474 8  -7402093.23145  23824068.060    23824077.4214
  23278521.830   -11669797.861 8  -9065773.14146  23278521.414    23278532.4284
  22974294.498   -11625059.841 8  -9030140.94546  22974293.867    22974303.3164
 00  5  4  2 54  0.0000000  0  8 23 21 15 25 29 11 03 31
  23400257.683    -7092673.755 8  -5503064.74446  23400257.069    23400265.4784
  21020956.700   -22990751.587 9 -17616302.50547  21020956.135    21020963.2704
  20132122.041   -26270263.098 9 -20178487.82048  20132121.263    20132128.4814
  23246748.729   -13949839.270 8 -10848527.69446  23246748.411    23246758.5974
  20449911.302   -24844797.232 9 -19331557.59248  20449911.141    20449917.2124
  23805249.248    -9626625.482 8  -7479154.94645  23805248.700    23805258.1834
  23293824.310   -11589383.243 8  -9003112.51246  23293823.901    23293834.9484
  22982336.251   -11582800.332 8  -8997211.47946  22982335.600    22982345.0474
 00  5  4  2 54 30.0000000  0  8 23 21 15 25 29 11 03 31
  23410865.441    -7036929.709 8  -5459627.78546  23410864.776    23410873.2524
  21022567.343   -22982287.413 9 -17609707.02747  21022566.760    21022573.9054
  20125064.272   -26307351.670 9 -20207387.97048  20125063.489    20125070.7234
  23228473.999   -14045872.385 8 -10923358.43346  23228473.693    23228483.7534
  20456221.744   -24811635.587 9 -19305717.33448  20456221.563    20456227.6584
  23786456.344    -9725382.333 8  -7556108.21145  23786455.839    23786465.3454
  23309160.447   -11508791.886 8  -8940314.18246  23309160.014    23309171.1544
  22990461.149   -11540103.566 8  -8963941.28946  22990460.505    22990470.0134
 00  5  4  2 55  0.0000000  0  8 23 21 15 25 29 11 03 31
  23421490.576    -6981093.906 8  -5416119.36146  23421489.940    23421498.4584
  21024212.019   -22973644.502 9 -17602972.26947  21024211.451    21024218.5804
  20118101.294   -26343942.238 9 -20235900.06948  20118100.519    20118107.7404
  23210223.429   -14141778.679 8 -10998090.35346  23210223.127    23210233.1274
  20462599.491   -24778120.196 9 -19279601.43548  20462599.307    20462605.3924
  23767690.666    -9823996.220 8  -7632950.07845  23767690.110    23767699.6584
  23324529.937   -11428024.943 8  -8877379.03446  23324529.554    23324540.7554
  22998669.091   -11496970.327 8  -8930331.00146  22998668.473    22998677.9964
 00  5  4  2 55 30.0000000  0  8 23 21 15 25 29 11 03 31
  23432133.077    -6925166.634 8  -5372539.64646  23432132.472    23432141.0804
  21025890.654   -22964823.130 9 -17596098.44247  21025890.079    21025897.2114
  20111233.330   -26380033.641 9 -20264023.20148  20111232.543    20111239.7504
  23191997.360   -14237556.321 8 -11072722.02146  23191997.065    23192007.0004
  20469044.053   -24744253.744 9 -19253211.97548  20469043.896    20469049.9434
  23748952.373    -9922465.623 8  -7709679.35145  23748951.853    23748961.3164
  23339932.052   -11347086.496 8  -8814310.25446  23339931.682    23339942.9704
  23006959.528   -11453403.833 8  -8896383.10946  23006958.893    23006968.4784
 00  5  4  2 56  0.0000000  0  8 23 21 15 25 29 11 03 31
  23442792.866    -6869149.245 8  -5328889.72346  23442792.302    23442800.7744
  21027603.054   -22955824.212 9 -17589086.28247  21027602.504    21027609.6454
  20104460.368   -26415625.665 9 -20291757.21248  20104459.582    20104466.7674
  23173795.830   -14333204.437 8 -11147252.77446  23173795.626    23173805.4684
  20475554.743   -24710039.680 9 -19226551.65548  20475554.569    20475560.6314
  23730241.739   -10020789.773 8  -7786295.41945  23730241.176    23730250.5924
  23355365.963   -11265981.352 8  -8751111.56846  23355365.577    23355376.9314
  23015331.690   -11409407.965 8  -8862100.63746  23015331.058    23015340.6604
 00  5  4  2 56 30.0000000  0  8 23 21 15 25 29 11 03 31
  23453470.436    -6813038.362 8  -5285166.92246  23453469.861    23453478.2174
  21029350.008   -22946644.027 9 -17581932.85747  21029349.434    21029356.5674
  20097783.420   -26450713.247 9 -20319098.14648  20097782.635    20097789.7934
  23155620.230   -14428717.111 8 -11221677.99846  23155619.988    23155629.7204
  20482131.865   -24675476.701 9 -19199619.44648  20482131.685    20482137.7464
  23711559.852   -10118963.374 8  -7862794.17745  23711559.309    23711568.6904
  23370831.603   -11184709.482 8  -8687782.98745  23370831.170    23370842.5734
  23023785.651   -11364982.154 8  -8827483.14846  23023785.035    23023794.6584
 00  5  4  2 57  0.0000000  0  8 23 21 15 25 29 11 03 31
  23464165.487    -6756835.757 8  -5241372.64046  23464164.937    23464173.0834
  21031131.137   -22937283.942 9 -17574639.25847  21031130.562    21031137.7034
  20091202.329   -26485296.885 9 -20346046.39848  20091201.551    20091208.7024
  23137470.513   -14524093.725 8 -11295997.21046  23137470.223    23137479.9244
  20488774.540   -24640569.157 9 -19172418.75148  20488774.357    20488780.3974
  23692906.632   -10216986.468 8  -7939175.63545  23692906.033    23692915.4014
  23386327.958   -11103276.279 8  -8624328.67745  23386327.482    23386338.9054
  23032320.626   -11320131.012 8  -8792534.23046  23032319.997    23032329.5604
 00  5  4  2 57 30.0000000  0  8 23 21 15 25 29 11 03 31
  23474878.111    -6700540.664 8  -5197506.29346  23474877.550    23474885.6484
  21032946.559   -22927743.544 9 -17567205.15547  21032945.994    21032953.1724
  20084717.596   -26519374.135 9 -20372600.06548  20084716.810    20084723.9574
  23119347.198   -14619331.101 8 -11370207.92646  23119346.940    23119356.6334
  20495482.603   -24605318.021 9 -19144950.32348  20495482.423    20495488.4554
  23674282.543   -10314856.145 8  -8015437.54645  23674282.036    23674291.3084
  23401854.482   -11021684.350 8  -8560750.69546  23401854.043    23401865.4764
  23040936.098   -11274856.508 8  -8757255.41846  23040935.472    23040945.0064
 00  5  4  2 58  0.0000000  0  8 23 21 15 25 29 11 03 31
  23485608.225    -6644152.476 8  -5153567.43645  23485607.653    23485615.9444
  21034796.501   -22918021.753 9 -17559629.70547  21034795.944    21034803.1694
  20078329.621   -26552943.047 9 -20398757.61748  20078328.812    20078335.9674
  23101250.855   -14714426.833 8 -11444308.27246  23101250.597    23101260.2774
  20502255.647   -24569725.269 9 -19117215.69448  20502255.474    20502261.5174
  23655688.173   -10412569.825 8  -8091577.88945  23655687.678    23655696.8924
  23417410.733   -10939936.648 8  -8497051.32146  23417410.294    23417421.6404
  23049631.658   -11229160.845 8  -8721648.42446  23049631.072    23049640.6204
 00  5  4  2 58 30.0000000  0  8 23 21 15 25 29 11 03 31
  23496356.240    -6587670.308 8  -5109555.36845  23496355.751    23496364.1574
  21036681.164   -22908117.624 9 -17551912.17047  21036680.609    21036687.8214
  20072038.838   -26586001.203 9 -20424517.18048  20072038.037    20072045.1934
  23083182.187   -14809377.336 8 -11518295.46346  23083181.915    23083191.5364
  20509093.509   -24533791.973 9 -19089215.71248  20509093.330    20509099.3794
  23637124.030   -10510124.599 8  -8167594.42245  23637123.500    23637132.7174
  23432996.031   -10858035.679 8  -8433232.54045  23432995.625    23433007.0414
  23058407.041   -11183046.124 8  -8685714.89946  23058406.488    23058415.9714
 00  5  4  2 59  0.0000000  0  8 23 21 15 25 29 11 03 31
  23507122.256    -6531094.349 8  -5065470.21145  23507121.758    23507130.2554
  21038600.610   -22898030.769 9 -17544052.24947  21038600.060    21038607.2524
  20065845.486   -26618547.201 9 -20449877.65448  20065844.695    20065851.8584
  23065141.515   -14904180.700 8 -11592168.02146  23065141.265    23065150.8024
  20515995.704   -24497520.640 9 -19060952.31948  20515995.532    20516001.5924
  23618590.411   -10607518.843 8  -8243485.83845  23618589.891    23618599.0834
  23448609.915   -10775984.849 8  -8369296.99145  23448609.555    23448620.9324
  23067261.611   -11136515.307 8  -8649457.13546  23067261.027    23067270.4594
 00  5  4  2 59 30.0000000  0  8 23 21 15 25 29 11 03 31
  23517906.416    -6474423.539 8  -5021311.10946  23517905.832    23517914.3464
  21040555.057   -22887759.935 9 -17536048.96947  21040554.507    21040561.6924
  20059750.121   -26650578.517 9 -20474837.07848  20059749.325    20059756.4594
  23047129.543   -14998833.444 8 -11665923.20446  23047129.305    23047138.7784
  20522962.055   -24460912.260 9 -19032426.29748  20522961.879    20522967.9314
  23600087.834   -10704749.587 8  -8319249.86645  23600087.370    23600096.5124
  23464251.767   -10693786.748 8  -8305246.69445  23464251.347    23464262.8464
  23076194.951   -11089570.091 8  -8612876.47746  23076194.383    23076203.8604
 00  5  4  3  0  0.0000000  0  8 23 21 15 25 29 11 03 31
  23528708.365    -6417659.502 8  -4977079.36045  23528707.824    23528716.0934
  21042544.315   -22877306.359 9 -17527903.29347  21042543.760    21042550.9334
  20053752.578   -26682095.535 9 -20499395.75548  20053751.797    20053758.8934
  23029146.310   -15093334.893 8 -11739560.50546  23029146.124    23029155.5404
  20529991.752   -24423970.842 9 -19003640.76448  20529991.573    20529997.6314
  23581616.410   -10801816.594 8  -8394886.30645  23581615.987    23581625.0494
  23479920.568   -10611446.590 8  -8241085.71545  23479920.110    23479931.7024
  23085206.401   -11042214.736 8  -8575976.22146  23085205.834    23085215.3374
 00  5  4  3  0 30.0000000  0  8 23 21 15 25 29 11 03 31
  23539528.620    -6360798.793 8  -4932772.26245  23539527.994    23539536.1834
  21044568.951   -22866666.620 9 -17519612.54847  21044568.418    21044575.5814
  20047853.850   -26713093.383 9 -20523549.88048  20047853.070    20047860.1624
  23011193.025   -15187679.158 8 -11813075.30746  23011192.823    23011202.2524
  20537085.044   -24386695.130 9 -18974594.74048  20537084.862    20537090.9304
  23563177.269   -10898714.339 8  -8470390.90145  23563176.823    23563185.8194
  23495616.523   -10528964.219 8  -8176813.91645  23495616.073    23495627.6684
  23094295.874   -10994449.124 8  -8538756.27046  23094295.303    23094304.8594
 00  5  4  3  1  0.0000000  0  8 23 21 15 25 29 11 03 31
  23550366.903    -6303842.407 7  -4888390.62945  23550366.251    23550374.4624
  21046628.836   -22855841.573 9 -17511177.41647  21046628.293    21046635.4604
  20042053.966   -26743571.602 9 -20547299.10248  20042053.195    20042060.2994
  22993269.899   -15281865.070 8 -11886466.72946  22993269.701    22993279.0274
  20544241.397   -24349088.326 9 -18945290.72348  20544241.208    20544247.2764
  23544770.586   -10995441.511 8  -8545762.53545  23544770.075    23544779.1124
  23511338.759   -10446344.238 8  -8112434.89445  23511338.318    23511349.9064
  23103462.729   -10946276.987 8  -8501219.56446  23103462.126    23103471.7184
 00  5  4  3  1 30.0000000  0  8 23 21 15 25 29 11 03 31
  23561223.351    -6246790.668 7  -4843934.71645  23561222.725    23561230.9854
  21048724.138   -22844830.641 9 -17502597.43747  21048723.572    21048730.7014
  20036353.136   -26773529.272 9 -20570642.70148  20036352.392    20036359.4954
  22975377.372   -15375890.456 8 -11959733.05846  22975377.138    22975386.3954
  20551460.282   -24311152.762 9 -18915730.52748  20551460.100    20551466.1714
  23526396.514   -11091996.953 8  -8621000.37045  23526396.025    23526405.0844
  23527086.469   -10363590.402 8  -8047951.57345  23527086.027    23527097.6564
  23112706.319   -10897701.469 8  -8463368.53346  23112705.737    23112715.3104
 00  5  4  3  2  0.0000000  0  8 23 21 15 25 29 11 03 31
  23572098.400    -6189642.003 8  -4799403.28745  23572097.796    23572106.0604
  21050855.176   -22833631.876 9 -17493871.09747  21050854.637    21050861.7254
  20030751.983   -26802963.396 9 -20593578.34148  20030751.220    20030758.3474
  22957515.960   -15469751.752 8 -12032871.53746  22957515.763    22957524.9874
  20558741.526   -24272889.409 9 -18885914.90947  20558741.340    20558747.4134
  23508055.974   -11188376.755 8  -8696101.38045  23508055.512    23508064.4244
  23542859.371   -10280704.205 8  -7983365.10545  23542858.917    23542870.5164
  23122026.560   -10848723.788 8  -8425204.11846  23122025.945    23122035.4234
 00  5  4  3  2 30.0000000  0  8 23 21 15 25 29 11 03 31
  23582991.764    -6132397.238 8  -4754796.94845  23582991.184    23582999.5084
  21053021.720   -22822246.591 9 -17484999.41647  21053021.177    21053028.2774
  20025250.552   -26831873.326 9 -20616105.52148  20025249.808    20025256.9464
  22939686.121   -15563446.954 8 -12105880.57346  22939685.946    22939695.1824
  20566084.635   -24234301.113 9 -18855846.09348  20566084.446    20566090.5024
  23489749.113   -11284579.610 8  -8771064.51745  23489748.606    23489757.4564
  23558656.566   -10197690.321 8  -7918679.14245  23558656.071    23558667.6514
  23131422.520   -10799347.775 8  -8386729.32746  23131421.940    23131431.3914
 00  5  4  3  3  0.0000000  0  8 23 21 15 25 29 11 03 31
  23593903.579    -6075055.809 8  -4710115.29345  23593902.991    23593911.3134
  21055224.017   -22810673.131 9 -17475981.10647  21055223.492    21055230.5924
  20019849.267   -26860257.111 9 -20638222.72048  20019848.517    20019855.6204
  22921888.451   -15656973.591 8 -12178758.26146  22921888.238    22921897.4284
  20573489.316   -24195389.254 9 -18825525.14548  20573489.130    20573495.1664
  23471476.236   -11380603.139 8  -8845887.88845  23471475.786    23471484.6234
  23574477.482   -10114551.350 8  -7853895.71145  23574476.989    23574488.6654
  23140893.839   -10749575.818 8  -8347945.99646  23140893.263    23140902.6904
 00  5  4  3  3 30.0000000  0  8 23 21 15 25 29 11 03 31
  23604833.965    -6017616.008 7  -4665356.98745  23604833.344    23604841.6644
  21057462.400   -22798910.355 9 -17466815.27547  21057461.843    21057468.9284
  20014548.659   -26888112.008 9 -20659927.79948  20014547.897    20014554.9754
  22904123.588   -15750327.595 8 -12251501.44846  22904123.446    22904132.5904
  20580955.279   -24156155.087 9 -18794953.04947  20580955.101    20580961.1624
  23453238.252   -11476443.775 8  -8920568.77345  23453237.782    23453246.5894
  23590321.905   -10031289.213 8  -7789016.29345  23590321.390    23590333.1294
  23150440.245   -10699409.412 8  -8308855.31346  23150439.664    23150449.0744
 00  5  4  3  4  0.0000000  0  8 23 21 15 25 29 11 03 31
  23615782.894    -5960078.005 7  -4620522.18145  23615782.275    23615790.6994
  21059736.856   -22786957.911 9 -17457501.65547  21059736.318    21059743.3924
  20009348.905   -26915436.790 9 -20681219.80248  20009348.157    20009355.2104
  22886392.032   -15843506.963 8 -12324108.55846  22886391.871    22886400.8564
  20588482.247   -24116600.613 9 -18764131.36348  20588482.070    20588488.1264
  23435035.505   -11572099.703 8  -8995105.75745  23435035.003    23435043.6724
  23606189.029    -9947907.600 8  -7724043.79145  23606188.535    23606200.3794
  23160061.061   -10648851.766 8  -8269459.76446  23160060.454    23160069.8454
 00  5  4  3  4 30.0000000  0  8 23 21 15 25 29 11 03 31
  23626750.598    -5902441.993 8  -4575610.97345  23626749.952    23626758.3144
  21062047.507   -22774815.120 9 -17448039.71547  21062046.968    21062054.0404
  20004250.261   -26942230.108 9 -20702097.67748  20004249.506    20004256.5644
  22868694.080   -15936509.530 8 -12396577.90046  22868693.913    22868702.8054
  20596069.674   -24076728.451 9 -18733062.12648  20596069.488    20596075.5264
  23416868.247   -11667568.672 8  -9069497.06745  23416867.750    23416876.3264
  23622078.252    -9864409.938 8  -7658980.86345  23622077.796    23622089.6784
  23169755.846   -10597905.538 8  -8229761.41646  23169755.272    23169764.6524
 00  5  4  3  5  0.0000000  0  8 23 21 15 25 29 11 03 31
  23637737.251    -5844706.978 8  -4530622.58945  23637736.616    23637744.8074
  21064394.552   -22762481.111 9 -17438428.76747  21064394.014    21064401.0704
  19999253.210   -26968489.848 9 -20722559.77648  19999252.466    19999259.4884
  22851030.406   -16029331.768 8 -12468906.71346  22851030.292    22851039.1464
  20603717.355   -24036539.501 9 -18701746.04348  20603717.173    20603723.2084
  23398737.152   -11762847.925 8  -9143740.56045  23398736.682    23398745.0934
  23637989.070    -9780798.632 8  -7593829.36745  23637988.671    23638000.5224
  23179524.108   -10546572.891 8  -8189761.96946  23179523.560    23179532.9934
 00  5  4  3  5 30.0000000  0  8 23 21 15 25 29 11 03 31
  23648742.936    -5786872.389 8  -4485556.63245  23648742.256    23648750.4294
  21066778.228   -22749954.755 9 -17428667.94847  21066777.683    21066784.7134
  19994357.960   -26994214.319 9 -20742604.78848  19994357.195    19994364.2404
  22833401.624   -16121971.229 8 -12541093.10946  22833401.456    22833410.2724
  20611424.978   -23996035.676 9 -18670184.60447  20611424.788    20611430.8114
  23380642.672   -11857934.792 8  -9217834.12745  23380642.179    23380650.4904
  23653920.878    -9697076.905 8  -7528591.83645  23653920.541    23653932.4274
  23189365.356   -10494856.543 8  -8149463.54346  23189364.767    23189374.2854
 00  5  4  3  6  0.0000000  0  8 23 21 15 25 29 11 03 31
  23659767.401    -5728938.852 8  -4440413.59245  23659766.734    23659774.9364
  21069198.379   -22737236.599 9 -17418757.67047  21069197.838    21069204.8884
  19989564.720   -27019402.802 9 -20762232.14448  19989563.953    19989570.9924
  22815807.955   -16214425.838 8 -12613135.47246  22815807.786    22815816.5604
  20619192.013   -23955219.634 9 -18638379.87447  20619191.821    20619197.8164
  23362584.856   -11952828.093 8  -9291776.83045  23362584.409    23362592.7824
  23669873.017    -9613248.325 8  -7463271.03845  23669872.668    23669884.6664
  23199279.018   -10442759.992 8  -8108868.83846  23199278.404    23199287.9364
 00  5  4  3  6 30.0000000  0  8 23 21 15 25 29 11 03 31
  23670810.870    -5670905.014 8  -4395192.42145  23670810.219    23670818.5184
  21071655.378   -22724324.985 9 -17408696.65447  21071654.847    21071661.8634
  19984873.926   -27044052.981 9 -20781440.04148  19984873.160    19984880.1944
  22798250.144   -16306692.115 8 -12685031.08946  22798249.950    22798258.6294
  20627018.202   -23914092.670 9 -18606332.87047  20627018.003    20627023.9764
  23344564.524   -12047524.581 8  -9365566.20245  23344564.125    23344572.5114
  23685845.055    -9529315.126 8  -7397868.71645  23685844.741    23685856.8194
  23209264.692   -10390284.795 8  -8067979.09946  23209264.070    23209273.6384
 00  5  4  3  7  0.0000000  0  8 23 21 15 25 29 11 03 31
  23681873.473    -5612769.755 7  -4349892.22145  23681872.841    23681881.2294
  21074149.441   -22711218.661 9 -17398483.90047  21074148.870    21074155.8874
  19980286.038   -27068162.431 9 -20800226.59148  19980285.256    19980292.2784
  22780728.823   -16398766.702 8 -12756777.31846  22780728.600    22780737.2344
  20634903.395   -23872655.653 9 -18574044.26047  20634903.204    20634909.1984
  23326582.334   -12142020.920 8  -9439199.58145  23326581.984    23326590.3324
  23701836.556    -9445279.769 8  -7332386.78645  23701836.250    23701848.2884
  23219322.073   -10337433.086 8  -8026795.94746  23219321.438    23219330.9834
 00  5  4  3  7 30.0000000  0  8 23 21 15 25 29 11 03 31
  23692955.123    -5554534.412 8  -4304514.04345  23692954.510    23692963.0394
  21076680.366   -22697918.365 9 -17388120.01647  21076679.798    21076686.8124
  19975801.008   -27091731.323 9 -20818591.93148  19975800.221    19975807.2324
  22763244.117   -16490648.524 8 -12828373.34046  22763243.894    22763252.4964
  20642846.895   -23830912.075 9 -18541516.78047  20642846.724    20642852.6994
  23308638.434   -12236316.125 8  -9512676.23945  23308638.016    23308646.4304
  23717846.691    -9361146.801 8  -7266828.76945  23717846.356    23717858.4284
  23229450.195   -10284208.952 8  -7985322.63046  23229449.586    23229459.1904
 00  5  4  3  8  0.0000000  0  8 23 21 15 25 29 11 03 31
  23704056.286    -5496197.084 8  -4259056.36145  23704055.754    23704064.0334
  21079248.637   -22684422.036 9 -17377603.37047  21079248.070    21079255.0774
  19971419.412   -27114756.550 9 -20836533.63348  19971418.635    19971425.6344
  22745796.883   -16582333.555 8 -12899816.01946  22745796.683    22745805.1964
  20650848.638   -23788862.612 9 -18508750.94647  20650848.465    20650854.4324
  23290733.632   -12330406.341 8  -9585993.18845  23290733.181    23290741.5504
  23733875.017    -9276918.002 8  -7201196.09345  23733874.690    23733886.8074
  23239648.985   -10230613.796 8  -7943560.19245  23239648.336    23239657.9554
 00  5  4  3  8 30.0000000  0  8 23 21 15 25 29 11 03 31
  23715177.037    -5437757.763 8  -4213519.16745  23715176.435    23715184.4964
  21081854.263   -22670729.229 9 -17366933.63347  21081853.686    21081860.7004
  19967141.515   -27137236.948 9 -20854050.80148  19967140.736    19967147.6984
  22728387.574   -16673819.431 8 -12971103.53346  22728387.375    22728395.8154
  20658908.211   -23746509.323 9 -18475748.37447  20658908.016    20658914.0094
  23272868.261   -12424289.513 8  -9659148.80045  23272867.798    23272875.9744
  23749920.881    -9192596.717 8  -7135491.35845  23749920.622    23749932.8224
  23249917.811   -10176650.911 8  -7901511.21245  23249917.118    23249926.7554
 00  5  4  3  9  0.0000000  0  8 23 21 15 25 29 11 03 31
  23726316.843    -5379218.509 8  -4167904.12645  23726316.124    23726324.1514
  21084496.982   -22656841.378 9 -17356111.91147  21084496.437    21084503.4504
  19962967.164   -27159173.284 9 -20871144.01648  19962966.396    19962973.3394
  22711016.229   -16765105.655 8 -13042235.47246  22711016.001    22711024.4094
  20667024.736   -23703856.412 9 -18442512.32347  20667024.567    20667030.5224
  23255042.132   -12517965.814 8  -9732143.18245  23255041.660    23255049.9184
  23765983.361    -9108188.378 8  -7069718.77545  23765983.122    23765995.3214
  23260255.678   -10122325.145 8  -7859179.45245  23260254.970    23260264.5734
 00  5  4  3  9 30.0000000  0  8 23 21 15 25 29 11 03 31
  23737476.108    -5320576.134 8  -4122208.75245  23737475.408    23737483.4464
  21087177.526   -22642755.047 9 -17345135.53047  21087176.961    21087183.9364
  19958897.086   -27180561.589 9 -20887810.19848  19958896.314    19958903.2504
  22693683.897   -16856187.174 8 -13113207.89846  22693683.630    22693692.0214
  20675198.439   -23660903.152 9 -18409042.23847  20675198.288    20675204.2354
  23237256.390   -12611429.731 8  -9804972.05645  23237255.993    23237264.2954
  23782062.439    -9023693.163 8  -7003878.50945  23782062.130    23782074.4354
  23270662.540   -10067636.292 8  -7816564.78145  23270661.856    23270671.5164
 00  5  4  3 10  0.0000000  0  8 23 21 15 25 29 11 03 31
  23748655.164    -5261829.404 8  -4076432.09245  23748654.479    23748662.6414
  21089896.078   -22628468.696 9 -17334003.29047  21089895.519    21089902.5204
  19954931.783   -27201399.329 9 -20904047.36848  19954930.999    19954937.9244
  22676391.100   -16947060.315 8 -13184017.95946  22676390.902    22676399.2704
  20683429.187   -23617650.455 9 -18375338.82247  20683429.010    20683434.9414
  23219511.744   -12704678.295 8  -9877633.15646  23219511.287    23219519.5724
  23798157.611    -8939113.460 8  -6937972.39045  23798157.249    23798169.6294
  23281138.220   -10012586.395 8  -7773668.76745  23281137.624    23281147.1494
 00  5  4  3 10 30.0000000  0  8 23 21 15 25 29 11 03 31
  23759853.747    -5202980.281 8  -4030575.63245  23759853.086    23759861.3184
  21092652.348   -22613984.288 9 -17322716.72547  21092651.791    21092658.7914
  19951071.099   -27221687.276 9 -20919856.12848  19951070.311    19951077.2144
  22659138.030   -17037724.954 8 -13254665.56446  22659137.825    22659146.1574
  20691716.033   -23574102.596 9 -18341405.41447  20691715.873    20691721.7994
  23201808.039   -12797711.371 8  -9950126.32846  23201807.574    23201815.8824
  23814267.860    -8854454.395 8  -6872004.43745  23814267.426    23814279.8034
  23291681.612    -9957180.761 8  -7730495.57945  23291681.035    23291690.5054
 00  5  4  3 11  0.0000000  0  8 23 21 15 25 29 11 03 31
  23771072.265    -5144026.725 8  -3984637.77645  23771071.600    23771079.8214
  21095446.823   -22599299.370 9 -17311273.90747  21095446.276    21095453.2444
  19947315.520   -27241422.829 9 -20935234.45348  19947314.741    19947321.6244
  22641925.592   -17128176.244 8 -13325146.93146  22641925.412    22641933.6634
  20700059.065   -23530259.746 9 -18307242.14547  20700058.877    20700064.8004
  23184146.200   -12890524.705 8 -10022448.28146  23184145.740    23184153.9814
  23830392.913    -8769717.226 8  -6805975.60745  23830392.483    23830404.8094
  23302292.470    -9901420.315 8  -7687045.88946  23302291.889    23302301.4154
 00  5  4  3 11 30.0000000  0  8 23 21 15 25 29 11 03 31
  23782310.551    -5084969.036 8  -3938618.76845  23782309.889    23782318.1114
  21098279.467   -22584413.586 9 -17299674.57447  21098278.925    21098285.9094
  19943665.236   -27260604.942 9 -20950181.52148  19943664.458    19943671.3504
  22624754.118   -17218412.470 8 -13395460.72146  22624753.929    22624762.0944
  20708457.752   -23486124.319 9 -18272850.89247  20708457.583    20708463.4954
  23166526.551   -12983116.420 8 -10094597.54946  23166526.088    23166534.2404
  23846532.162    -8684905.575 8  -6739888.72945  23846531.780    23846544.1134
  23312970.260    -9845308.366 8  -7643322.30646  23312969.697    23312979.2104
 00  5  4  3 12  0.0000000  0  8 23 21 15 25 29 11 03 31
  23793568.576    -5025807.672 8  -3892518.96245  23793567.945    23793576.0774
  21101150.270   -22569327.327 9 -17287919.02747  21101149.708    21101156.7184
  19940120.394   -27279233.100 9 -20964696.93548  19940119.622    19940126.5104
  22607623.810   -17308432.126 8 -13465605.74246  22607623.628    22607631.7764
  20716911.525   -23441699.281 9 -18238233.96547  20716911.351    20716917.2754
  23148949.145   -13075485.302 8 -10166573.16546  23148948.666    23148956.7794
  23862684.673    -8600023.899 8  -6673747.31645  23862684.377    23862696.7354
  23323714.303    -9788848.527 8  -7599327.65046  23323713.709    23323723.2274
 00  5  4  3 12 30.0000000  0  8 23 21 15 25 29 11 03 31
  23804846.694    -4966541.174 8  -3846337.24945  23804846.028    23804854.1514
  21104059.638   -22554038.593 9 -17276005.70447  21104059.064    21104066.0664
  19936681.364   -27297305.036 9 -20978778.93348  19936680.593    19936687.4854
  22590535.507   -17398231.216 8 -13535578.91146  22590535.278    22590543.4334
  20725420.318   -23396985.291 9 -18203391.88347  20725420.130    20725426.0554
  23131414.996   -13167627.483 8 -10238372.14446  23131414.516    23131422.6104
  23878850.295    -8515073.641 8  -6607552.44445  23878849.995    23878862.4134
  23334524.213    -9732042.508 8  -7555063.24346  23334523.555    23334533.0934
 00  5  4  3 13  0.0000000  0  8 23 21 15 25 29 11 03 31
  23816144.658    -4907168.931 8  -3800073.14445  23816144.007    23816152.3334
  21107007.544   -22538546.935 9 -17263934.25847  21107006.973    21107014.0134
  19933348.525   -27314819.043 9 -20992426.17948  19933347.770    19933354.6514
  22573489.692   -17487806.874 8 -13605377.96946  22573489.479    22573497.5834
  20733983.735   -23351984.010 9 -18168325.93547  20733983.552    20733989.4974
  23113924.502   -13259540.220 8 -10309992.32146  23113923.934    23113932.0734
  23895028.452    -8430057.484 8  -6541306.22445  23895028.146    23895040.4774
  23345399.413    -9674892.662 8  -7510530.92946  23345398.847    23345408.3874
 00  5  4  3 13 30.0000000  0  8 23 21 15 25 29 11 03 31
  23827463.175    -4847689.319 8  -3753725.39345  23827462.561    23827470.9844
  21109994.616   -22522849.776 9 -17251702.68047  21109994.045    21110001.0514
  19930122.354   -27331772.683 9 -21005636.78048  19930121.584    19930128.4564
  22556487.081   -17577155.639 8 -13675000.23446  22556486.840    22556494.9094
  20742601.725   -23306695.981 9 -18133036.54847  20742601.546    20742607.4854
  23096478.212   -13351220.172 8 -10381431.11946  23096477.731    23096485.8364
  23911218.790    -8344977.330 8  -6475010.11645  23911218.378    23911230.8164
  23356339.856    -9617400.812 8  -7465732.11146  23356339.233    23356348.7714
 00  5  4  3 14  0.0000000  0  8 23 21 15 25 29 11 03 31
  23838801.685    -4788105.311 8  -3707296.28245  23838801.041    23838809.3624
  21113020.289   -22506949.644 9 -17239312.94047  21113019.751    21113026.7224
  19927002.436   -27348167.846 9 -21018412.19848  19927001.664    19927008.5444
  22539527.572   -17666277.561 8 -13744445.74046  22539527.370    22539535.4344
  20751273.274   -23261126.644 9 -18097527.95247  20751273.083    20751279.0224
  23079076.180   -13442667.998 8 -10452689.03846  23079075.739    23079083.7914
  23927420.093    -8259839.706 8  -6408669.24245  23927419.622    23927432.0734
  23367344.063    -9559573.109 8  -7420671.58846  23367343.475    23367353.1304
 00  5  4  3 14 30.0000000  0  8 23 21 15 25 29 11 03 31
  23850160.533    -4728414.206 8  -3660783.71145  23850159.888    23850168.2864
  21116085.112   -22490843.848 9 -17226762.94447  21116084.539    21116091.5354
  19923989.490   -27364000.751 9 -21030749.49748  19923988.720    19923995.5974
  22522612.190   -17755167.775 8 -13813710.69746  22522611.980    22522620.0364
  20759998.450   -23215275.444 9 -18061799.72547  20759998.262    20760004.1924
  23061719.153   -13533878.805 8 -10523762.26146  23061718.674    23061726.8524
  23943632.156    -8174645.182 8  -6342284.03345  23943631.728    23943644.1094
  23378412.147    -9501410.105 8  -7375349.80046  23378411.523    23378421.2094
 00  5  4  3 15  0.0000000  0  8 23 21 15 25 29 11 03 31
  23861539.557    -4668616.635 8  -3614188.18445  23861538.961    23861547.3364
  21119188.947   -22474532.933 9 -17214053.10847  21119188.380    21119195.3814
  19921083.536   -27379271.501 9 -21042648.74748  19921082.751    19921089.6464
  22505741.210   -17843825.115 8 -13882794.19946  22505741.000    22505748.9554
  20768776.759   -23169145.218 9 -18025854.07747  20768776.565    20768782.5244
  23044407.543   -13624851.262 8 -10594649.75546  23044407.089    23044415.3354
  23959854.318    -8089397.867 8  -6275857.68145  23959853.958    23959866.3094
  23389543.289    -9442915.754 8  -7329769.80346  23389542.686    23389552.3634
 00  5  4  3 15 30.0000000  0  8 23 21 15 25 29 11 03 31
  23872939.298    -4608710.686 8  -3567508.20045  23872938.648    23872946.9894
  21122332.395   -22458014.015 9 -17201181.19147  21122331.834    21122338.8134
  19918285.126   -27393977.062 9 -21054107.59248  19918284.349    19918291.2424
  22488915.396   -17932244.983 8 -13951692.65946  22488915.158    22488923.0544
  20777608.088   -23122736.073 9 -17989691.08947  20777607.881    20777613.8654
  23027142.108   -13715581.245 8 -10665348.34246  23027141.662    23027149.9034
  23976086.246    -8004098.844 8  -6209391.04745  23976085.891    23976098.3124
  23400737.258    -9384090.805 8  -7283932.22446  23400736.678    23400746.3834
 00  5  4  3 16  0.0000000  0  8 23 21 15 25 29 11 03 31
  23884359.489    -4548697.310 7  -3520744.50445  23884358.863    23884367.1174
  21125515.233   -22441287.790 9 -17188147.72947  21125514.680    21125521.6654
  19915594.239   -27408117.622 9 -21065126.17148  19915593.482    19915600.3164
  22472134.976   -18020426.315 8 -14020405.23746  22472134.735    22472142.5914
  20786491.830   -23076051.609 9 -17953313.55847  20786491.621    20786497.5934
  23009923.023   -13806067.704 8 -10735857.16746  23009922.632    23009930.7494
  23992327.065    -7918752.556 7  -6142887.60345  23992326.708    23992339.3334
  23411993.352    -9324939.613 8  -7237840.39446  23411992.724    23412002.4964
 00  5  4  3 16 30.0000000  0  8 23 21 15 25 29 11 03 31
  23895800.272    -4488575.129 7  -3473896.03045  23895799.563    23895807.9284
  21128737.777   -22424353.024 9 -17174951.76447  21128737.220    21128744.2214
  19913011.317   -27421690.927 9 -21075702.73848  19913010.540    19913017.3724
  22455400.557   -18108365.696 8 -14088929.29946  22455400.320    22455408.1424
  20795427.811   -23029092.398 9 -17916721.95147  20795427.635    20795433.6034
  22992751.009   -13896307.284 8 -10806173.66646  22992750.570    22992758.5884
  24008576.556    -7833361.236 7  -6076349.06445  24008576.189    24008588.8634
  23423311.163    -9265464.243 8  -7191495.98146  23423310.549    23423320.3084
 00  5  4  3 17  0.0000000  0  8 23 21 15 25 29 11 03 31
  23907261.653    -4428344.461 7  -3426963.01345  23907261.068    23907269.2974
  21132000.110   -22407209.120 9 -17161592.83947  21131999.561    21132006.5654
  19910536.388   -27434696.560 9 -21085836.96448  19910535.623    19910542.4584
  22438712.541   -18196060.877 8 -14157263.07046  22438712.303    22438720.0954
  20804415.574   -22981861.225 9 -17879918.42347  20804415.403    20804421.4114
  22975626.301   -13986297.897 8 -10876296.14146  22975625.816    22975633.8294
  24024833.940    -7747928.109 7  -6009777.95845  24024833.563    24024846.4404
  23434689.996    -9205668.245 8  -7144901.71446  23434689.392    23434699.1284
 00  5  4  3 17 30.0000000  0  8 23 21 15 25 29 11 03 31
  23918743.772    -4368005.374 7  -3379945.50245  23918743.179    23918751.2614
  21135302.250   -22389855.916 9 -17148070.81947  21135301.725    21135308.6814
  19908169.587   -27447133.996 9 -21095528.44248  19908168.822    19908175.6624
  22422071.415   -18283509.806 8 -14225404.96146  22422071.203    22422078.9484
  20813454.711   -22934360.264 9 -17842904.66647  20813454.525    20813460.5284
  22958549.344   -14076037.656 8 -10946223.13746  22958548.867    22958556.8194
  24041098.769    -7662456.492 7  -5943176.85145  24041098.424    24041111.2304
  23446129.236    -9145554.752 8  -7098060.05346  23446128.623    23446138.3294
 00  5  4  3 18  0.0000000  0  8 23 21 15 25 29 11 03 31
  23930246.719    -4307556.714 8  -3332842.62545  23930246.106    23930254.2394
  21138644.592   -22372291.734 9 -17134384.40047  21138644.051    21138651.0124
  19905911.317   -27459001.109 9 -21104775.51448  19905910.555    19905917.4054
  22405477.847   -18370709.043 8 -14293352.27946  22405477.631    22405485.3554
  20822544.881   -22886590.874 9 -17805681.74547  20822544.702    20822550.7154
  22941520.778   -14165523.401 8 -11015952.20646  22941520.246    22941528.2014
  24057370.375    -7576949.071 7  -5876547.86045  24057369.979    24057382.9434
  23457628.504    -9085125.836 8  -7050972.61646  23457627.882    23457637.5824
 00  5  4  3 18 30.0000000  0  8 23 21 15 25 29 11 03 31
  23941770.507    -4246998.532 7  -3285654.41345  23941769.918    23941778.1144
  21142027.100   -22354516.313 9 -17120533.38247  21142026.560    21142033.5144
  19903761.699   -27470297.140 9 -21113577.58548  19903760.953    19903767.7894
  22388932.180   -18457656.228 8 -14361103.19446  22388931.985    22388939.7364
  20831685.787   -22838554.955 9 -17768251.13947  20831685.624    20831691.6064
  22924540.912   -14254752.939 8 -11085481.63546  22924540.420    22924548.2014
  24073648.187    -7491409.020 7  -5809893.40545  24073647.780    24073660.8404
  23469187.175    -9024384.602 8  -7003641.81146  23469186.550    23469196.3014
 00  5  4  3 19  0.0000000  0  8 23 21 15 25 29 11 03 31
  23953315.450    -4186329.561 8  -3238379.87745  23953314.815    23953323.1764
  21145450.133   -22336527.782 9 -17106516.30247  21145449.580    21145456.5644
  19901721.164   -27481020.233 9 -21121933.21248  19901720.406    19901727.2404
  22372435.220   -18544347.823 8 -14428654.95246  22372435.016    22372442.7344
  20840877.216   -22790253.584 9 -17730613.69147  20840877.061    20840883.0494
  22907610.427   -14343722.913 8 -11154808.81046  22907609.932    22907617.5734
  24089931.812    -7405838.504 8  -5743215.24145  24089931.407    24089944.4784
  23480804.877    -8963333.224 8  -6956069.35046  23480804.287    23480814.0714
 00  5  4  3 19 30.0000000  0  8 23 21 15 25 29 11 03 31
  23964881.404    -4125550.055 7  -3191019.21245  23964880.818    23964889.1914
  21148913.723   -22318326.225 9 -17092333.23247  21148913.192    21148920.1664
  19899789.742   -27491169.727 9 -21129841.87748  19899788.983    19899795.8074
  22355987.163   -18630782.459 8 -14496006.47546  22355986.952    22355994.6064
  20850118.669   -22741689.411 9 -17692771.45347  20850118.503    20850124.4754
  22890729.608   -14432431.444 8 -11223932.24346  22890729.148    22890736.7294
  24106220.602    -7320241.145 8  -5676516.14545  24106220.130    24106233.2314
  23492480.914    -8901975.416 8  -6908258.10545  23492480.294    23492490.0464
 00  5  4  3 20  0.0000000  0  8 23 21 15 25 29 11 03 31
  23976468.566    -4064658.964 7  -3143571.58945  23976467.997    23976476.3154
  21152418.196   -22299910.091 9 -17077982.96847  21152417.656    21152424.6174
  19897967.799   -27500743.925 9 -21137302.26548  19897967.044    19897973.8684
  22339588.687   -18716956.394 8 -14563154.86246  22339588.485    22339596.1194
  20859409.932   -22692863.499 9 -17654725.27147  20859409.761    20859415.7114
  22873899.179   -14520875.440 8 -11292849.55946  22873898.730    22873906.2794
  24122514.123    -7234618.679 8  -5609797.49145  24122513.751    24122526.8064
  23504214.667    -8840313.354 8  -6860209.78745  23504214.091    23504223.9284
 00  5  4  3 20 30.0000000  0  8 23 21 15 25 29 11 03 31
  23988076.679    -4003657.309 7  -3096037.83445  23988076.041    23988084.4864
  21155963.266   -22281280.310 9 -17063466.22047  21155962.742    21155969.7504
  19896255.310   -27509743.115 9 -21144314.58848  19896254.550    19896261.3554
  22323240.063   -18802868.260 8 -14630099.03446  22323239.913    22323247.5394
  20868750.424   -22643778.785 9 -17616477.42747  20868750.245    20868756.2034
  22857119.362   -14609053.522 8 -11361559.65046  22857118.936    22857126.4864
  24138811.618    -7148975.602 7  -5543062.75645  24138811.339    24138824.4084
  23516005.774    -8778350.964 8  -6811927.45145  23516005.208    23516015.0064
 00  5  4  3 21  0.0000000  0  8 23 21 15 25 29 11 03 31
  23999705.660    -3942546.007 7  -3048418.64745  23999705.021    23999713.5984
  21159548.990   -22262436.909 9 -17048782.99747  21159548.439    21159555.4914
  19894652.134   -27518167.743 9 -21150879.19248  19894651.360    19894658.1604
  22306941.533   -18888517.135 8 -14696838.28546  22306941.366    22306948.9224
  20878139.492   -22594438.802 9 -17578030.66847  20878139.325    20878145.2784
  22840390.362   -14696964.385 8 -11430061.48246  22840389.918    22840397.5924
  24155112.233    -7063316.099 8  -5476315.24645  24155111.903    24155125.0854
  23527853.180    -8716092.610 8  -6763414.47345  23527852.616    23527862.4754
 00  5  4  3 21 30.0000000  0  8 23 21 15 25 29 11 03 31
  24011356.370    -3881320.902 7  -3000710.76845  24011355.734    24011364.4604
  21163176.183   -22243375.798 9 -17033930.14547  21163175.648    21163182.6504
  19893159.227   -27526013.067 9 -21156992.40048  19893158.463    19893165.2384
  22290694.351   -18973896.242 8 -14763367.32746  22290694.164    22290701.6994
  20887577.543   -22544841.412 9 -17539383.33447  20887577.381    20887583.3184
  22823713.395   -14784601.920 8 -11498350.34646  22823712.972    22823720.7154
  24171416.187    -6977639.334 7  -5409554.28245  24171415.827    24171428.9984
  23539757.045    -8653537.292 8  -6714670.11045  23539756.526    23539766.3724
 00  5  4  3 22  0.0000000  0  8 23 21 15 25 29 11 03 31
  24023028.831    -3819982.118 8  -2952914.27545  24023028.253    24023036.5664
  21166844.879   -22224096.433 9 -17018907.22947  21166844.339    21166851.3104
  19891776.653   -27533278.337 9 -21162653.61648  19891775.910    19891782.6474
  22274498.767   -19059003.883 8 -14829684.83946  22274498.606    22274506.1334
  20897064.107   -22494989.083 9 -17500537.34647  20897063.954    20897069.8764
  22807088.850   -14871964.091 8 -11566424.63646  22807088.441    22807096.1354
  24187722.658    -6891948.813 8  -5342782.57545  24187722.388    24187735.5154
  23551716.718    -8590688.622 8  -6665697.15045  23551716.196    23551726.0804
 00  5  4  3 22 30.0000000  0  8 23 21 15 25 29 11 03 31
  24034722.414    -3758532.617 8  -2905031.51545  24034721.749    24034729.9564
  21170554.632   -22204601.429 9 -17003716.28247  21170554.090    21170561.0644
  19890503.993   -27539966.155 9 -21167864.87048  19890503.231    19890509.9894
  22258354.820   -19143840.647 8 -14895791.27846  22258354.602    22258362.1284
  20906598.223   -22444886.944 9 -17461496.69447  20906598.073    20906603.9854
  22790516.535   -14959052.018 8 -11634285.23046  22790516.115    22790523.7324
  24204030.577    -6806250.921 8  -5276005.11445  24204030.278    24204043.4574
  23563731.147    -8527552.666 8  -6616500.33745  23563730.608    23563740.4664
 00  5  4  3 23  0.0000000  0  8 23 21 15 25 29 11 03 31
  24046437.925    -3696967.842 8  -2857058.93745  24046437.228    24046445.4704
  21174306.362   -22184885.652 9 -16988353.30447  21174305.853    21174312.8414
  19889342.167   -27546071.540 9 -21172622.27848  19889341.396    19889348.1464
  22242263.625   -19228400.016 8 -14961681.56446  22242263.412    22242270.8574
  20916180.296   -22394532.609 9 -17422259.52147  20916180.130    20916186.0634
  22773997.593   -15045858.927 8 -11701926.84046  22773997.160    22774004.8044
  24220340.078    -6720544.048 8  -5209220.67345  24220339.837    24220353.0774
  23575800.517    -8464128.375 8  -6567078.84845  23575799.933    23575809.7494
 00  5  4  3 23 30.0000000  0  8 23 21 15 25 29 11 03 31
  24058174.852    -3635290.046 8  -2808998.29245  24058174.163    24058182.3734
  21178099.692   -22164951.400 9 -16972820.08547  21178099.157    21178106.1674
  19888290.872   -27551596.000 9 -21176927.02348  19888290.103    19888296.8534
  22226225.195   -19312681.910 8 -15027355.63946  22226224.975    22226232.3704
  20925809.544   -22343930.606 9 -17382829.36547  20925809.364    20925815.2854
  22757532.114   -15132384.690 8 -11769349.37046  22757531.689    22757539.3964
  24236650.322    -6634833.739 8  -5142433.52745  24236649.986    24236663.3794
  23587923.626    -8400421.341 8  -6517437.02945  23587923.051    23587932.7744
 00  5  4  3 24  0.0000000  0  8 23 21 15 25 29 11 03 31
  24069933.386    -3573498.602 7  -2760849.09745  24069932.762    24069940.9624
  21181934.872   -22144797.232 9 -16957115.50847  21181934.322    21181941.3254
  19887350.390   -27556538.080 9 -21180777.96848  19887349.624    19887356.3684
  22210240.197   -19396683.185 8 -15092811.05746  22210239.961    22210247.3584
  20935485.611   -22293082.381 9 -17343207.35247  20935485.435    20935491.3654
  22741120.788   -15218626.404 8 -11836550.55346  22741120.370    22741128.0794
  24252960.767    -6549122.332 8  -5075645.53945  24252960.445    24252973.8514
  23600100.080    -8336433.957 8  -6467576.75645  23600099.551    23600109.1394
 00  5  4  3 24 30.0000000  0  8 23 21 15 25 29 11 03 31
  24081713.743    -3511592.617 7  -2712610.65845  24081712.958    24081721.3434
  21185812.048   -22124422.262 9 -16941238.87647  21185811.508    21185818.4984
  19886520.938   -27560896.653 9 -21184174.22248  19886520.169    19886526.9204
  22194309.173   -19480400.670 8 -15158045.34146  22194308.950    22194316.3104
  20945208.325   -22241989.001 9 -17303394.29947  20945208.154    20945214.0514
  22724764.103   -15304581.117 8 -11903528.11246  22724763.654    22724771.3264
  24269270.918    -6463412.338 8  -5008858.62845  24269270.643    24269283.9504
  23612329.414    -8272168.610 8  -6417499.91045  23612328.864    23612338.4994
 00  5  4  3 25  0.0000000  0  8 23 21 15 25 29 11 03 31
  24093515.765    -3449571.299 7  -2664282.37445  24093515.077    24093523.5714
  21189731.641   -22103824.704 9 -16925188.79947  21189731.085    21189738.0584
  19885802.745   -27564670.554 9 -21187114.89648  19885801.976    19885808.7104
  22178432.611   -19563831.823 8 -15223056.51147  22178432.421    22178439.7574
  20954977.414   -22190652.000 9 -17263391.42247  20954977.241    20954983.1564
  22708462.505   -15390246.163 8 -11970279.95446  22708462.029    22708469.7004
  24285580.277    -6377706.306 8  -4942074.81645  24285580.042    24285593.3714
  23624611.208    -8207627.731 8  -6367208.34945  23624610.663    23624620.2144
 00  5  4  3 25 30.0000000  0  8 23 21 15 25 29 11 03 31
  24105339.663    -3387435.810 7  -2615865.12845  24105338.981    24105347.5784
  21193693.360   -22083005.613 9 -16908966.09447  21193692.822    21193699.7474
  19885195.680   -27567860.428 9 -21189600.47548  19885194.916    19885201.6394
  22162610.803   -19646975.310 8 -15287843.53347  22162610.614    22162617.9214
  20964792.180   -22139074.935 9 -17223201.47247  20964792.016    20964797.9124
  22692216.187   -15475620.302 8 -12036805.13446  22692215.686    22692223.3434
  24301888.152    -6292008.678 7  -4875297.53945  24301887.833    24301901.1294
  23636944.460    -8142815.908 8  -6316705.66745  23636943.964    23636953.5294
 00  5  4  3 26  0.0000000  0  8 23 21 15 25 29 11 03 31
  24117185.926    -3325183.288 8  -2567356.66045  24117185.341    24117193.7844
  21197697.905   -22061961.492 9 -16892568.05447  21197697.389    21197704.2844
  19884700.484   -27570462.786 9 -21191628.25548  19884699.719    19884706.4114
  22146844.686   -19729826.228 8 -15352402.57247  22146844.489    22146851.7934
  20974652.822   -22087256.880 9 -17182823.74447  20974652.630    20974658.5484
  22676026.209   -15560698.552 8 -12103099.74746  22676025.724    22676033.2954
  24318194.359    -6206319.669 7  -4808526.99545  24318194.004    24318207.3954
  23649329.188    -8077733.571 8  -6265992.20345  23649328.770    23649338.2524
 00  5  4  3 26 30.0000000  0  8 23 21 15 25 29 11 03 31
  24129053.961    -3262816.723 8  -2518759.32045  24129053.343    24129061.5454
  21201744.777   -22040694.981 9 -16875996.70547  21201744.258    21201751.1214
  19884316.502   -27572480.466 9 -21193200.43448  19884315.725    19884322.4204
  22131134.075   -19812385.547 8 -15416734.38947  22131133.875    22131141.1974
  20984558.308   -22035203.226 9 -17142262.42047  20984558.103    20984564.0034
  22659892.401   -15645481.836 8 -12169164.52346  22659891.953    22659899.4334
  24334497.677    -6120645.406 7  -4741767.93045  24334497.397    24334510.8584
  23661764.202    -8012387.402 8  -6215073.15145  23661763.812    23661773.2374
 00  5  4  3 27  0.0000000  0  8 23 21 15 25 29 11 03 31
  24140944.420    -3200332.113 8  -2470069.99045  24140943.872    24140951.9104
  21205834.699   -22019202.179 9 -16859249.04047  21205834.167    21205841.0074
  19884044.595   -27573909.260 9 -21194313.75448  19884043.823    19884050.4884
  22115480.124   -19894647.163 8 -15480834.24047  22115479.932    22115487.2474
  20994508.920   -21982912.203 9 -17101516.14447  20994508.724    20994514.6254
  22643815.921   -15729964.160 8 -12234994.79146  22643815.413    22643822.8804
  24350798.333    -6034985.149 7  -4675019.80345  24350797.854    24350811.4564
  23674249.599    -7946776.701 8  -6163947.98745  23674249.148    23674258.5884
 00  5  4  3 27 30.0000000  0  8 23 21 15 25 29 11 03 31
  24152856.820    -3137732.314 8  -2421290.87145  24152856.305    24152864.2794
  21209967.280   -21997485.130 9 -16842326.63047  21209966.765    21209973.5374
  19883884.260   -27574751.635 9 -21194970.10648  19883883.484    19883890.1404
  22099882.721   -19976611.862 8 -15544702.72147  22099882.500    22099889.7434
  21004503.752   -21930388.752 9 -17060588.74747  21004503.575    21004509.4504
  22627796.564   -15814146.212 8 -12300591.08246  22627796.053    22627803.4794
  24367095.046    -5949345.217 7  -4608287.53745  24367094.462    24367108.2314
  23686784.129    -7880907.353 8  -6112621.25945  23686783.671    23686793.1884
 00  5  4  3 28  0.0000000  0  8 23 21 15 25 29 11 03 31
  24164791.533    -3075015.000 8  -2372420.18945  24164790.984    24164798.9884
  21214143.198   -21975540.613 9 -16825226.97747  21214142.675    21214149.3934
  19883836.124   -27575004.425 9 -21195167.05648  19883835.337    19883842.0284
  22084342.653   -20058274.973 8 -15608336.20347  22084342.418    22084349.6294
  21014542.894   -21877632.617 9 -17019480.04947  21014542.705    21014548.5774
  22611835.139   -15898023.340 8 -12365949.76846  22611834.613    22611842.0904
  24383387.846    -5863726.148 7  -4541571.49545  24383387.342    24383401.2044
  23699367.832    -7814780.071 8  -6061093.56245  23699367.359    23699376.8994
 00  5  4  3 28 30.0000000  0  8 23 21 15 25 29 11 03 31
  24176748.618    -3012180.064 8  -2323457.85345  24176748.076    24176755.8374
  21218362.453   -21953368.185 9 -16807949.73447  21218361.924    21218368.6654
  19883900.249   -27574667.177 9 -21194904.23648  19883899.493    19883906.1684
  22068860.389   -20139634.383 8 -15671733.03947  22068860.166    22068867.3614
  21024625.975   -21824645.722 9 -16978191.52847  21024625.794    21024631.6344
  22595932.108   -15981593.107 8 -12431068.95746  22595931.652    22595939.1964
  24399676.288    -5778131.025 7  -4474874.11145  24399675.696    24399689.5624
  23711999.909    -7748398.168 8  -6009367.45745  23711999.415    23712009.0024
